[[{"header":{"parameterUnit":"m.s-1","parameterCategory":1,"la1":30.6,"la2":29.2853,"lo1":-89.7004,"lo2":-87.6739,"dy":0.0162,"dx":0.0183,"nx":112,"ny":82,"refTime":"2023-05-16T12:00:00:Z","depth":0,"parameterNumber":2,"parameterNumberName":"U-component_of_WINDS"},"data":[0.0,0.0,0.0,0.0,0.0,0.0,0.0,0.0,0.0,0.0,0.0,0.0,0.0,0.0,0.0,0.0,0.0,0.0,0.0,0.0,0.0,0.0,0.0,0.0,0.0,0.0,0.0,0.0,0.0,0.0,0.0,0.0,0.0,0.0,0.0,0.0,0.0,0.0,0.0,0.0,0.0,0.0,0.0,0.0,0.0,0.0,0.0,0.0,0.0,0.0,0.0,0.0,0.0,0.0,0.0,0.0,0.0,0.0,0.0,0.0,0.0,0.0,0.0,0.0,0.0,0.0,0.0,0.0,0.0,0.0,0.0,0.0,0.0,0.0,0.0,0.0,0.0,0.0,0.0,0.0,0.0,0.0,0.0,0.0,0.0,0.0,0.0,0.0,0.0,0.0,-1.9947,-1.9943,-2.0755,-2.1103,-2.063,-2.0389,-1.9732,-1.8567,0.0,0.0,0.0,0.0,0.0,0.0,0.0,0.0,0.0,0.0,0.0,0.0,0.0,0.0,0.0,0.0,0.0,0.0,0.0,0.0,0.0,0.0,0.0,0.0,0.0,0.0,0.0,0.0,0.0,0.0,0.0,0.0,0.0,0.0,0.0,0.0,0.0,0.0,0.0,0.0,0.0,0.0,0.0,0.0,0.0,0.0,0.0,0.0,0.0,0.0,0.0,0.0,0.0,0.0,0.0,0.0,0.0,0.0,0.0,0.0,0.0,0.0,0.0,0.0,0.0,0.0,0.0,0.0,0.0,0.0,0.0,0.0,0.0,0.0,0.0,0.0,0.0,0.0,0.0,0.0,0.0,0.0,0.0,0.0,0.0,0.0,0.0,0.0,0.0,0.0,0.0,0.0,0.0,0.0,0.0,0.0,0.0,0.0,0.0,0.0,0.0,0.0,0.0,0.0,-2.0139,-2.1343,-2.1616,-2.1404,-2.0663,-2.0216,-1.9401,-1.8002,0.0,0.0,0.0,0.0,0.0,0.0,0.0,0.0,0.0,0.0,0.0,0.0,0.0,0.0,0.0,0.0,0.0,0.0,0.0,0.0,0.0,0.0,0.0,0.0,0.0,0.0,0.0,0.0,0.0,0.0,0.0,0.0,0.0,0.0,0.0,0.0,0.0,0.0,0.0,0.0,0.0,0.0,0.0,0.0,0.0,0.0,0.0,0.0,0.0,0.0,0.0,0.0,0.0,0.0,0.0,0.0,0.0,0.0,0.0,0.0,0.0,0.0,0.0,0.0,0.0,0.0,0.0,0.0,0.0,0.0,0.0,0.0,0.0,0.0,0.0,0.0,0.0,0.0,0.0,0.0,0.0,0.0,0.0,0.0,0.0,0.0,0.0,0.0,0.0,0.0,0.0,0.0,0.0,0.0,0.0,0.0,0.0,0.0,0.0,0.0,0.0,0.0,0.0,-2.0478,-2.0565,-2.216,-2.2023,-2.1584,-2.1039,-2.0534,-1.9597,-1.811,-1.7256,0.0,0.0,0.0,0.0,0.0,0.0,0.0,0.0,0.0,0.0,0.0,0.0,0.0,0.0,0.0,0.0,0.0,0.0,0.0,0.0,0.0,0.0,0.0,0.0,0.0,0.0,0.0,0.0,0.0,0.0,0.0,0.0,0.0,0.0,0.0,0.0,0.0,0.0,0.0,0.0,0.0,0.0,0.0,0.0,0.0,0.0,0.0,0.0,0.0,0.0,0.0,0.0,0.0,0.0,0.0,0.0,0.0,0.0,0.0,0.0,0.0,0.0,0.0,0.0,0.0,0.0,0.0,0.0,0.0,0.0,0.0,0.0,0.0,0.0,0.0,0.0,0.0,0.0,0.0,0.0,0.0,0.0,0.0,0.0,0.0,0.0,0.0,0.0,0.0,0.0,0.0,0.0,0.0,0.0,0.0,0.0,0.0,0.0,0.0,0.0,0.0,0.0,-2.0883,-2.1105,-2.2618,-2.2289,-2.179,-2.1368,-2.084,-1.9947,-1.8574,-1.7591,0.0,0.0,0.0,0.0,0.0,0.0,0.0,0.0,0.0,0.0,0.0,0.0,0.0,0.0,0.0,0.0,0.0,0.0,0.0,0.0,0.0,0.0,0.0,0.0,0.0,0.0,0.0,0.0,0.0,0.0,0.0,0.0,0.0,0.0,0.0,0.0,0.0,0.0,0.0,0.0,0.0,0.0,0.0,0.0,0.0,0.0,0.0,0.0,0.0,0.0,0.0,0.0,0.0,0.0,0.0,0.0,0.0,0.0,0.0,0.0,0.0,0.0,0.0,0.0,0.0,0.0,0.0,0.0,0.0,0.0,0.0,0.0,0.0,0.0,0.0,0.0,0.0,0.0,0.0,0.0,0.0,0.0,0.0,0.0,0.0,0.0,0.0,0.0,0.0,0.0,0.0,0.0,0.0,0.0,0.0,0.0,0.0,0.0,0.0,0.0,0.0,0.0,-2.0601,-2.1878,-2.2631,-2.2554,-2.2147,-2.1458,-2.0971,-2.0305,-1.9384,-1.8323,0.0,0.0,0.0,0.0,0.0,0.0,0.0,0.0,0.0,0.0,0.0,0.0,0.0,0.0,0.0,0.0,0.0,0.0,0.0,0.0,0.0,0.0,0.0,0.0,0.0,0.0,0.0,0.0,0.0,0.0,0.0,0.0,0.0,0.0,0.0,0.0,0.0,0.0,0.0,0.0,0.0,0.0,0.0,0.0,0.0,0.0,0.0,0.0,0.0,0.0,0.0,0.0,0.0,0.0,0.0,0.0,0.0,0.0,0.0,0.0,0.0,0.0,0.0,0.0,0.0,0.0,0.0,0.0,0.0,0.0,0.0,0.0,0.0,0.0,0.0,0.0,0.0,0.0,0.0,0.0,0.0,0.0,0.0,0.0,0.0,0.0,0.0,0.0,0.0,0.0,0.0,0.0,0.0,0.0,0.0,0.0,0.0,0.0,0.0,0.0,0.0,0.0,-2.1003,-2.2113,-2.3041,-2.2721,-2.2248,-2.182,-2.118,-2.0415,-1.9386,0.0,0.0,0.0,0.0,0.0,0.0,0.0,0.0,0.0,0.0,0.0,0.0,0.0,0.0,0.0,0.0,0.0,0.0,0.0,0.0,0.0,0.0,0.0,0.0,0.0,0.0,0.0,0.0,0.0,0.0,0.0,0.0,0.0,0.0,0.0,0.0,0.0,0.0,0.0,0.0,0.0,0.0,0.0,0.0,0.0,0.0,0.0,0.0,0.0,0.0,0.0,0.0,0.0,0.0,0.0,0.0,0.0,0.0,0.0,0.0,0.0,0.0,0.0,0.0,0.0,0.0,0.0,0.0,0.0,0.0,0.0,0.0,0.0,0.0,0.0,0.0,0.0,0.0,0.0,0.0,0.0,0.0,0.0,0.0,0.0,0.0,0.0,0.0,0.0,0.0,0.0,0.0,0.0,0.0,0.0,0.0,0.0,0.0,0.0,0.0,0.0,0.0,-2.0902,-2.1828,-2.2594,-2.3259,-2.2857,-2.2395,-2.2096,-2.1352,-2.0623,-1.9891,0.0,0.0,0.0,0.0,0.0,0.0,0.0,0.0,0.0,0.0,0.0,0.0,0.0,0.0,0.0,0.0,0.0,0.0,0.0,0.0,0.0,0.0,0.0,0.0,0.0,0.0,0.0,0.0,0.0,0.0,0.0,0.0,0.0,0.0,0.0,0.0,0.0,0.0,0.0,0.0,0.0,0.0,0.0,0.0,0.0,0.0,0.0,0.0,0.0,0.0,0.0,0.0,0.0,0.0,0.0,0.0,0.0,0.0,0.0,0.0,0.0,0.0,0.0,0.0,0.0,0.0,0.0,0.0,0.0,0.0,0.0,0.0,0.0,0.0,0.0,0.0,0.0,0.0,0.0,0.0,0.0,0.0,0.0,0.0,0.0,0.0,0.0,0.0,0.0,0.0,0.0,0.0,0.0,0.0,0.0,0.0,0.0,0.0,0.0,0.0,0.0,0.0,-2.2134,-2.3037,-2.3428,-2.3223,-2.295,-2.2624,-2.222,-2.1391,-2.0953,0.0,0.0,0.0,0.0,0.0,0.0,0.0,0.0,0.0,0.0,0.0,0.0,0.0,0.0,0.0,0.0,0.0,0.0,0.0,0.0,0.0,0.0,0.0,0.0,0.0,0.0,0.0,0.0,0.0,0.0,0.0,0.0,0.0,0.0,0.0,0.0,0.0,0.0,0.0,0.0,0.0,0.0,0.0,0.0,0.0,0.0,0.0,0.0,0.0,0.0,0.0,0.0,0.0,0.0,0.0,0.0,0.0,0.0,0.0,0.0,0.0,0.0,0.0,0.0,0.0,0.0,0.0,0.0,0.0,0.0,0.0,0.0,0.0,0.0,0.0,0.0,0.0,0.0,0.0,0.0,0.0,0.0,0.0,0.0,0.0,0.0,0.0,0.0,0.0,0.0,0.0,0.0,0.0,0.0,0.0,0.0,0.0,0.0,0.0,0.0,0.0,0.0,0.0,-2.1653,-2.2874,-2.3341,-2.2957,-2.2789,-2.2463,-2.182,-2.1287,-2.0654,-1.9936,0.0,0.0,0.0,0.0,0.0,0.0,0.0,0.0,0.0,0.0,0.0,0.0,0.0,0.0,0.0,0.0,0.0,0.0,0.0,0.0,0.0,0.0,0.0,0.0,0.0,0.0,0.0,0.0,0.0,0.0,0.0,0.0,0.0,0.0,0.0,0.0,0.0,0.0,0.0,0.0,0.0,0.0,0.0,0.0,0.0,0.0,0.0,0.0,0.0,0.0,0.0,0.0,0.0,0.0,0.0,0.0,0.0,0.0,0.0,0.0,0.0,0.0,0.0,0.0,0.0,0.0,0.0,0.0,0.0,0.0,0.0,0.0,0.0,0.0,0.0,0.0,0.0,0.0,0.0,0.0,0.0,0.0,0.0,0.0,0.0,0.0,0.0,0.0,0.0,0.0,0.0,0.0,0.0,0.0,0.0,0.0,0.0,0.0,0.0,0.0,0.0,0.0,-2.0836,-2.2377,-2.3098,-2.2702,-2.2529,-2.2198,-2.1658,-2.1055,-2.0353,-1.9597,0.0,0.0,0.0,0.0,0.0,0.0,0.0,0.0,0.0,0.0,0.0,0.0,0.0,0.0,0.0,0.0,0.0,0.0,0.0,0.0,0.0,0.0,0.0,0.0,0.0,0.0,0.0,0.0,0.0,0.0,0.0,0.0,0.0,0.0,0.0,0.0,0.0,0.0,0.0,0.0,0.0,0.0,0.0,0.0,0.0,0.0,0.0,0.0,0.0,0.0,0.0,0.0,0.0,0.0,0.0,0.0,0.0,0.0,0.0,0.0,0.0,0.0,0.0,0.0,0.0,0.0,0.0,0.0,0.0,0.0,0.0,0.0,0.0,0.0,0.0,0.0,0.0,0.0,0.0,0.0,0.0,0.0,0.0,0.0,0.0,0.0,0.0,0.0,0.0,0.0,0.0,0.0,0.0,0.0,0.0,0.0,0.0,0.0,0.0,0.0,0.0,0.0,-1.9774,-2.1644,-2.2721,-2.2432,-2.2136,-2.1836,-2.1521,-2.0682,-2.0043,-1.9717,0.0,0.0,0.0,0.0,0.0,0.0,0.0,0.0,0.0,0.0,0.0,0.0,0.0,0.0,0.0,0.0,0.0,0.0,0.0,0.0,0.0,0.0,0.0,0.0,0.0,0.0,0.0,0.0,0.0,0.0,0.0,0.0,0.0,0.0,0.0,0.0,0.0,0.0,0.0,0.0,0.0,0.0,0.0,0.0,0.0,0.0,0.0,0.0,0.0,0.0,0.0,0.0,0.0,0.0,0.0,0.0,0.0,0.0,0.0,0.0,-0.7969,-0.7719,0.0,0.0,0.0,0.0,0.0,0.0,0.0,0.0,0.0,0.0,0.0,0.0,0.0,0.0,0.0,0.0,0.0,0.0,0.0,0.0,0.0,0.0,0.0,0.0,0.0,0.0,0.0,0.0,0.0,0.0,0.0,0.0,0.0,0.0,0.0,0.0,0.0,0.0,0.0,0.0,-1.9252,-2.1027,-2.2046,-2.189,-2.1639,-2.1274,-2.0797,-2.0299,-1.9763,-1.9051,-1.8954,0.0,0.0,0.0,0.0,0.0,0.0,0.0,0.0,0.0,0.0,0.0,0.0,0.0,0.0,0.0,0.0,0.0,0.0,0.0,0.0,0.0,0.0,0.0,0.0,0.0,0.0,0.0,0.0,0.0,0.0,0.0,0.0,0.0,0.0,0.0,0.0,0.0,0.0,0.0,0.0,0.0,0.0,0.0,0.0,0.0,0.0,0.0,0.0,0.0,0.0,0.0,0.0,0.0,0.0,0.0,0.0,0.0,0.0,0.0,-0.7573,-0.7527,0.0,0.0,0.0,0.0,0.0,0.0,0.0,0.0,0.0,0.0,0.0,0.0,0.0,0.0,0.0,0.0,0.0,0.0,0.0,0.0,0.0,0.0,0.0,0.0,0.0,0.0,0.0,0.0,0.0,0.0,0.0,0.0,0.0,0.0,0.0,0.0,0.0,0.0,0.0,0.0,-1.8948,-2.041,-2.1195,-2.0991,-2.0782,-2.0485,-2.0124,-1.9758,-1.9303,-1.8693,-1.8742,0.0,0.0,0.0,0.0,0.0,0.0,0.0,0.0,0.0,0.0,0.0,0.0,0.0,0.0,0.0,0.0,0.0,0.0,0.0,0.0,0.0,0.0,0.0,0.0,0.0,0.0,0.0,0.0,0.0,0.0,0.0,0.0,0.0,0.0,0.0,0.0,0.0,0.0,0.0,0.0,0.0,0.0,0.0,0.0,0.0,0.0,0.0,0.0,0.0,0.0,0.0,0.0,0.0,-0.3206,-0.4024,-0.4922,-0.6412,-0.7083,-0.703,-0.6761,-0.6958,-0.7327,-0.6724,0.0,0.0,0.0,0.0,0.0,0.0,0.0,0.0,0.0,0.0,0.0,0.0,0.0,0.0,0.0,0.0,0.0,0.0,0.0,0.0,0.0,0.0,-0.4706,-0.9226,-1.0166,-0.9857,-0.9165,0.0,0.0,0.0,0.0,0.0,0.0,0.0,0.0,0.0,0.0,0.0,-1.862,-1.9679,-2.023,-2.0004,-1.9829,-1.9651,-1.9485,-1.9147,-1.8784,-1.8436,-1.844,-1.8461,0.0,0.0,0.0,0.0,0.0,0.0,0.0,0.0,0.0,0.0,0.0,0.0,0.0,0.0,0.0,0.0,0.0,0.0,0.0,0.0,0.0,0.0,0.0,0.0,0.0,0.0,0.0,0.0,0.0,0.0,0.0,0.0,0.6982,0.6005,0.0,0.0,0.0,0.0,0.0,0.0,0.0,0.0,0.0,0.0,0.0,0.0,0.0,0.1242,0.0178,-0.1024,-0.1964,-0.264,-0.3832,-0.4601,-0.5118,-0.6468,-0.7106,-0.7093,-0.7042,0.0,-0.7191,-0.6894,0.0,0.0,0.0,0.0,0.0,0.0,0.0,0.0,0.0,0.0,0.0,0.0,0.0,0.0,0.0,0.0,0.0,0.0,0.0,0.0,0.0,0.0,-1.12,-1.047,-0.9707,-0.9512,-1.0749,-1.0257,-0.9879,-1.0845,-1.0497,-1.0382,0.0,0.0,0.0,0.0,0.0,0.0,-1.7697,-1.8608,-1.9222,-1.9148,-1.9043,-1.8921,-1.8898,-1.8528,-1.8268,-1.8082,-1.7787,-1.7457,-1.6995,-1.7472,0.0,0.0,0.0,0.0,0.0,0.0,0.0,0.0,0.0,0.0,0.0,0.0,0.0,0.0,0.0,0.0,0.0,0.0,0.0,0.0,0.0,0.0,0.0,0.0,0.0,0.0,0.0,0.0,0.0,0.8272,0.7079,0.5515,0.5953,0.5802,0.0,0.0,0.0,0.0,0.0,0.0,0.0,0.0,0.0,0.2571,0.1244,0.0045,-0.1072,-0.1691,-0.224,-0.2732,-0.3648,-0.4319,-0.4745,-0.6216,-0.685,-0.6781,-0.7127,-0.7076,-0.6783,-0.6349,-0.6229,-0.6376,0.0,0.0,0.0,0.0,-0.7701,-0.7784,-0.7876,-0.8248,-0.8554,-0.772,0.0,0.0,0.0,0.0,0.0,0.0,0.0,-0.7882,-1.0454,-1.1545,-1.2034,-1.2119,-1.0867,-0.9807,-1.0587,-1.0337,-1.0354,-1.1587,-1.1179,-1.0978,-1.2192,-1.2494,0.0,0.0,0.0,-1.6505,-1.7433,-1.7993,-1.8341,-1.8341,-1.8422,-1.845,-1.8358,-1.8201,-1.7962,-1.772,-1.7684,-1.7484,-1.7131,-1.7722,-1.8278,0.0,0.0,0.0,0.0,0.0,0.0,0.0,0.0,0.0,0.0,0.0,0.0,0.0,0.0,0.0,0.0,0.0,0.0,0.0,0.0,0.0,0.0,0.0,0.0,0.0,0.0,0.0,0.0,0.8369,0.7145,0.5338,0.554,0.5256,0.0,0.0,0.0,0.0,0.0,0.0,0.3458,0.3206,0.2658,0.1736,0.0451,-0.0727,-0.1776,-0.1942,-0.214,-0.2449,-0.323,-0.3795,-0.4266,-0.5697,-0.633,-0.6292,-0.6745,-0.6722,-0.6449,-0.5861,-0.5871,-0.6227,-0.6081,-0.5942,-0.5967,-0.713,-0.7739,-0.8023,-0.8497,-0.8976,-0.927,-0.8514,-0.8309,-0.8254,-0.734,0.0,0.0,0.0,0.0,-0.9493,-1.0946,-1.1273,-1.1519,-1.2359,-1.1315,-1.0083,-1.0065,-0.9942,-1.0303,-1.1752,-1.1536,-1.1495,-1.2526,-1.2701,0.0,-1.5057,-1.5447,-1.5923,-1.698,-1.7338,-1.7462,-1.7462,-1.7733,-1.7855,-1.776,-1.772,-1.7598,-1.7352,-1.7394,-1.7289,-1.7015,-1.7687,-1.8163,-1.8455,0.0,0.0,0.0,0.0,0.0,0.0,0.0,0.0,0.0,0.0,0.0,0.0,0.0,0.0,0.0,0.0,0.0,0.0,0.0,0.0,0.0,0.0,0.0,0.0,0.0,0.0,0.0,0.0,0.0,0.609,0.5034,0.0,0.0,0.0,0.0,0.3326,0.299,0.2458,0.1663,0.128,0.0745,0.0134,-0.0093,-0.0616,-0.1424,-0.1482,-0.1559,-0.1656,-0.2605,-0.3255,-0.3698,-0.4845,-0.549,-0.5651,-0.5611,-0.5893,-0.6369,-0.5706,-0.5524,-0.5752,-0.5632,-0.6208,-0.7074,-0.7817,-0.8205,-0.833,-0.8249,-0.8672,-0.9026,-0.7925,-0.7651,-0.7753,-0.7829,-0.8406,0.0,0.0,-1.0116,-1.1152,-1.1256,-1.132,-1.1032,-1.0061,-0.9933,-0.9955,-0.9657,-0.955,-0.9882,-1.1036,-1.1275,-1.1451,-1.2048,0.0,-1.3627,-1.5892,-1.5372,-1.5096,-1.5932,-1.638,-1.6565,-1.6565,-1.6863,-1.7044,-1.7044,-1.6876,-1.6803,-1.6918,-1.6565,-1.6219,-1.5869,-1.6675,-1.6968,-1.6827,-1.7433,0.0,0.0,0.0,0.0,0.0,0.0,0.0,0.0,0.0,0.0,0.0,0.0,0.0,0.0,0.0,0.0,0.0,0.0,0.0,0.0,0.0,0.0,0.0,0.0,0.0,0.0,0.0,0.0,0.5572,0.4938,0.0,0.3233,0.3327,0.3118,0.2379,0.2009,0.1718,0.1376,0.1126,0.0804,0.0419,-0.0048,-0.0346,-0.0544,-0.0616,-0.0775,-0.1009,-0.2009,-0.2674,-0.2997,-0.4289,-0.5039,-0.5337,-0.562,-0.581,-0.5908,-0.5485,-0.5471,-0.5611,-0.5553,-0.5877,-0.6406,-0.7063,-0.7272,-0.7213,-0.7402,-0.7676,-0.7777,-0.7252,-0.7239,-0.7477,-0.7576,-0.8281,-0.9133,-0.9438,-1.0391,-1.0953,-0.9504,-0.9132,-0.9123,-0.9099,-0.9069,-0.9032,-0.9071,-0.9127,-0.9388,-1.005,-1.0664,-1.1338,-1.2094,-1.2323,-1.271,-1.3772,-1.4233,-1.4719,-1.5322,-1.5712,-1.6076,-1.6479,-1.668,-1.6863,-1.6918,-1.6876,-1.6876,-1.7073,-1.6565,-1.6293,-1.6367,-1.6602,-1.6802,-1.6964,-1.767,-1.8969,0.0,0.0,0.0,0.0,0.0,0.0,0.0,0.0,0.0,0.0,0.0,0.0,0.0,0.0,0.0,0.0,0.0,0.0,0.0,0.0,0.0,0.0,0.0,0.0,0.0,0.6148,0.5755,0.4947,0.4418,0.3755,0.2877,0.2831,0.2616,0.2052,0.1773,0.1624,0.1465,0.1267,0.1047,0.0761,0.0493,0.0253,0.0051,0.016,0.0106,-0.0205,-0.1229,-0.1907,-0.2319,-0.3423,-0.42,-0.4603,-0.5181,-0.5266,-0.4956,-0.4386,-0.4424,-0.4899,-0.4888,-0.5027,-0.5338,-0.577,-0.5873,-0.5873,-0.6338,-0.648,-0.648,-0.6495,-0.6598,-0.6799,-0.6956,-0.7557,-0.8221,-0.8659,-0.9228,-0.9372,-0.7887,-0.7582,-0.7687,-0.8038,-0.8069,-0.8044,-0.8103,-0.8333,-0.8684,-0.9044,-0.9888,-1.0853,-1.1808,-1.1745,-1.1796,-1.2657,-1.3409,-1.41,-1.4743,-1.513,-1.5546,-1.6044,-1.6306,-1.6466,-1.6565,-1.665,-1.682,-1.706,-1.6522,-1.6392,-1.6795,-1.6672,-1.6804,-1.7177,-1.8163,-1.9612,-2.1633,0.0,0.0,0.0,0.0,0.0,0.0,0.0,0.0,0.0,0.0,0.0,0.0,0.0,0.0,0.0,0.0,0.0,0.0,0.0,0.0,0.0,0.0,0.0,0.4619,0.4717,0.4461,0.4343,0.3385,0.277,0.2984,0.2711,0.2464,0.2403,0.2263,0.208,0.1716,0.1574,0.1383,0.1049,0.1432,0.1231,0.048,0.0881,0.0991,0.08,-0.016,-0.0939,-0.1612,-0.2307,-0.2906,-0.3421,-0.4075,-0.4079,-0.3588,-0.2319,-0.2473,-0.3539,-0.3593,-0.3813,-0.4079,-0.4079,-0.4233,-0.446,-0.5054,-0.5281,-0.5281,-0.5508,-0.5668,-0.5773,-0.5928,-0.614,-0.647,-0.6897,-0.6758,-0.6572,-0.6572,-0.6785,-0.6951,-0.6796,-0.6913,-0.7036,-0.6843,-0.7289,-0.7783,-0.8037,-0.8896,-0.9955,-1.1057,-1.0787,-1.1015,-1.2763,-1.291,0.0,-1.4071,-1.4593,-1.5028,-1.529,-1.5605,-1.5872,-1.6005,-1.62,-1.6491,-1.6778,-1.6442,-1.6473,-1.6976,-1.6765,-1.6909,-1.7464,-1.8876,-2.045,-2.2238,0.0,0.0,0.0,0.0,0.0,0.0,0.0,0.0,0.0,0.0,0.0,0.0,0.0,0.0,0.0,0.0,0.0,0.0,0.0,0.0,0.0,0.2935,0.222,0.372,0.3259,0.2836,0.2932,0.287,0.2867,0.2943,0.2804,0.2644,0.2502,0.2441,0.2252,0.1923,0.1877,0.1981,0.2226,0.1902,0.1867,0.2093,0.1783,0.134,0.0885,0.1154,0.0257,-0.1514,-0.1528,-0.2031,-0.2869,-0.2775,-0.3061,-0.3564,-0.2495,-0.2027,-0.2039,-0.2821,-0.35,-0.4017,-0.3908,-0.3905,-0.4017,-0.4281,-0.4346,-0.4395,-0.4508,-0.4732,-0.4901,-0.5003,-0.4539,-0.403,-0.4474,-0.4017,-0.346,-0.3681,-0.412,-0.4671,-0.54,-0.6018,-0.647,-0.6524,-0.7313,-0.8171,-0.8392,-0.8944,-0.9508,-0.9963,-1.0494,-1.109,-1.1849,-1.233,-1.2881,-1.3515,-1.4382,-1.5078,-1.5589,-1.6183,-1.6549,-1.6657,-1.6907,-1.7066,-1.7023,-1.7029,-1.7125,-1.7213,-1.7293,-1.788,-1.9035,-2.0683,-2.1983,0.0,0.0,0.0,0.0,0.0,0.0,0.0,0.0,0.0,0.0,0.0,0.0,0.0,0.0,0.0,0.0,0.0,0.0,0.0,0.0,0.0,0.0,0.2366,0.2196,0.2885,0.2536,0.226,0.2368,0.2587,0.2748,0.2898,0.274,0.264,0.2715,0.2825,0.2766,0.2456,0.2456,0.2681,0.3179,0.2574,0.2431,0.2843,0.2294,0.1615,0.0934,0.1335,0.0581,-0.1167,-0.1184,-0.1614,-0.2275,-0.1539,-0.1545,-0.201,-0.1139,-0.0813,0.0,0.0,0.0,0.0,0.0,-0.2954,-0.3014,-0.3282,-0.3352,-0.3411,-0.3629,-0.3781,-0.3869,-0.4209,-0.3852,-0.3291,-0.2719,-0.2431,-0.2308,-0.2892,-0.3267,-0.3707,-0.444,-0.5219,-0.5785,-0.5892,-0.6712,-0.7632,-0.8258,-0.8712,0.0,-0.9897,-1.0379,-1.0894,-1.1446,-1.2159,-1.2805,-1.3323,-1.4293,-1.5128,-1.5554,-1.6192,-1.6623,-1.6749,-1.7057,0.0,0.0,0.0,-1.7591,-1.7735,-1.8231,0.0,0.0,0.0,-2.2085,-2.2514,0.0,0.0,0.0,-2.5137,-2.5505,0.0,0.0,0.0,0.0,0.0,0.0,0.0,0.0,0.0,0.0,0.0,0.0,0.0,0.0,0.0,0.0,0.1965,0.2177,0.2184,0.2328,0.2417,0.2333,0.2368,0.2499,0.2868,0.266,0.263,0.3002,0.3268,0.3285,0.3168,0.3116,0.0,0.0,0.0,0.296,0.3157,0.251,0.1821,0.1125,0.0991,0.0384,-0.0587,-0.0823,-0.1169,-0.151,-0.0391,-0.0,-0.0056,0.0838,0.0726,-0.0112,-0.1677,-0.2036,-0.1663,-0.1715,-0.1767,-0.1934,-0.2327,0.0,0.0,-0.2673,-0.2762,-0.2786,-0.3267,-0.3445,-0.3132,-0.1531,-0.1529,-0.2159,-0.3056,-0.3304,-0.3469,-0.3819,-0.4535,-0.5158,-0.5235,-0.5942,-0.6818,-0.7811,-0.8357,-0.9099,-1.0265,-1.0401,-1.0647,-1.1447,-1.2198,-1.2841,-1.3265,-1.4302,-1.5101,-1.529,0.0,0.0,-1.6632,-1.6935,-1.7298,-1.7666,-1.7666,-1.7884,-1.8412,-1.9212,-1.9816,-2.0198,-2.0826,-2.1299,-2.1538,-2.1597,-2.1921,-2.242,-2.3591,-2.4168,0.0,0.0,0.0,0.0,0.0,0.0,0.0,0.0,0.0,0.0,0.0,0.0,0.0,0.0,0.0,0.3313,0.2595,0.2129,0.2188,0.2551,0.2595,0.1966,0.2037,0.2368,0.2857,0.2873,0.3006,0.3203,0.3246,0.327,0.3427,0.3321,0.358,0.4203,0.3603,0.3353,0.3478,0.2646,0.212,0.194,0.1247,0.0,0.0387,0.092,0.0762,-0.0,0.0503,0.0168,-0.0614,0.0726,0.1341,0.1229,-0.067,-0.1395,-0.1389,-0.1664,-0.1775,-0.1835,-0.2068,-0.1849,-0.1409,-0.1453,-0.1402,-0.1288,-0.1461,-0.1103,0.0,-0.067,-0.0549,-0.0606,-0.1057,-0.1513,-0.2092,-0.2907,-0.4265,-0.5378,-0.5501,-0.654,-0.7532,-0.7806,-0.8659,-0.942,-0.9674,-1.0244,-1.0977,-1.1707,-1.2189,-1.2661,-1.3158,-1.4048,-1.4794,-1.5178,-1.6011,-1.6642,-1.6907,-1.7235,-1.7337,-1.711,-1.726,-1.7744,-1.8546,-1.9013,-1.9548,-2.0034,-2.0276,-2.0624,-2.1097,-2.0939,-2.1104,-2.165,-2.268,-2.3319,0.0,0.0,0.0,0.0,0.0,0.0,0.0,0.0,0.0,0.0,0.0,0.4078,0.3798,0.0,0.3727,0.3126,0.2293,0.1919,0.246,0.3363,0.3544,0.246,0.2454,0.2616,0.2854,0.3023,0.322,0.3453,0.3649,0.3708,0.358,0.3755,0.4134,0.4707,0.3827,0.3536,0.3911,0.2656,0.2012,0.2071,0.1594,0.1154,0.078,0.2086,0.242,0.2011,0.2348,0.2124,0.1563,0.2011,0.2348,0.2404,0.1229,0.0335,-0.0336,-0.0503,-0.0615,-0.0731,-0.0855,-0.0688,-0.0406,-0.0485,-0.0426,-0.0364,-0.0444,-0.0191,0.0063,-0.0126,-0.0126,-0.0188,-0.0669,-0.1567,-0.2469,-0.2827,-0.4016,-0.5128,-0.5562,-0.6391,-0.7144,-0.7633,-0.8482,-0.9226,-0.9572,-1.0342,-1.1078,-1.1381,-1.2044,-1.2623,-1.3019,-1.3919,-1.462,-1.5031,-1.5676,-1.6265,-1.6729,-1.7134,-1.7313,-1.7299,-1.7438,-1.7809,-1.8452,-1.8709,-1.9121,-1.9592,-1.9747,-1.9952,-2.0295,-2.0321,-2.0422,-2.0709,-2.1561,-2.2314,0.0,0.0,0.0,0.0,0.0,0.0,0.0,0.7912,0.7759,0.5879,0.4678,0.3946,0.3755,0.3751,0.3476,0.2679,0.2138,0.2091,0.2909,0.395,0.4317,0.3404,0.3258,0.3167,0.312,0.3236,0.3497,0.3814,0.443,0.4534,0.3902,0.4303,0.4692,0.5074,0.4106,0.3776,0.4139,0.2888,0.2232,0.2238,0.2181,0.1899,0.1504,0.3016,0.3752,0.3863,0.4033,0.4089,0.4033,0.358,0.3411,0.3357,0.3023,0.2191,0.124,0.1008,0.0787,0.0625,0.0466,0.0472,0.048,0.0443,0.0443,0.0439,0.0331,0.0331,0.0325,0.0325,0.013,-0.0129,-0.0816,-0.193,-0.2927,-0.3045,-0.3859,-0.4769,-0.5556,-0.6006,-0.6549,-0.7233,-0.8054,-0.8765,-0.9346,-1.0249,-1.1008,-1.1077,-1.194,-1.2612,-1.2907,-1.3747,-1.441,-1.4715,-1.5099,-1.568,-1.6332,-1.674,-1.7134,-1.7434,-1.749,-1.7711,-1.815,-1.8278,-1.8536,-1.8963,-1.9121,-1.9279,-1.9408,-1.9668,-1.9772,-1.9837,-2.0446,-2.1272,0.7836,0.795,0.8799,0.9889,0.8107,0.6238,0.0,0.7554,0.7459,0.5465,0.4644,0.4228,0.4248,0.4204,0.3976,0.3214,0.3262,0.3398,0.349,0.3435,0.3741,0.4648,0.4508,0.4192,0.3836,0.388,0.4131,0.4705,0.567,0.5854,0.4992,0.4766,0.4741,0.4895,0.4768,0.4446,0.3946,0.3908,0.3633,0.2963,0.3246,0.3357,0.3302,0.386,0.4366,0.4764,0.4529,0.4463,0.4467,0.4363,0.4138,0.3799,0.3583,0.3362,0.3087,0.2035,0.1595,0.1403,0.1056,0.0957,0.1047,0.1466,0.1542,0.1419,0.1399,0.1208,0.1004,0.1004,0.0536,-0.0133,-0.084,-0.1474,-0.218,-0.314,-0.3977,-0.4785,-0.5494,-0.599,-0.6347,-0.626,-0.7369,-0.8201,-0.8137,-0.9361,-1.0654,-1.1403,-1.2166,-1.2626,-1.281,-1.3312,-1.3752,-1.407,-1.441,-1.4883,-1.5468,-1.5941,-1.6296,-1.6545,-1.6761,-1.7043,-1.739,-1.7656,-1.7909,-1.8201,-1.8398,-1.8572,-1.8721,-1.8839,-1.9052,-1.9291,-1.9604,-2.0308,0.8431,0.8043,0.8126,0.8776,0.7361,0.6137,0.7179,0.723,0.6764,0.5636,0.483,0.4304,0.428,0.432,0.4139,0.367,0.3842,0.3728,0.2893,0.3379,0.4128,0.4893,0.4962,0.4767,0.4172,0.4386,0.4785,0.5348,0.5867,0.6029,0.5738,0.5474,0.5284,0.5119,0.5245,0.5035,0.4429,0.421,0.3962,0.3747,0.3633,0.3741,0.3962,0.4584,0.4923,0.5144,0.5014,0.4897,0.4838,0.4739,0.4629,0.4411,0.4219,0.4062,0.3812,0.2834,0.2466,0.236,0.2156,0.1939,0.1844,0.2095,0.205,0.1921,0.181,0.1681,0.148,0.121,0.0875,0.0403,-0.0596,-0.1453,-0.2246,-0.2971,-0.3692,-0.4361,-0.514,-0.5554,-0.5932,-0.6379,-0.7261,-0.8006,-0.8228,-0.9319,-1.0301,-1.0744,-1.156,-1.2243,-1.2621,-1.2981,-1.3398,-1.383,-1.4172,-1.446,-1.4824,-1.5294,-1.57,-1.6066,-1.6228,-1.6513,-1.7078,-1.6965,-1.719,-1.7733,-1.7623,-1.7744,-1.8084,-1.8344,-1.856,-1.8709,-1.9133,-1.9643,1.0488,0.9192,0.799,0.7937,0.6866,0.6085,0.6866,0.6411,0.5766,0.5415,0.5043,0.4654,0.4205,0.4713,0.4915,0.4123,0.4233,0.4017,0.2756,0.3683,0.4657,0.514,0.5418,0.5781,0.6252,0.5603,0.5411,0.5936,0.6213,0.6358,0.6328,0.6145,0.5882,0.555,0.5668,0.5508,0.4963,0.4563,0.4346,0.4301,0.3904,0.4015,0.4512,0.5077,0.536,0.5407,0.534,0.5277,0.5277,0.5289,0.5262,0.5206,0.4873,0.4624,0.4279,0.3555,0.324,0.3063,0.2939,0.2654,0.2422,0.2473,0.2356,0.2221,0.2087,0.2018,0.1819,0.1425,0.1218,0.0809,-0.0274,-0.1361,-0.2291,-0.2783,-0.3374,-0.4025,-0.4824,-0.5226,-0.5686,-0.6412,-0.7236,-0.7912,-0.8236,-0.9197,-1.0014,-1.013,-1.0995,-1.1811,-1.2391,-1.2853,-1.3347,-1.3774,-1.4189,-1.4425,-1.4556,-1.5102,-1.5652,-1.5999,-1.6118,-1.6361,-1.6816,-1.6587,-1.6649,-1.7134,-1.7022,-1.7134,-1.7423,-1.7865,-1.8061,-1.8061,-1.859,-1.891,1.435,1.1564,0.8627,0.8054,0.698,0.5962,0.5491,0.4901,0.4492,0.4538,0.5287,0.5464,0.3907,0.5697,0.6727,0.461,0.4546,0.4505,0.3654,0.4373,0.5155,0.5613,0.6103,0.768,1.0957,0.7886,0.5964,0.6603,0.7149,0.7223,0.6691,0.6701,0.6539,0.6209,0.6154,0.5882,0.5277,0.5281,0.5007,0.4463,0.4291,0.457,0.5242,0.5285,0.5449,0.5795,0.5449,0.5504,0.5795,0.6082,0.6207,0.6209,0.5624,0.5175,0.481,0.4298,0.3724,0.3281,0.3153,0.2885,0.2683,0.2684,0.2555,0.2424,0.2491,0.2221,0.1895,0.1877,0.1511,0.0885,-0.0072,-0.126,-0.2304,-0.2641,-0.3285,-0.3959,-0.4694,-0.5223,-0.5749,-0.6145,-0.7221,-0.8033,-0.7746,-0.8948,-0.9904,-0.9841,-1.0601,-1.1428,-1.1956,-1.2902,-1.3643,-1.3751,-1.4476,-1.4867,-1.4785,-1.5652,-1.6246,-1.6354,-1.666,-1.6785,-1.6497,-1.6717,-1.6563,-1.6124,-1.6581,-1.6807,-1.6818,-1.7166,-1.7379,-1.7523,-1.7799,-1.8061,1.3022,1.1444,0.9703,0.8728,0.7881,0.6965,0.5619,0.5324,0.5261,0.5089,0.528,0.5595,0.5868,0.8455,1.0213,0.9126,0.7114,0.5794,0.5921,0.619,0.6866,0.8191,0.9202,1.0013,1.062,0.8904,0.8475,1.0154,0.8947,0.8163,0.8203,0.7571,0.7085,0.681,0.6647,0.6495,0.6242,0.5845,0.523,0.4505,0.5069,0.5521,0.5918,0.5727,0.5778,0.6069,0.595,0.5946,0.6055,0.6178,0.6077,0.5806,0.5754,0.5452,0.5018,0.4662,0.4303,0.3909,0.3643,0.3332,0.3023,0.3023,0.2824,0.2554,0.2491,0.2387,0.2218,0.1888,0.1622,0.1212,-0.0,-0.1065,-0.2009,-0.2445,-0.3016,-0.3627,-0.4289,-0.4758,-0.5386,-0.6503,-0.7251,-0.788,-0.8343,-0.9142,-0.9971,-1.0661,-1.1254,-1.1854,-1.2594,-1.2996,-1.3333,-1.3776,-1.4115,-1.4444,-1.4706,-1.4987,-1.5404,-1.6055,-1.5609,-1.5607,-1.6367,-1.598,-1.5821,-1.5961,-1.6019,-1.6124,-1.6218,-1.6513,-1.6637,-1.6684,-1.7123,-1.7457,1.2466,1.1517,1.0548,0.9621,0.8783,0.7906,0.7047,0.6568,0.6152,0.5738,0.5916,0.6799,0.8806,1.0352,1.1376,1.1532,0.9163,0.7312,0.7379,0.7404,0.7876,0.9219,1.0211,1.0552,0.9821,0.9342,0.9796,1.1429,1.0148,0.9162,0.8788,0.8109,0.7628,0.7306,0.7095,0.689,0.6688,0.6178,0.5559,0.4776,0.5563,0.6069,0.6296,0.6055,0.605,0.6337,0.6455,0.6396,0.6164,0.5941,0.578,0.5682,0.5688,0.5497,0.5216,0.5042,0.4764,0.4364,0.4028,0.3627,0.3295,0.3295,0.3092,0.276,0.2654,0.2559,0.2395,0.1866,0.1668,0.1391,0.0149,-0.0949,-0.1848,-0.2271,-0.2853,-0.3468,-0.4233,-0.4758,-0.5406,-0.672,-0.7353,-0.7881,-0.8643,-0.9332,-1.0101,-1.0988,-1.156,-1.2158,-1.2964,-1.3216,-1.3424,-1.376,-1.4239,-1.4579,-1.4782,-1.5028,-1.5391,-1.59,-1.5551,-1.5508,-1.5953,-1.5776,-1.5573,-1.5439,-1.5546,-1.5652,-1.57,-1.5884,-1.6056,-1.6171,-1.6446,-1.6786,1.2923,1.1966,1.1213,1.0707,0.968,0.8897,0.9592,0.8517,0.7203,0.6538,0.7252,0.8933,1.231,1.1358,1.0516,1.1825,1.0454,0.894,0.8131,0.7993,0.8223,0.8826,0.9306,0.9384,0.8888,0.926,0.9834,1.0465,1.073,1.0147,0.86,0.8368,0.8062,0.7753,0.7538,0.7214,0.6727,0.6381,0.5937,0.5332,0.5723,0.6109,0.65,0.6322,0.6327,0.65,0.6905,0.6742,0.6173,0.5597,0.5485,0.5731,0.5489,0.5363,0.541,0.5363,0.502,0.4558,0.4161,0.383,0.3498,0.3498,0.3295,0.3038,0.298,0.2734,0.2416,0.1865,0.1712,0.1407,0.031,-0.0909,-0.1968,-0.2184,-0.278,-0.3539,-0.4392,-0.5036,-0.5751,-0.6817,-0.7552,-0.8108,-0.8674,-0.9508,-1.0283,-1.0898,-1.1508,-1.2192,-1.3084,-1.3492,-1.379,-1.379,-1.4641,-1.5133,-1.4935,-1.563,-1.6026,-1.6013,-1.6497,-1.637,-1.5414,-1.6027,-1.5847,-1.4753,-1.5176,-1.541,-1.5391,-1.5391,-1.5546,-1.5816,-1.5874,-1.5999,1.3669,1.3114,1.2525,1.2209,1.1309,1.0809,1.191,1.1415,1.0542,0.9785,0.9649,1.0332,1.2568,1.3007,1.2569,1.1141,1.03,0.9628,0.9228,0.957,0.9908,1.0061,0.9786,0.9532,0.9395,0.9144,0.9072,0.9273,0.9688,1.0067,1.0335,0.9372,0.8639,0.8309,0.7759,0.7444,0.7311,0.6593,0.6105,0.5955,0.6237,0.6346,0.6282,0.6678,0.6722,0.648,0.6445,0.6505,0.6544,0.5932,0.56,0.5431,0.525,0.5204,0.5138,0.5054,0.4941,0.4694,0.4495,0.4159,0.3761,0.3761,0.3493,0.3096,0.298,0.2795,0.2459,0.1833,0.1356,0.0851,0.0157,-0.0909,-0.1968,-0.2184,-0.274,-0.3476,-0.4554,-0.518,-0.5942,-0.7169,-0.8138,-0.8897,-0.9408,-0.969,-1.0149,-1.0898,-1.1365,-1.1971,-1.2631,-1.3119,-1.3564,-1.3992,-1.4489,-1.4856,-1.5133,-1.5314,-1.5575,-1.6044,-1.5407,-1.5103,-1.5414,-1.5412,-1.5325,-1.5163,-1.5728,-1.5747,-1.5181,-1.5425,-1.5374,-1.5001,-1.5254,-1.5604,1.4584,1.4074,1.334,1.3178,1.2413,1.1868,1.2432,1.2427,1.2321,1.2502,1.1756,1.1666,1.3661,1.3813,1.3218,1.2045,1.1316,1.0847,1.0707,1.0894,1.1013,1.1038,1.0553,1.0146,0.994,0.949,0.9074,0.8837,0.9749,1.027,1.0204,0.9401,0.8896,0.8791,0.8072,0.7416,0.695,0.6465,0.6209,0.6178,0.6292,0.6346,0.6277,0.6564,0.6668,0.6598,0.6618,0.6564,0.644,0.6,0.5669,0.5439,0.5163,0.5168,0.5205,0.5142,0.496,0.4764,0.4628,0.4225,0.3825,0.3825,0.3493,0.3098,0.2931,0.2678,0.2338,0.1848,0.1286,0.0698,-0.0,-0.1136,-0.2122,-0.2364,-0.3085,-0.3983,-0.4818,-0.5463,-0.6309,-0.7599,-0.8541,-0.9278,-0.9865,-1.012,-1.0437,-1.1089,-1.155,-1.1972,-1.2432,-1.2973,-1.3492,-1.3775,-1.4209,-1.4641,-1.4919,-1.5093,-1.5265,-1.5496,-1.5054,-1.4728,-1.4684,-1.498,-1.5088,-1.4969,-1.5623,-1.5716,-1.5097,-1.5237,-1.5158,-1.4865,-1.4868,-1.5137,1.5412,1.4624,1.377,1.3827,1.3167,1.2498,1.2351,1.2661,1.3322,1.4498,1.3691,1.3293,1.5124,1.4382,1.3486,1.36,1.2988,1.2435,1.2341,1.1991,1.1755,1.1784,1.1505,1.1065,1.0538,1.0212,0.9725,0.895,1.0292,1.0606,0.9354,0.9047,0.9008,0.9253,0.8355,0.7416,0.6333,0.6293,0.6258,0.6178,0.6178,0.6282,0.6381,0.6268,0.6381,0.6673,0.6905,0.6742,0.6405,0.5931,0.5703,0.5628,0.5258,0.5178,0.5343,0.5336,0.5137,0.4764,0.4628,0.4225,0.3758,0.3758,0.3366,0.2986,0.278,0.2505,0.2211,0.1807,0.1212,0.0609,-0.0156,-0.136,-0.2339,-0.2705,-0.3546,-0.456,-0.5174,-0.5992,-0.6917,-0.795,-0.8731,-0.9473,-1.0067,-1.0513,-1.0887,-1.1335,-1.1706,-1.2077,-1.2305,-1.2973,-1.3419,-1.3492,-1.4,-1.4425,-1.4497,-1.4919,-1.5002,-1.4705,-1.5002,-1.4835,-1.3909,-1.4742,-1.5018,-1.4638,-1.5432,-1.5622,-1.5177,-1.5106,-1.5015,-1.4969,-1.4666,-1.4653,1.487,1.4505,1.4195,1.4333,1.4096,1.3845,1.4093,1.4566,1.4968,1.507,1.5769,1.6277,1.5856,1.5834,1.5314,1.3844,1.4494,1.4738,1.3488,1.2561,1.2134,1.2327,1.251,1.2131,1.1023,1.171,1.1475,0.9629,1.0399,1.0618,0.9917,0.9524,0.9358,0.9528,0.8453,0.7616,0.6966,0.6815,0.6603,0.6178,0.6178,0.6228,0.6228,0.6228,0.6223,0.6268,0.6337,0.0,0.7498,0.6192,0.5698,0.5793,0.5325,0.5119,0.5135,0.5159,0.499,0.4764,0.4628,0.4161,0.3496,0.336,0.3141,0.2922,0.2449,0.2322,0.211,0.1135,0.0606,0.0076,-0.0624,-0.1492,-0.2359,-0.3064,-0.3644,-0.4417,-0.5644,-0.6915,-0.7934,-0.8263,-0.8836,-0.9473,-0.9846,-1.0293,-1.0738,-1.1335,-1.1706,-1.2077,-1.2305,-1.2673,-1.3119,-1.3492,-1.392,-1.4129,-1.4201,-1.4641,-1.4879,-1.4608,-1.4739,-1.4672,-1.4301,-1.4889,-1.5074,-1.4824,-1.59,-1.6106,-1.5399,-1.5664,-1.5355,-1.447,-1.4639,-1.4669,1.5992,1.5415,1.4605,1.4674,1.4471,1.4205,1.4264,1.5133,1.5892,1.5902,1.6854,1.7478,1.6711,1.6492,1.6195,1.5353,1.6256,1.6336,1.4359,1.3637,1.3334,1.3238,1.3288,1.2861,1.1773,1.1853,1.1402,0.9887,1.0132,1.0116,0.9503,0.9382,0.9068,0.8514,0.7853,0.7213,0.6632,0.6756,0.6549,0.6119,0.6173,0.6178,0.6178,0.6178,0.6228,0.6218,0.6173,0.6524,0.6987,0.6587,0.6154,0.5711,0.5489,0.5241,0.5117,0.5117,0.4838,0.4498,0.4159,0.3692,0.3161,0.2824,0.2715,0.2615,0.2024,0.1586,0.1117,0.0603,-0.0,-0.0533,-0.1092,-0.2024,-0.2896,-0.3579,-0.4455,-0.5445,-0.6565,-0.7575,-0.8255,-0.8403,-0.8937,-0.9549,-0.9992,-1.0293,-1.0663,-1.1335,-1.1632,-1.1929,-1.215,-1.2526,-1.29,-1.3273,-1.363,-1.3848,-1.4057,-1.4497,-1.4641,-1.4379,-1.4567,-1.4519,-1.4073,-1.4613,-1.4934,-1.4865,-1.5774,-1.6044,-1.5791,-1.5727,-1.557,-1.5189,-1.4853,-1.4745,1.7158,1.6211,1.4882,1.4844,1.4552,1.4282,1.4238,1.5315,1.6389,1.6599,1.7484,1.8057,1.742,1.7015,1.6771,1.6798,1.7583,1.732,1.4812,1.4733,1.4642,1.3878,1.4064,1.3742,1.2397,1.2059,1.1509,1.0367,1.0162,0.9734,0.8935,0.8969,0.8514,0.7535,0.7222,0.6758,0.6185,0.6475,0.6381,0.5891,0.6119,0.6178,0.6064,0.6178,0.6178,0.6182,0.6182,0.6123,0.6072,0.6687,0.6435,0.5706,0.5548,0.5315,0.4954,0.4954,0.4558,0.4097,0.3692,0.3224,0.2758,0.2168,0.2105,0.2115,0.1463,0.0788,0.0148,-0.0075,-0.0681,-0.1293,-0.1781,-0.2708,-0.3676,-0.4385,-0.5452,-0.6549,-0.7403,-0.7944,-0.8327,-0.8475,-0.9013,-0.962,-0.9992,-1.0293,-1.0663,-1.126,-1.1484,-1.1706,-1.2003,-1.2305,-1.2599,-1.3046,-1.3346,-1.3637,-1.392,-1.4281,-1.4379,-1.4104,-1.4445,-1.4421,-1.398,-1.4465,-1.4759,-1.4925,-1.5521,-1.5867,-1.607,-1.5765,-1.5709,-1.5874,-1.5056,-1.4809,1.7146,1.5881,1.4845,1.4682,1.4392,1.4348,1.4978,1.5714,1.6503,1.7076,1.8055,1.8534,1.7776,1.7687,1.7572,1.7229,1.7729,1.7316,1.4783,1.5476,1.5545,1.3658,1.504,1.5074,1.2393,1.325,1.3361,1.1756,1.0956,0.9936,0.8613,0.8374,0.8043,0.754,0.7052,0.6622,0.6185,0.6372,0.6164,0.5622,0.6009,0.6009,0.5677,0.6009,0.6182,0.6196,0.6196,0.5892,0.0,0.5905,0.6108,0.605,0.5415,0.4945,0.4625,0.4422,0.402,0.3556,0.3563,0.3163,0.2366,0.1454,0.1257,0.1397,0.077,0.0363,-0.0151,-0.1136,-0.1818,-0.2351,-0.2657,-0.3417,-0.4387,-0.5638,-0.6381,-0.7015,-0.7629,-0.7944,-0.825,-0.8627,-0.9013,-0.9397,-0.962,-1.0143,-1.0663,-1.1037,-1.1335,-1.1558,-1.1929,-1.2003,-1.2224,-1.2599,-1.3193,-1.3492,-1.3564,-1.392,-1.4114,-1.4083,-1.4307,-1.4371,-1.4368,-1.4701,-1.4874,-1.4933,-1.5521,-1.5797,-1.5797,-1.5965,-1.5835,-1.5563,-1.5191,-1.4996,1.8145,1.6798,1.5276,1.5187,1.4858,1.4719,1.5257,1.6228,1.7111,1.7414,1.8106,1.8505,1.7933,1.7928,1.7676,1.6683,1.6241,1.5776,1.5098,1.5421,1.5481,1.4824,1.5424,1.5175,1.3263,1.3385,1.284,1.104,1.0167,0.9503,0.8837,0.8309,0.7883,0.761,0.6961,0.6524,0.6312,0.6213,0.595,0.5622,0.5845,0.5905,0.5795,0.5905,0.5852,0.5659,0.5678,0.5494,0.0,0.5292,0.5301,0.5329,0.5035,0.4831,0.4567,0.4023,0.3623,0.3291,0.2893,0.2176,0.1312,0.0558,0.0212,-0.0072,-0.0658,-0.0894,-0.1139,-0.1772,-0.2397,-0.2927,-0.334,-0.4269,-0.5356,-0.6381,-0.6745,-0.7096,-0.7642,-0.8025,-0.8327,-0.8475,-0.9013,-0.9473,-0.962,-0.9997,-1.0438,-1.0887,-1.1111,-1.1335,-1.1781,-1.1929,-1.215,-1.2526,-1.29,-1.3193,-1.3346,-1.371,-1.3928,-1.3928,-1.4217,-1.4363,-1.4371,-1.4641,-1.4854,-1.5052,-1.535,-1.5638,-1.6,-1.5938,-1.5922,-1.5964,-1.551,-1.5446,1.915,1.7638,1.5836,1.5721,1.5371,1.5062,1.5303,1.616,1.7144,1.7946,1.8302,1.8351,1.7865,1.7969,1.7657,0.0,0.0,1.4177,1.5145,1.526,1.5257,1.5306,1.5239,1.4775,1.3726,1.3283,1.2406,1.0694,1.002,0.9555,0.9302,0.8461,0.7883,0.7723,0.6966,0.648,0.6327,0.6168,0.5896,0.5513,0.5736,0.5791,0.5686,0.5631,0.552,0.5276,0.5345,0.5243,0.0,0.4891,0.4696,0.4534,0.4587,0.4567,0.4306,0.3625,0.3224,0.2827,0.2378,0.1448,0.0351,-0.0353,-0.079,-0.117,-0.1714,-0.1882,-0.1896,-0.2297,-0.2989,-0.3739,-0.4201,-0.5072,-0.5969,-0.6756,-0.6976,-0.7176,-0.7723,-0.8102,-0.8327,-0.8479,-0.9013,-0.957,-0.9632,-0.9965,-1.0315,-1.0773,-1.094,-1.1186,-1.1558,-1.1781,-1.2003,-1.2378,-1.2755,-1.2998,-1.3207,-1.3587,-1.3866,-1.394,-1.439,-1.4657,-1.4665,-1.4804,-1.5089,-1.5454,-1.5347,-1.5585,-1.6093,-1.5848,-1.5859,-1.6263,-1.5678,-1.5569,1.9809,1.8148,1.6458,1.6236,1.5835,1.5398,1.5181,1.5317,1.6259,1.8846,1.8758,1.8072,1.7675,1.7901,1.7594,1.6046,1.3738,0.0,1.4716,1.5045,1.5017,1.4742,1.4437,1.3987,1.3477,1.3212,1.257,1.1316,1.0939,1.0527,1.0033,0.8823,0.8055,0.7723,0.7025,0.6539,0.6209,0.6223,0.5905,0.5301,0.5786,0.5673,0.5128,0.5242,0.5293,0.5285,0.5352,0.5068,0.0,0.4776,0.4439,0.3855,0.4154,0.4033,0.3565,0.3295,0.2757,0.223,0.2223,0.1191,-0.0281,-0.1301,-0.1677,-0.1677,-0.2117,-0.2227,-0.2331,-0.2863,-0.3928,-0.5009,-0.5378,-0.581,-0.6284,-0.6881,-0.7131,-0.7334,-0.7949,-0.8102,-0.8255,-0.8627,-0.9013,-0.9392,-0.9688,-0.9996,-1.0383,-1.0795,-1.0836,-1.0962,-1.1335,-1.1558,-1.1781,-1.2003,-1.2634,-1.3071,-1.3221,-1.3717,-1.4057,-1.4283,-1.4812,-1.5142,-1.5381,-1.5597,-1.5742,-1.5988,-1.5781,-1.5823,-1.5978,-1.5682,-1.5718,-1.6123,-1.5455,-1.5286,2.2509,2.0784,1.8805,1.8209,1.8799,1.9137,1.7568,1.7848,1.8228,1.7545,1.7828,1.8129,1.7796,1.7359,1.702,1.702,1.5389,1.4211,1.4557,1.4592,1.46,1.4671,1.4226,1.3764,1.3294,1.2192,1.1434,1.1366,1.0407,0.9703,0.9354,0.8461,0.7883,0.7723,0.7139,0.6652,0.6209,0.5946,0.5508,0.5014,0.5289,0.5234,0.4956,0.5124,0.514,0.5049,0.567,0.5376,0.4637,0.6572,0.6117,0.4089,0.3727,0.3768,0.3974,0.2893,0.2084,0.1414,0.1429,0.0414,-0.0982,-0.1344,-0.1795,-0.2331,-0.2551,-0.2595,-0.2792,-0.4036,-0.4916,-0.5558,-0.5971,-0.6244,-0.6489,-0.6834,-0.7203,-0.7594,-0.8186,-0.8378,-0.8654,-0.926,-0.9612,-0.9882,-1.0028,-1.0301,-1.0592,-1.1073,-1.1174,-1.1353,-1.1901,-1.2136,-1.2376,-1.2609,-1.3071,-1.3235,-1.3085,-1.3648,-1.4072,-1.4149,-1.4477,-1.4847,-1.515,-1.5227,-1.5536,-1.5996,-1.5959,-1.593,-1.5987,-1.5869,-1.5829,-1.5859,-1.5878,-1.5738,2.3958,2.3013,2.1542,2.1039,2.1698,2.1743,1.8777,1.9146,1.9445,1.6998,1.6429,1.6578,1.7192,1.6293,1.5798,1.6846,1.5053,1.3732,1.4405,1.3895,1.3291,1.2882,1.3541,1.333,1.158,1.113,1.0813,1.045,0.9503,0.8896,0.8798,0.815,0.7717,0.7396,0.6923,0.6431,0.6046,0.5727,0.5399,0.4956,0.5191,0.5222,0.5054,0.5008,0.4907,0.4709,0.5247,0.5026,0.0,0.6205,0.5721,0.3843,0.3263,0.3364,0.3775,0.2896,0.1751,0.0674,0.0341,-0.0415,-0.1261,-0.1683,-0.2252,-0.2903,-0.3147,-0.3308,-0.3618,-0.477,-0.5461,-0.5902,-0.6058,-0.6455,-0.679,-0.7001,-0.7379,-0.7869,-0.8373,-0.8658,-0.902,-0.9543,-0.9821,-1.0101,-1.0429,-1.0534,-1.0827,-1.1322,-1.1341,-1.1525,-1.2,-1.2406,-1.2651,-1.273,-1.3214,-1.3518,-1.34,-1.3959,-1.4316,-1.4316,-1.467,-1.5056,-1.5287,-1.5525,-1.5763,-1.6158,-1.6186,-1.6106,-1.5972,-1.5838,-1.5732,-1.5576,-1.5859,-1.6,0.0,2.4507,2.434,2.4204,2.4063,2.2924,1.8873,1.9206,0.0,1.7029,1.4844,1.3933,1.5748,1.4592,1.3847,1.5413,1.3109,1.1901,1.4033,1.3003,1.1532,1.0275,1.2575,1.2834,0.9188,1.026,1.0545,0.8974,0.8474,0.8321,0.8368,0.7937,0.7396,0.6853,0.6367,0.5991,0.5773,0.5618,0.5399,0.5073,0.5356,0.5439,0.5277,0.4966,0.4668,0.4293,0.443,0.4247,0.3834,0.4118,0.3796,0.3074,0.2817,0.2825,0.3034,0.3102,0.1752,-0.0203,-0.0831,-0.1119,-0.1331,-0.2455,-0.304,-0.3406,-0.3832,-0.428,-0.472,-0.5116,-0.5625,-0.6053,-0.5969,-0.6474,-0.7057,-0.7157,-0.7713,-0.8205,-0.8655,-0.8946,-0.9192,-0.9692,-0.9953,-1.0187,-1.0643,-1.0667,-1.0844,-1.1555,-1.1484,-1.1497,-1.19,-1.2382,-1.2628,-1.2628,-1.327,-1.3749,-1.3988,-1.4395,-1.4646,-1.4646,-1.5323,-1.565,-1.5733,-1.6147,-1.6394,-1.6394,-1.6469,-1.6353,-1.5996,-1.5746,-1.5451,-1.5275,-1.5655,-1.6008,2.1295,0.0,2.4537,2.3304,2.1864,2.0371,0.0,1.7916,1.7297,1.6633,1.4647,1.2861,1.232,1.0254,0.9241,1.1246,1.1573,1.1624,1.1869,1.1984,1.2236,1.2943,1.3139,1.2926,1.2006,1.0689,0.9769,0.9519,0.9169,0.8685,0.8037,0.7509,0.6918,0.6213,0.5555,0.523,0.5289,0.512,0.5011,0.4956,0.478,0.4857,0.5158,0.466,0.4411,0.4316,0.4898,0.465,0.3769,0.3579,0.3062,0.2407,0.235,0.2018,0.1681,0.2221,0.1076,-0.0875,-0.1016,-0.1446,-0.2103,-0.3221,-0.387,-0.4337,-0.4847,-0.4934,-0.5047,-0.5522,-0.6067,-0.6464,-0.6633,-0.6884,-0.7161,-0.7328,-0.7874,-0.848,-0.8822,-0.9401,-0.9868,-1.0369,-1.067,-1.0862,-1.1086,-1.1134,-1.1288,-1.1855,-1.19,-1.203,-1.2439,-1.2943,-1.3201,-1.3201,-1.3684,-1.3981,-1.4058,-1.4469,-1.4802,-1.4975,-1.5296,-1.5499,-1.565,-1.5816,-1.6064,-1.6394,-1.6621,-1.6587,-1.6234,-1.6226,-1.5999,-1.5655,-1.5726,-1.607,1.9578,2.1649,2.3317,2.2092,2.0712,1.9528,1.8931,1.792,1.7018,1.6607,1.4974,1.3246,1.217,1.0555,0.9597,1.0111,1.0179,1.0,0.9563,1.0132,1.0864,1.1521,1.1661,1.1376,1.0697,0.9707,0.8899,0.843,0.833,0.7984,0.7337,0.6864,0.6213,0.534,0.4842,0.4622,0.468,0.457,0.4438,0.4336,0.4305,0.4464,0.4709,0.4355,0.4132,0.4126,0.4528,0.4169,0.3153,0.3288,0.2885,0.2214,0.2218,0.1547,0.0605,0.0673,-0.0067,-0.1076,-0.1076,-0.2054,-0.3303,-0.3907,-0.4359,-0.4743,-0.5038,-0.5346,-0.5625,-0.6064,-0.6405,-0.6713,-0.7007,-0.7301,-0.7597,-0.7854,-0.826,-0.8812,-0.9199,-0.9695,-1.0243,-1.0621,-1.0824,-1.1094,-1.1267,-1.1435,-1.1613,-1.1957,-1.2123,-1.2283,-1.2619,-1.2954,-1.3124,-1.3392,-1.3737,-1.3997,-1.4243,-1.4489,-1.4734,-1.4915,-1.5257,-1.5423,-1.5582,-1.5658,-1.5831,-1.6176,-1.6381,-1.6423,-1.6158,-1.6088,-1.6032,-1.5918,-1.5811,-1.607,1.8454,1.9945,2.1078,2.0496,1.9687,1.909,1.9104,1.8579,1.7841,1.6905,1.5649,1.4352,1.3248,1.2306,1.1388,1.042,0.8915,0.7833,0.7611,0.7967,0.8464,0.8936,0.9325,0.9059,0.7856,0.8095,0.7841,0.6727,0.6838,0.6804,0.6367,0.5991,0.534,0.4405,0.4125,0.4012,0.3959,0.3965,0.3854,0.3727,0.3971,0.4095,0.4212,0.4014,0.3877,0.3623,0.3623,0.0,0.2423,0.3297,0.3029,0.2154,0.1952,0.0942,-0.0403,-0.101,-0.1212,-0.1144,-0.1486,-0.2833,-0.4349,-0.4419,-0.4608,-0.4776,-0.5053,-0.5654,-0.6252,-0.6662,-0.6774,-0.6904,-0.7207,-0.7613,-0.8074,-0.8383,-0.8765,-0.9101,-0.9474,-1.0038,-1.0467,-1.0641,-1.0911,-1.1094,-1.1267,-1.1527,-1.1785,-1.1957,-1.2198,-1.2443,-1.2705,-1.2772,-1.2942,-1.3392,-1.3652,-1.3906,-1.4321,-1.4566,-1.465,-1.4734,-1.5166,-1.5431,-1.5431,-1.5665,-1.5778,-1.5916,-1.6213,-1.6268,-1.6154,-1.5938,-1.5963,-1.6142,-1.5905,-1.6008,1.7477,1.771,1.7824,1.8093,1.7275,1.6876,1.8702,1.8981,1.8658,1.786,1.6857,1.5396,1.2751,1.0475,0.9336,1.0369,0.802,0.6394,0.7306,0.5983,0.6202,0.9582,0.7987,0.6842,0.741,0.6822,0.615,0.541,0.5984,0.6027,0.5378,0.4886,0.4391,0.3738,0.3405,0.313,0.2742,0.3357,0.3699,0.3769,0.3553,0.3548,0.3714,0.3776,0.3484,0.282,0.0,0.2078,0.2288,0.3297,0.3096,0.2087,0.0808,-0.0539,-0.1889,-0.2021,-0.1615,-0.1349,-0.318,-0.3958,-0.4326,-0.4683,-0.4864,-0.5084,-0.5735,-0.6105,-0.6437,-0.7281,-0.7346,-0.7282,-0.7785,-0.7866,-0.7955,-0.8426,-0.8772,-0.9101,-0.9474,-1.012,-1.0641,-1.0727,-1.0997,-1.1262,-1.1262,-1.1527,-1.1785,-1.1957,-1.2203,-1.2448,-1.2705,-1.3045,-1.3307,-1.3392,-1.3743,-1.4082,-1.4166,-1.4321,-1.4482,-1.465,-1.5166,-1.5431,-1.5431,-1.5839,-1.6064,-1.6093,-1.6651,-1.6879,-1.6669,-1.6538,-1.6429,-1.6345,-1.5977,-1.6149,1.6417,1.6426,1.6232,1.6053,1.6315,1.6288,1.4953,0.0,1.833,1.7363,1.5133,1.2616,1.0206,0.874,0.7685,0.7162,0.4646,0.2893,0.3321,0.278,0.3344,0.6109,0.5449,0.5014,0.5495,0.5198,0.4774,0.4334,0.4779,0.4878,0.434,0.3892,0.3453,0.285,0.2796,0.2575,0.2127,0.2565,0.2842,0.2947,0.2875,0.2966,0.3097,0.3209,0.2986,0.2551,0.0,0.2013,0.1817,0.276,0.2559,0.1415,-0.0472,-0.1618,-0.2224,-0.2424,-0.249,-0.2707,-0.3741,-0.4434,-0.4754,-0.4897,-0.5302,-0.5777,-0.61,-0.6567,-0.6972,-0.7539,-0.7578,-0.7592,-0.8176,-0.8342,-0.8464,-0.8865,-0.9132,-0.9402,-0.984,-1.0381,-1.0733,-1.0824,-1.1089,-1.1262,-1.1262,-1.1607,-1.1871,-1.1957,-1.2289,-1.2619,-1.2875,-1.3143,-1.3398,-1.3561,-1.3737,-1.3913,-1.4088,-1.4405,-1.465,-1.4915,-1.5257,-1.5431,-1.5431,-1.5846,-1.5912,-1.5538,-1.6377,-1.671,-1.6387,-1.6566,-1.6631,-1.6495,-1.6408,-1.6471,1.511,1.5041,1.4764,1.4392,1.5428,1.5563,0.0,0.0,0.0,1.417,1.1849,0.9292,0.6997,0.6857,0.6235,0.3456,0.1664,0.0488,0.0089,0.0089,0.076,0.2461,0.2739,0.2933,0.328,0.3494,0.3516,0.3294,0.3602,0.3616,0.3181,0.2956,0.2567,0.2073,0.2186,0.208,0.1699,0.186,0.1965,0.2073,0.2273,0.2408,0.2394,0.2528,0.2403,0.2149,0.2283,0.1949,0.1346,0.1885,0.1684,0.0877,-0.1483,-0.236,-0.2359,-0.2849,-0.3277,-0.3655,-0.402,-0.4638,-0.5253,-0.5228,-0.5702,-0.6383,-0.6504,-0.6905,-0.7461,-0.7722,-0.78,-0.8038,-0.8556,-0.8767,-0.8992,-0.9321,-0.9493,-0.9689,-1.0207,-1.0467,-1.0733,-1.0921,-1.1181,-1.1354,-1.1354,-1.1699,-1.2043,-1.2037,-1.2454,-1.279,-1.3052,-1.3228,-1.3379,-1.3562,-1.3698,-1.3906,-1.4166,-1.4573,-1.4908,-1.509,-1.5264,-1.5431,-1.5431,-1.5846,-1.5843,-1.523,-1.6218,-1.6509,-1.6126,-1.655,-1.6649,-1.6531,-1.6767,-1.6707,1.3413,1.2912,1.254,1.3218,1.3877,0.0,1.1432,0.9004,0.0,0.6569,0.7238,0.6892,0.3503,0.4759,0.4876,0.0529,0.0927,0.141,0.0354,-0.0783,-0.0897,0.0797,0.034,0.0249,0.1202,0.186,0.222,0.2184,0.2419,0.235,0.1958,0.1902,0.1792,0.1628,0.1684,0.1595,0.141,0.1471,0.1532,0.1651,0.1823,0.1818,0.1615,0.1939,0.1836,0.1479,0.1277,0.1212,0.1079,0.0472,0.0539,0.0809,-0.2021,-0.2965,-0.2771,-0.3675,-0.3617,-0.3253,-0.4357,-0.4947,-0.5354,-0.567,-0.6073,-0.6589,-0.6998,-0.7297,-0.7461,-0.7881,-0.8217,-0.8564,-0.8839,-0.894,-0.911,-0.9452,-0.9593,-0.9689,-1.0207,-1.0467,-1.0733,-1.0921,-1.1181,-1.1354,-1.1613,-1.1871,-1.2037,-1.2363,-1.2534,-1.279,-1.3052,-1.3313,-1.338,-1.3372,-1.3754,-1.4159,-1.4398,-1.4831,-1.509,-1.509,-1.5264,-1.5431,-1.5431,-1.5846,-1.6072,-1.6018,-1.6468,-1.6629,-1.6499,-1.6523,-1.6431,-1.6319,-1.6691,-1.6911,1.3293,1.3069,1.2541,1.2009,1.2827,0.0,0.0,0.8067,0.4424,0.3685,0.474,0.5375,0.3945,0.2999,0.1877,0.0044,-0.0574,-0.1119,-0.1891,-0.207,-0.192,-0.1276,-0.0998,-0.0711,-0.0208,0.0422,0.0857,0.0988,0.1168,0.1345,0.1401,0.1288,0.1289,0.1347,0.1432,0.1397,0.1179,0.1287,0.1311,0.1248,0.1513,0.1545,0.1456,0.1721,0.1732,0.1547,0.1412,0.101,0.0404,0.0135,-0.0135,-0.0472,-0.2335,-0.3283,-0.3547,-0.3719,-0.375,-0.3864,-0.467,-0.5192,-0.5541,-0.6074,-0.6603,-0.7075,-0.7307,-0.7533,-0.7845,-0.7992,-0.8392,-0.8922,-0.9122,-0.9287,-0.942,-0.9758,-0.9951,-1.012,-1.0467,-1.0738,-1.1003,-1.1354,-1.1527,-1.1613,-1.1871,-1.2123,-1.2283,-1.2363,-1.2534,-1.2875,-1.3222,-1.3313,-1.3522,-1.3761,-1.4021,-1.425,-1.4566,-1.4741,-1.4999,-1.5257,-1.5347,-1.5423,-1.5582,-1.5741,-1.5898,-1.5944,-1.63,-1.6474,-1.6285,-1.6669,-1.6757,-1.6415,-1.7195,-1.7235,1.2723,1.2762,1.2441,1.1744,0.0,0.0,1.2773,0.7999,0.3616,0.442,0.4418,0.4184,0.3814,0.1851,0.0044,-0.0704,-0.1463,-0.2221,-0.3128,-0.279,-0.2458,-0.2507,-0.2023,-0.1529,-0.1243,-0.0758,-0.0383,-0.0112,0.0224,0.0505,0.0785,0.0898,0.0958,0.1083,0.1107,0.1071,0.0971,0.1139,0.1104,0.0851,0.1046,0.1254,0.1279,0.1481,0.1548,0.1413,0.1413,0.0744,-0.041,-0.0546,-0.0822,-0.1382,-0.2538,-0.352,-0.4162,-0.3894,-0.3901,-0.4289,-0.4934,-0.5608,-0.6324,-0.6537,-0.7019,-0.7579,-0.7562,-0.7752,-0.8024,-0.8164,-0.8606,-0.9092,-0.9465,-0.9602,-0.9777,-1.0038,-1.0207,-1.0381,-1.0733,-1.0911,-1.1176,-1.1613,-1.1785,-1.1871,-1.2123,-1.2283,-1.2448,-1.2448,-1.2619,-1.2875,-1.3313,-1.3398,-1.3568,-1.4082,-1.4169,-1.4309,-1.4643,-1.4824,-1.5082,-1.5347,-1.5431,-1.5506,-1.565,-1.5741,-1.589,-1.6067,-1.6277,-1.6304,-1.6206,-1.6636,-1.6709,-1.646,-1.754,-1.7492,1.1416,1.1538,1.1922,1.2498,0.0,0.0,1.3354,0.8407,0.4172,0.8725,0.6373,0.3249,0.2431,0.1242,-0.0223,-0.2099,-0.1471,-0.1266,-0.289,-0.2759,-0.2556,-0.2704,-0.269,-0.2467,-0.1853,-0.1628,-0.1347,-0.0954,-0.0336,-0.0,-0.0,0.0561,0.0912,0.0883,0.059,0.0608,0.0968,0.0969,0.0852,0.0539,0.0471,0.074,0.1079,0.1079,0.1079,0.1079,0.108,0.0205,-0.1331,-0.1683,-0.1708,-0.1673,-0.2695,-0.3644,-0.4387,-0.4348,-0.4232,-0.4239,-0.5043,-0.6461,-0.7785,-0.702,-0.7342,-0.7916,-0.7986,-0.8012,-0.8052,-0.8484,-0.8789,-0.9177,-0.9808,-1.0038,-1.0038,-1.0294,-1.0294,-1.0472,-1.0916,-1.1165,-1.1419,-1.1613,-1.1871,-1.2123,-1.2363,-1.2363,-1.2448,-1.2705,-1.2705,-1.2875,-1.3313,-1.3398,-1.3568,-1.4082,-1.4228,-1.4412,-1.4713,-1.5166,-1.5431,-1.5431,-1.5431,-1.5506,-1.565,-1.5997,-1.6162,-1.6394,-1.6394,-1.6312,-1.6214,-1.6312,-1.6304,-1.6222,-1.746,-1.755,0.981,1.0659,1.1535,1.0229,1.0345,1.0914,0.0,0.7361,0.0,0.0,0.4282,0.3017,0.1857,0.1106,-0.0,-0.1873,-0.1923,-0.2066,-0.2901,-0.2709,-0.2431,-0.2307,-0.2007,-0.1796,-0.1685,-0.1403,-0.1178,-0.1122,-0.0842,-0.0449,-0.0,0.0172,0.0467,0.0884,0.0554,0.0381,0.0323,0.0791,0.1003,0.0944,0.0606,0.0741,0.1079,0.1078,0.0808,0.027,-0.0206,-0.0696,-0.1193,-0.1285,-0.1314,-0.1419,-0.2993,-0.3936,-0.4382,-0.4409,-0.4491,-0.4812,-0.5647,-0.6478,-0.72,-0.7224,-0.743,-0.784,-0.8205,-0.8098,-0.7962,-0.8653,-0.9132,-0.9489,-0.9724,-1.0105,-1.0467,-1.0554,-1.0651,-1.0824,-1.116,-1.1429,-1.1688,-1.2118,-1.2198,-1.2369,-1.2534,-1.2619,-1.2619,-1.2705,-1.2705,-1.2875,-1.3313,-1.3659,-1.3997,-1.4321,-1.4253,-1.4316,-1.4643,-1.4824,-1.4999,-1.5173,-1.5347,-1.5499,-1.5816,-1.611,-1.6366,-1.6648,-1.6476,-1.6429,-1.6571,-1.6593,-1.6675,-1.6815,-1.7658,-1.7854,1.0154,1.0021,0.9982,1.0045,0.9506,0.8781,0.7885,0.6476,0.5121,0.4098,0.3605,0.297,0.1598,0.0711,-0.0222,-0.1429,-0.1862,-0.2211,-0.2548,-0.2452,-0.2267,-0.2062,-0.185,-0.1682,-0.1628,-0.1403,-0.1234,-0.1178,-0.101,-0.0617,-0.0056,-0.0,0.0178,0.054,0.0378,0.0195,-0.0,0.0468,0.0809,0.1079,0.0539,0.0876,0.189,0.074,-0.0068,-0.0549,-0.0997,-0.1366,-0.1643,-0.133,-0.1353,-0.1812,-0.344,-0.4262,-0.4623,-0.4618,-0.4956,-0.5559,-0.6122,-0.6764,-0.7469,-0.7623,-0.7772,-0.8036,-0.8438,-0.8317,-0.8143,-0.8998,-0.945,-0.9663,-1.0003,-1.0464,-1.0824,-1.0824,-1.0916,-1.1089,-1.1424,-1.1693,-1.1952,-1.2277,-1.2448,-1.2534,-1.2705,-1.2705,-1.2705,-1.2705,-1.2875,-1.3052,-1.3392,-1.3828,-1.4166,-1.4398,-1.4321,-1.4328,-1.465,-1.4824,-1.4915,-1.509,-1.5325,-1.5567,-1.5899,-1.6193,-1.6456,-1.6648,-1.6484,-1.6484,-1.673,-1.6648,-1.6812,-1.7221,-1.761,-1.7897,1.1751,0.9677,0.8,1.1044,0.8037,0.4287,0.4177,0.5943,0.7001,0.4791,0.3893,0.304,0.1563,0.0358,-0.0492,-0.0805,-0.1387,-0.1876,-0.2002,-0.202,-0.2039,-0.2007,-0.1959,-0.1849,-0.1515,-0.1459,-0.1347,-0.1122,-0.0956,-0.062,-0.0113,-0.0,0.006,0.0124,0.0064,-0.0,-0.0,-0.0,0.0337,0.1011,0.0336,0.1011,0.2713,0.0068,-0.1168,-0.1274,-0.1411,-0.1797,-0.2435,-0.1694,-0.1854,-0.2731,-0.3964,-0.4704,-0.5082,-0.5004,-0.555,-0.6224,-0.6468,-0.7307,-0.8201,-0.8082,-0.8168,-0.8383,-0.8791,-0.8647,-0.8516,-0.9407,-0.9733,-0.9885,-1.059,-1.0916,-1.1008,-1.1094,-1.1094,-1.1181,-1.1613,-1.1871,-1.2118,-1.2369,-1.2534,-1.2705,-1.2705,-1.2705,-1.2705,-1.2705,-1.3052,-1.3398,-1.3398,-1.3828,-1.4166,-1.4398,-1.4398,-1.4482,-1.465,-1.4915,-1.5006,-1.509,-1.5304,-1.5628,-1.5899,-1.6185,-1.6433,-1.673,-1.6484,-1.6484,-1.673,-1.6558,-1.6804,-1.7392,-1.7585,-1.7888,1.1505,1.0381,0.9351,0.9621,0.7066,0.5044,0.7004,0.6907,0.5778,0.3601,0.338,0.3111,0.1564,0.1606,0.1336,-0.0313,-0.0992,-0.1444,-0.195,-0.1777,-0.1674,-0.1838,-0.1626,-0.1289,-0.0842,-0.0785,-0.0729,-0.0505,-0.0517,-0.0583,-0.07,0.0185,0.0763,0.0831,0.0329,-0.0,-0.0,-0.0,0.0067,0.0202,0.0067,-0.0136,-0.0347,-0.0973,-0.1284,-0.1342,-0.1961,-0.2367,-0.2474,-0.2109,-0.2578,-0.3579,-0.4545,-0.5101,-0.5479,-0.5321,-0.5792,-0.6551,-0.6614,-0.7539,-0.8591,-0.8324,-0.8286,-0.8414,-0.8873,-0.8875,-0.8835,-0.9957,-1.0443,-1.0682,-1.0906,-1.1089,-1.1267,-1.1527,-1.1527,-1.1613,-1.1871,-1.2118,-1.2369,-1.2619,-1.2705,-1.2705,-1.2705,-1.2705,-1.2705,-1.2705,-1.2966,-1.3222,-1.3398,-1.3652,-1.3906,-1.4398,-1.4237,-1.4243,-1.4482,-1.4482,-1.465,-1.4741,-1.5431,-1.5937,-1.6185,-1.6441,-1.668,-1.673,-1.6648,-1.6648,-1.673,-1.7066,-1.7302,-1.7619,-1.8193,-1.8709,1.2627,1.1718,1.0273,0.8754,0.8006,0.7617,0.7654,0.6954,0.5933,0.4451,0.3799,0.3211,0.2233,0.2055,0.1652,0.0447,-0.0185,-0.0626,-0.0802,-0.0832,-0.0808,-0.0838,-0.0673,-0.0505,-0.0336,-0.0224,-0.0056,0.0172,-0.0058,-0.0058,0.0241,0.0746,0.1018,0.1033,0.0664,0.1011,0.2022,0.2092,0.1349,-0.0,-0.0404,-0.082,-0.1262,-0.1439,-0.1551,-0.1668,-0.2071,-0.2312,-0.2546,-0.2809,-0.327,-0.3934,-0.4919,-0.541,-0.5637,-0.5712,-0.6393,-0.7141,-0.7213,-0.8,-0.8953,-0.8563,-0.8563,-0.8837,-0.9353,-0.9456,-0.9409,-1.0053,-1.0651,-1.11,-1.117,-1.1348,-1.1527,-1.1785,-1.1785,-1.1785,-1.2118,-1.2283,-1.2448,-1.2619,-1.2705,-1.2705,-1.2705,-1.2705,-1.2705,-1.2705,-1.3052,-1.3307,-1.3392,-1.3652,-1.399,-1.4405,-1.4243,-1.4257,-1.4496,-1.4482,-1.4468,-1.4636,-1.5235,-1.5748,-1.6012,-1.6335,-1.6574,-1.673,-1.673,-1.6714,-1.6683,-1.7221,-1.7725,-1.8103,-1.8434,-1.8834,1.3622,1.2937,1.1172,0.8935,0.943,0.9958,0.796,0.7203,0.6719,0.5981,0.4548,0.335,0.2946,0.219,0.1567,0.1254,0.0715,0.045,0.0604,0.048,0.0446,0.0504,0.0505,0.0449,0.0336,0.0449,0.0624,0.0817,0.0458,0.0638,0.1478,0.1241,0.1073,0.091,0.1065,0.1956,0.3724,0.3724,0.2565,0.0202,-0.0813,-0.1236,-0.1194,-0.1555,-0.1818,-0.2049,-0.201,-0.224,-0.2743,-0.35,-0.3874,-0.4116,-0.5206,-0.573,-0.5989,-0.6298,-0.7046,-0.7883,-0.7983,-0.8634,-0.9306,-0.9092,-0.9133,-0.9445,-0.9843,-1.0005,-1.0154,-1.023,-1.0733,-1.1278,-1.1332,-1.1596,-1.1785,-1.2037,-1.1952,-1.1952,-1.2283,-1.2448,-1.2534,-1.2705,-1.2705,-1.2705,-1.2705,-1.2741,-1.2845,-1.2711,-1.3174,-1.3449,-1.3404,-1.3737,-1.4159,-1.4405,-1.4243,-1.425,-1.4671,-1.4559,-1.4545,-1.4629,-1.5123,-1.5462,-1.5741,-1.6064,-1.6394,-1.6574,-1.6656,-1.6698,-1.6619,-1.7277,-1.7878,-1.8407,-1.8576,-1.8895,1.2401,1.2721,1.2628,1.1325,0.9876,0.9062,1.04,0.9258,0.7664,0.6829,0.5101,0.3527,0.2862,0.2732,0.2464,0.1748,0.1726,0.175,0.1658,0.178,0.1901,0.1903,0.1741,0.1572,0.1572,0.1572,0.1519,0.1412,0.1326,0.1424,0.1723,0.1327,0.1104,0.1069,0.1074,0.1211,0.1547,0.1547,0.1345,0.0942,-0.0551,-0.1258,-0.1194,-0.1481,-0.1818,-0.2122,-0.2353,-0.2916,-0.3669,-0.3759,-0.4226,-0.4916,-0.5398,-0.627,-0.7118,-0.7096,-0.7539,-0.8336,-0.8729,-0.919,-0.9593,-1.0001,-1.004,-0.9881,-0.9897,-1.0164,-1.0595,-1.0966,-1.1241,-1.1332,-1.1677,-1.186,-1.2037,-1.2283,-1.2363,-1.2277,-1.2363,-1.2534,-1.2705,-1.2705,-1.2705,-1.2705,-1.2705,-1.3071,-1.3231,-1.2741,-1.3336,-1.3665,-1.3423,-1.3652,-1.3893,-1.4119,-1.43,-1.4398,-1.4552,-1.4643,-1.4741,-1.4999,-1.5235,-1.5567,-1.5839,-1.6004,-1.617,-1.617,-1.6492,-1.6609,-1.6359,-1.722,-1.773,-1.8043,-1.8807,-1.9222,1.2365,1.2918,1.3039,1.2071,1.0972,1.02,1.0502,1.0175,0.9366,0.7926,0.6229,0.4717,0.3829,0.3394,0.304,0.2593,0.2409,0.2276,0.2265,0.2331,0.2371,0.2352,0.2244,0.213,0.2018,0.211,0.209,0.1888,0.1736,0.1787,0.2,0.1806,0.1697,0.1747,0.1344,0.1277,0.1681,0.1748,0.1277,0.0471,-0.0276,-0.07,-0.0912,-0.1386,-0.1645,-0.1819,-0.2304,-0.2716,-0.3132,-0.4075,-0.4698,-0.5087,-0.5712,-0.6386,-0.7183,-0.7414,-0.7914,-0.8467,-0.905,-0.9672,-1.0159,-1.0199,-1.0449,-1.0799,-1.1043,-1.1262,-1.1348,-1.1144,-1.1408,-1.1774,-1.2043,-1.2123,-1.2283,-1.2711,-1.2796,-1.2796,-1.2966,-1.2966,-1.2966,-1.3052,-1.3169,-1.3225,-1.3076,-1.3448,-1.3536,-1.3174,-1.35,-1.3703,-1.358,-1.3743,-1.3984,-1.4112,-1.4647,-1.505,-1.5041,-1.5276,-1.5389,-1.5293,-1.534,-1.5499,-1.5597,-1.5748,-1.5831,-1.568,-1.6237,-1.6519,-1.653,-1.7415,-1.8112,-1.8754,-1.8886,-1.9045,1.246,1.3166,1.3506,1.3693,1.3029,1.2094,1.1228,1.1127,1.0784,0.9197,0.7653,0.6337,0.5538,0.4556,0.3759,0.3484,0.31,0.2894,0.295,0.2992,0.2936,0.2961,0.291,0.2863,0.2715,0.2723,0.2738,0.2698,0.2337,0.2202,0.2383,0.2801,0.281,0.2487,0.1814,0.1748,0.2288,0.2154,0.148,0.0269,0.0069,-0.035,-0.0771,-0.1297,-0.1553,-0.1667,-0.2159,-0.2415,-0.2659,-0.4309,-0.5171,-0.5398,-0.6106,-0.668,-0.7215,-0.7844,-0.8337,-0.8835,-0.9464,-1.0199,-1.0702,-1.0424,-1.0851,-1.1548,-1.1888,-1.1974,-1.1882,-1.1494,-1.1666,-1.2118,-1.2484,-1.2643,-1.2711,-1.3052,-1.3137,-1.3222,-1.3398,-1.3307,-1.3222,-1.3398,-1.3563,-1.3547,-1.343,-1.3627,-1.3716,-1.3436,-1.3711,-1.3815,-1.3743,-1.399,-1.4146,-1.4105,-1.4935,-1.5576,-1.5821,-1.5874,-1.5804,-1.5391,-1.5438,-1.5431,-1.5431,-1.5582,-1.5582,-1.5431,-1.5982,-1.6437,-1.6716,-1.7456,-1.8316,-1.9127,-1.8913,-1.8984,1.2409,1.3372,1.4559,1.744,1.6361,1.4463,1.3927,1.2689,1.1421,1.0541,0.9374,0.8389,0.8156,0.6439,0.4905,0.4264,0.4116,0.409,0.4023,0.4128,0.4191,0.4106,0.4018,0.4014,0.4192,0.3923,0.3806,0.3989,0.3315,0.2923,0.2953,0.4385,0.4579,0.3224,0.2822,0.2622,0.2695,0.1951,0.1412,0.1008,0.0346,-0.042,-0.1262,-0.1297,-0.1477,-0.1813,-0.1816,-0.207,-0.2659,-0.4309,-0.5488,-0.6274,-0.6666,-0.7227,-0.7864,-0.8508,-0.911,-0.9658,-1.0363,-1.0712,-1.0911,-1.1144,-1.1596,-1.198,-1.1866,-1.1866,-1.2043,-1.2472,-1.2443,-1.2425,-1.3155,-1.3326,-1.3307,-1.3398,-1.3398,-1.3392,-1.3398,-1.3392,-1.3392,-1.3398,-1.3241,-1.3155,-1.3398,-1.3627,-1.3716,-1.3436,-1.3972,-1.4309,-1.377,-1.4062,-1.4294,-1.4079,-1.4702,-1.5626,-1.7048,-1.6129,-1.539,-1.5369,-1.5431,-1.5431,-1.5431,-1.5431,-1.5431,-1.5431,-1.6072,-1.6535,-1.674,-1.7204,-1.7887,-1.87,-1.9127,-1.9295,1.0941,1.2196,1.3551,1.509,1.6362,1.6466,1.3839,1.2998,1.2499,1.1537,1.0299,0.9339,0.9237,0.7486,0.6029,0.6021,0.563,0.5417,0.5542,0.5185,0.4912,0.4882,0.5003,0.4919,0.4594,0.4711,0.4981,0.5588,0.4709,0.426,0.4529,0.5097,0.5061,0.4236,0.3424,0.2887,0.2559,0.2154,0.1749,0.1278,0.0899,0.014,-0.0982,-0.173,-0.207,-0.2041,-0.2189,-0.2677,-0.3441,-0.5171,-0.6355,-0.7064,-0.7204,-0.7778,-0.852,-0.9018,-0.9464,-1.0015,-1.0818,-1.1154,-1.1246,-1.1505,-1.1871,-1.2238,-1.2307,-1.2386,-1.2466,-1.2443,-1.2613,-1.296,-1.3241,-1.3319,-1.3398,-1.3568,-1.3737,-1.3828,-1.3828,-1.3737,-1.3652,-1.3828,-1.3887,-1.3959,-1.3861,-1.4064,-1.4156,-1.3867,-1.409,-1.4202,-1.401,-1.4075,-1.4311,-1.448,-1.4831,-1.5732,-1.721,-1.6563,-1.5872,-1.5461,-1.5365,-1.5431,-1.5431,-1.5431,-1.5431,-1.5431,-1.6208,-1.6507,-1.6421,-1.7188,-1.787,-1.862,-1.9083,-1.9243,0.9371,1.0596,1.2039,1.3385,1.5078,1.5932,1.4194,1.3471,1.3012,1.2575,1.1609,1.0723,1.0419,0.895,0.7647,0.7167,0.691,0.675,0.6789,0.6278,0.5926,0.5928,0.576,0.5618,0.5365,0.5331,0.5648,0.6384,0.5851,0.556,0.5698,0.5698,0.5372,0.484,0.3825,0.309,0.276,0.2423,0.1951,0.1278,0.1175,0.042,-0.0771,-0.1874,-0.2365,-0.2342,-0.3018,-0.3671,-0.43,-0.5718,-0.6747,-0.7537,-0.7821,-0.8203,-0.8737,-0.9394,-0.9828,-1.0335,-1.1139,-1.151,-1.1591,-1.1935,-1.2123,-1.2392,-1.2643,-1.2717,-1.2619,-1.2504,-1.2954,-1.3502,-1.3502,-1.3574,-1.3652,-1.3828,-1.3997,-1.4088,-1.4088,-1.3997,-1.3913,-1.4088,-1.4156,-1.4223,-1.4122,-1.4156,-1.4216,-1.4115,-1.4088,-1.4088,-1.4088,-1.426,-1.448,-1.4669,-1.5192,-1.5963,-1.7189,-1.6714,-1.6235,-1.5741,-1.5515,-1.5431,-1.5431,-1.5431,-1.5514,-1.5688,-1.6381,-1.6688,-1.669,-1.7383,-1.7968,-1.8451,-1.8914,-1.9145,0.0,0.0,0.0,1.2742,1.2779,1.2782,1.5124,1.4065,1.2842,1.3709,1.3383,1.2685,1.1847,1.1022,0.9796,0.7666,0.7918,0.8156,0.7635,0.7373,0.7218,0.7139,0.6396,0.6078,0.6662,0.5898,0.565,0.6412,0.6759,0.6745,0.6478,0.6222,0.5697,0.4831,0.3964,0.3431,0.3226,0.2691,0.1951,0.1144,0.1106,0.049,-0.07,-0.1729,-0.2289,-0.2636,-0.4302,-0.5053,-0.516,-0.5948,-0.681,-0.7602,-0.8372,-0.8593,-0.8544,-0.9662,-1.0319,-1.0811,-1.1448,-1.1871,-1.2037,-1.2277,-1.2448,-1.2448,-1.2613,-1.2687,-1.2674,-1.2674,-1.3392,-1.4122,-1.4122,-1.4102,-1.4088,-1.4088,-1.4088,-1.4088,-1.4088,-1.4088,-1.4088,-1.4088,-1.3913,-1.3822,-1.4088,-1.3906,-1.3822,-1.4088,-1.4095,-1.4102,-1.4095,-1.462,-1.4891,-1.4717,-1.5576,-1.649,-1.7234,-1.6728,-1.6455,-1.6462,-1.5834,-1.546,-1.546,-1.5445,-1.5695,-1.6299,-1.659,-1.6984,-1.7392,-1.7792,-1.8108,-1.8353,-1.8612,-1.9011,0.7161,0.0,0.0,0.0,0.0,0.0,1.2135,1.2478,1.2834,1.3186,1.3609,1.3842,1.3648,1.1845,1.033,1.0197,0.9788,0.9424,0.9273,0.8586,0.8109,0.83,0.7973,0.7512,0.7048,0.7153,0.7362,0.0,0.7418,0.733,0.7365,0.6473,0.569,0.5024,0.4422,0.3756,0.3092,0.2557,0.2018,0.148,0.1245,0.0624,-0.0272,-0.1569,-0.2412,-0.2945,-0.5032,-0.6139,-0.6345,-0.6342,-0.6961,-0.7987,-0.859,-0.9113,-0.9747,-1.0444,-1.1082,-1.168,-1.2049,-1.2174,-1.2254,-1.2498,-1.2662,-1.2662,-1.2662,-1.2741,-1.2735,-1.2705,-1.336,-1.4115,-1.4102,-1.4068,-1.4132,-1.4082,-1.4088,-1.4088,-1.4088,-1.4088,-1.4088,-1.4088,-1.3997,-1.3997,-1.4088,-1.4004,-1.3997,-1.4088,-1.4426,-1.4647,-1.4402,-1.5007,-1.5452,-1.5499,-1.5714,-1.6253,-1.7242,-1.7189,-1.7094,-1.7019,-1.6484,-1.6104,-1.6104,-1.5647,-1.5687,-1.6261,-1.7161,-1.7531,-1.7392,-1.7814,-1.8057,-1.8121,-1.8531,-1.8931,0.0,0.0,0.0,0.0,0.0,0.0,1.1025,1.158,1.202,1.2537,1.3561,1.4301,1.4098,1.3094,1.2476,1.2988,1.1981,1.0939,1.0383,0.9518,0.8976,0.9095,0.9221,0.9132,0.8579,0.8899,0.892,0.8522,0.821,0.7857,0.7536,0.6612,0.5881,0.5352,0.4556,0.3889,0.3222,0.2622,0.2087,0.1682,0.1436,0.1024,0.0404,-0.1969,-0.3321,-0.3869,-0.4858,-0.5819,-0.6651,-0.6795,-0.7415,-0.8444,-0.9019,-0.96,-1.0132,-1.0958,-1.1592,-1.2003,-1.2354,-1.2589,-1.2766,-1.293,-1.2917,-1.2911,-1.3008,-1.3087,-1.3334,-1.3516,-1.3886,-1.4348,-1.4426,-1.4405,-1.43,-1.4237,-1.4166,-1.4088,-1.4088,-1.4088,-1.4088,-1.4088,-1.4088,-1.4088,-1.4088,-1.4166,-1.4206,-1.4249,-1.4661,-1.4984,-1.4852,-1.5486,-1.5931,-1.5936,-1.6132,-1.6557,-1.7174,-1.7276,-1.7273,-1.7273,-1.6959,-1.678,-1.678,-1.6297,-1.6282,-1.6939,-1.7458,-1.7677,-1.7635,-1.7878,-1.8121,-1.8282,-1.8523,-1.8922,0.0,0.0,0.0,0.0,0.558,0.0,1.0535,1.0894,1.0743,1.1792,1.3306,1.4367,1.3913,1.4496,1.5119,1.5334,1.3944,1.2363,1.1081,1.0205,0.9716,0.9612,1.0181,1.0643,1.0726,1.0608,1.0086,0.9051,0.8764,0.8247,0.733,0.6732,0.6203,0.5683,0.4625,0.3892,0.3487,0.2757,0.2221,0.1817,0.1547,0.1278,0.0807,-0.2564,-0.4351,-0.4745,-0.417,-0.4801,-0.6314,-0.7073,-0.7936,-0.898,-0.9758,-1.0052,-1.0166,-1.1288,-1.1888,-1.2202,-1.2596,-1.3112,-1.347,-1.347,-1.3451,-1.3438,-1.3561,-1.3886,-1.421,-1.4635,-1.4783,-1.4824,-1.4929,-1.4755,-1.4489,-1.4398,-1.4237,-1.4166,-1.4088,-1.4115,-1.4135,-1.4135,-1.4135,-1.4148,-1.426,-1.4338,-1.4504,-1.4616,-1.5026,-1.5399,-1.5404,-1.598,-1.6274,-1.6274,-1.6714,-1.7073,-1.7073,-1.7198,-1.7325,-1.7325,-1.7266,-1.7285,-1.7336,-1.7085,-1.7227,-1.7774,-1.7648,-1.7702,-1.8108,-1.8066,-1.8201,-1.8612,-1.8514,-1.8913,0.0,0.0,0.0,0.0,0.4694,0.0,0.7216,0.8526,0.9709,1.1104,1.3313,1.507,1.5302,1.4918,1.4551,1.4585,1.3741,1.249,1.0976,1.0712,1.0415,0.9663,1.0202,1.0796,1.1331,1.0502,0.9636,0.8948,0.8313,0.7922,0.7977,0.7129,0.6412,0.5888,0.5093,0.4295,0.3496,0.2755,0.2285,0.2087,0.0875,0.0135,-0.0269,-0.1866,-0.291,-0.3421,-0.439,-0.5101,-0.5748,-0.6325,-0.7969,-1.0177,-1.0655,-1.0927,-1.1028,-1.2035,-1.265,-1.311,-1.3239,-1.36,-1.3944,-1.3931,-1.4196,-1.4482,-1.4874,-1.4769,-1.465,-1.486,-1.5104,-1.5173,-1.4831,-1.4824,-1.4824,-1.4482,-1.4398,-1.4321,-1.4166,-1.4269,-1.4436,-1.4436,-1.4436,-1.4596,-1.4994,-1.5123,-1.5232,-1.5389,-1.588,-1.6154,-1.6029,-1.6671,-1.7059,-1.6886,-1.7117,-1.7239,-1.7239,-1.7282,-1.7338,-1.7338,-1.7287,-1.7316,-1.7304,-1.7249,-1.7414,-1.7986,-1.8204,-1.8585,-1.905,-1.8365,-1.804,-1.8121,-1.8531,-1.8851,0.0,0.0,0.0,0.4665,0.4538,0.0,0.0,0.689,0.7796,0.9565,1.1903,1.3507,1.315,1.3831,1.4164,1.3402,1.2694,1.2085,1.1757,1.1141,1.0569,1.0294,1.1161,1.1589,1.1218,1.0552,0.9773,0.9052,0.8684,0.8441,0.8376,0.7521,0.6802,0.6145,0.5292,0.4361,0.3493,0.2751,0.2217,0.1884,0.0471,-0.0807,-0.1884,-0.2453,-0.3199,-0.4136,-0.4456,-0.5228,-0.6392,-0.8449,-0.9991,-1.1151,-1.1335,-1.1347,-1.1447,-1.2466,-1.3085,-1.3467,-1.3888,-1.4203,-1.4461,-1.465,-1.4713,-1.4782,-1.5285,-1.5278,-1.5068,-1.5006,-1.518,-1.534,-1.4999,-1.4999,-1.4999,-1.4824,-1.4768,-1.4801,-1.4638,-1.4783,-1.4947,-1.528,-1.5225,-1.5136,-1.5294,-1.5473,-1.5714,-1.5868,-1.6392,-1.6649,-1.6622,-1.7051,-1.7239,-1.7153,-1.7239,-1.7326,-1.7326,-1.7326,-1.7326,-1.7326,-1.8279,-1.8311,-1.7372,-1.7881,-1.8353,-1.8625,-1.8862,-1.903,-1.9225,-1.9024,-1.8833,-1.8641,-1.8878,-1.9029,0.0,0.0,0.0,0.0,0.0,0.4721,0.0,0.0,0.0,0.7993,0.9841,1.0914,1.0137,1.1669,1.2576,1.1107,1.1183,1.1681,1.2473,1.1524,1.0745,1.0902,1.2029,1.241,1.1285,1.0906,1.0408,0.962,0.9475,0.9273,0.9011,0.8042,0.719,0.6465,0.5418,0.4425,0.3553,0.2885,0.2216,0.148,0.0134,-0.1479,-0.3167,-0.3293,-0.4019,-0.5237,-0.5136,-0.5821,-0.7252,-1.0695,-1.2091,-1.2048,-1.1913,-1.1745,-1.1695,-1.2882,-1.3416,-1.3743,-1.4434,-1.4734,-1.4915,-1.5293,-1.5235,-1.5011,-1.5347,-1.5431,-1.5401,-1.5166,-1.5257,-1.5347,-1.5173,-1.5173,-1.5173,-1.509,-1.5156,-1.5289,-1.5203,-1.5313,-1.5639,-1.5979,-1.6091,-1.5964,-1.5694,-1.593,-1.6202,-1.6352,-1.667,-1.704,-1.703,-1.7246,-1.7326,-1.7326,-1.7326,-1.7326,-1.7326,-1.7326,-1.7333,-1.752,-1.9236,-1.957,-1.7959,-1.8904,-1.9468,-1.9522,-1.9419,-1.9419,-1.9505,-1.9856,-1.9711,-1.9177,-1.9219,-1.919,0.0,0.0,0.0,0.0,0.4782,0.4361,0.4433,0.0,0.5417,0.6902,0.0,0.7841,0.8351,0.0,0.0,0.6297,0.9234,1.1746,1.2114,1.1757,1.1314,1.095,1.1856,1.2538,1.2496,1.1855,1.1431,1.122,1.0297,1.0036,1.0662,0.8784,0.7386,0.6671,0.5617,0.4622,0.3758,0.336,0.2418,0.1143,-0.0336,-0.168,-0.2958,-0.3544,-0.4336,-0.5415,-0.7232,-0.7822,-0.7619,-1.0195,-1.2022,-1.3259,-1.276,-1.2419,-1.2297,-1.3354,-1.3902,-1.4152,-1.4585,-1.4977,-1.5333,-1.5387,-1.5658,-1.5854,-1.5514,-1.5431,-1.5423,-1.5347,-1.5347,-1.5431,-1.5347,-1.5347,-1.5347,-1.5173,-1.5333,-1.5476,-1.5289,-1.5665,-1.6085,-1.6113,-1.6536,-1.6821,-1.6786,-1.6872,-1.6973,-1.7181,-1.7181,-1.7289,-1.7232,-1.7333,-1.7326,-1.7326,-1.7326,-1.7326,-1.7326,-1.7326,-1.752,-1.8109,-1.9532,-2.0188,-1.9958,-2.014,-2.0148,-2.021,-2.0008,-2.0184,-2.0579,-2.0403,-1.9815,-1.8771,-1.9141,-1.911,0.0,0.0,0.0,0.0,0.0,0.0,0.4033,0.0,0.4885,0.5675,0.0,0.0,0.0,0.0,0.0,0.0,0.8423,0.9836,0.9475,1.0001,1.0525,1.0878,1.1325,0.0,1.2044,1.2043,1.2118,1.2214,1.1486,1.1108,1.1236,0.9681,0.8191,0.6999,0.5885,0.492,0.4129,0.2814,0.1493,0.0064,-0.1213,-0.2576,-0.3994,-0.4499,-0.5284,-0.6368,-0.844,-0.8858,-0.8278,-1.0585,-1.2242,-1.3248,-1.3361,-1.3221,-1.3124,-1.3824,-1.4294,-1.4553,-1.4936,-1.5325,-1.5575,-1.5876,-1.5854,-1.5681,-1.5786,-1.5891,-1.5816,-1.5492,-1.5492,-1.5499,-1.5249,-1.5257,-1.5391,-1.558,-1.5864,-1.6053,-1.6145,-1.6457,-1.6679,-1.6757,-1.6879,-1.7073,-1.7153,-1.7153,-1.7239,-1.7333,-1.7326,-1.7326,-1.7326,-1.7326,-1.7326,-1.7326,-1.7326,-1.7326,-1.7326,-1.7527,-1.7613,-1.7755,-1.9338,-2.0331,-2.0344,-2.028,-2.0316,-2.0329,-2.0445,-2.0552,-2.0757,-2.0891,-2.0492,-1.9419,-1.9787,-1.985,0.7663,0.0,0.0,0.0,0.0,0.0,0.0,0.0,0.0,0.0,0.5128,0.0,0.0,0.0,0.537,0.0,0.0,0.7716,0.6913,0.7953,0.912,1.0081,1.0699,1.1184,0.0,1.2177,1.2641,1.2956,1.2528,1.2201,1.2091,1.0488,0.8836,0.7274,0.5847,0.4623,0.3537,0.1861,0.0379,-0.0984,-0.2458,-0.3742,-0.4938,-0.552,-0.6236,-0.7228,-0.8907,-0.9221,-0.8663,-1.0454,-1.2144,-1.3538,-1.4057,-1.4094,-1.3923,-1.4342,-1.4617,-1.4851,-1.5257,-1.5674,-1.5997,-1.6245,-1.6026,-1.5808,-1.6018,-1.6124,-1.6147,-1.565,-1.565,-1.5567,-1.5249,-1.5257,-1.5511,-1.5918,-1.6235,-1.6551,-1.6965,-1.7113,-1.716,-1.734,-1.7246,-1.7153,-1.7239,-1.7326,-1.7326,-1.7326,-1.7326,-1.7326,-1.7326,-1.7326,-1.7326,-1.7326,-1.7326,-1.7326,-1.7326,-1.7721,-1.7994,-1.8118,-1.9463,-2.03,-2.0283,-2.0347,-2.0312,-2.0322,-2.0645,-2.0762,-2.0753,-2.1212,-2.106,-2.0404,-2.0526,-2.0462,0.0,0.0,0.0,0.5108,0.0,0.0,0.0,0.0,0.3655,0.0,0.0,0.4857,0.4574,0.4563,0.0,0.0,0.0,0.0,0.0,0.5982,0.7128,0.8344,0.9967,1.1183,0.0,1.2353,1.3018,0.0,1.316,1.3124,1.3786,1.1176,0.8956,0.7414,0.5424,0.3427,0.1606,0.0513,-0.0569,-0.1718,-0.4055,-0.5239,-0.529,-0.6376,-0.7154,-0.7797,-0.8387,-0.8617,-0.8578,-0.9283,-1.1561,-1.4614,-1.4982,-1.5009,-1.484,-1.4677,-1.479,-1.5126,-1.5295,-1.5967,-1.6613,-1.6389,-1.6464,-1.659,-1.6064,-1.5989,-1.6087,-1.5929,-1.5831,-1.5658,-1.5423,-1.5431,-1.5511,-1.6174,-1.6314,-1.6632,-1.7417,-1.7475,-1.7333,-1.7628,-1.7434,-1.7333,-1.7326,-1.7326,-1.7326,-1.7326,-1.7326,-1.7326,-1.7326,-1.7326,-1.7326,-1.7326,-1.7326,-1.7326,-1.7326,-1.7916,-1.8875,-2.012,-2.0275,-2.0322,-2.0292,-2.0322,-2.0322,-2.0292,-2.0663,-2.0753,-2.0744,-2.1212,-2.1392,-2.1365,-2.095,-2.0562,0.0,0.0,0.5797,0.5209,0.0,0.0,0.0,0.0,0.0,0.0,0.0,0.0,0.0,0.0,0.0,0.0,0.0,0.0,0.0,0.5316,0.6018,0.7357,0.9607,1.1015,1.1107,0.0,0.0,1.427,1.3846,1.3741,1.4258,1.2132,0.9791,0.7382,0.5251,0.2839,0.0241,-0.1262,-0.2783,-0.4321,-0.5458,-0.5988,-0.6011,-0.7047,-0.7941,-0.8795,-1.0186,-1.0682,-1.0551,-1.1234,-1.2706,-1.4688,-1.5086,-1.511,-1.4912,-1.4891,-1.5161,-1.5467,-1.5947,-1.6114,-1.6198,-1.65,-1.659,-1.6664,-1.6484,-1.6484,-1.65,-1.6433,-1.6245,-1.6064,-1.602,-1.5937,-1.6065,-1.6695,-1.682,-1.7047,-1.7789,-1.791,-1.7893,-1.7994,-1.79,-1.78,-1.7621,-1.7527,-1.7527,-1.7326,-1.7326,-1.7326,-1.7326,-1.7326,-1.7426,-1.7628,-1.7628,-1.7714,-1.8071,-1.8395,-1.9047,-1.9953,-2.0192,-2.0598,-2.1201,-2.0797,-2.0538,-2.0331,-2.0727,-2.1024,-2.1131,-2.1302,-2.1392,-2.1392,-2.1425,-2.128,0.6627,0.5923,0.0,0.4904,0.407,0.0,0.2745,0.0,0.2071,0.0,0.0,0.0,0.0,0.0,0.0,0.0,0.0,0.0,0.0,0.4629,0.5068,0.6023,0.8143,0.9658,0.9959,1.1132,1.2236,1.3066,1.3104,1.3272,1.3641,1.1402,0.9085,0.6744,0.3867,0.1072,-0.1626,-0.3242,-0.4734,-0.6105,-0.6843,-0.7356,-0.7632,-0.849,-0.9336,-1.0175,-1.1307,-1.2051,-1.2592,-1.3018,-1.3826,-1.4844,-1.524,-1.5225,-1.5031,-1.5049,-1.5367,-1.5809,-1.6338,-1.6378,-1.6273,-1.6566,-1.6746,-1.682,-1.6738,-1.6738,-1.6812,-1.6582,-1.6484,-1.6312,-1.6268,-1.6095,-1.6247,-1.7093,-1.717,-1.7309,-1.8195,-1.8064,-1.7827,-1.8156,-1.8187,-1.8094,-1.7908,-1.7815,-1.7714,-1.7326,-1.7426,-1.7426,-1.7426,-1.752,-1.7714,-1.7916,-1.7908,-1.8272,-1.8819,-1.8932,-1.9289,-1.9911,-2.0374,-2.0797,-2.1283,-2.1086,-2.0817,-2.0494,-2.0898,-2.1195,-2.1311,-2.1482,-2.1482,-2.1482,-2.1741,-2.183]},{"header":{"parameterUnit":"m.s-1","parameterCategory":1,"la1":30.6,"la2":29.2853,"lo1":-89.7004,"lo2":-87.6739,"dy":0.0162,"dx":0.0183,"nx":112,"ny":82,"refTime":"2023-05-16T12:00:00:Z","depth":0,"parameterNumber":3,"parameterNumberName":"V-component_of_WINDS"},"data":[0.0,0.0,0.0,0.0,0.0,0.0,0.0,0.0,0.0,0.0,0.0,0.0,0.0,0.0,0.0,0.0,0.0,0.0,0.0,0.0,0.0,0.0,0.0,0.0,0.0,0.0,0.0,0.0,0.0,0.0,0.0,0.0,0.0,0.0,0.0,0.0,0.0,0.0,0.0,0.0,0.0,0.0,0.0,0.0,0.0,0.0,0.0,0.0,0.0,0.0,0.0,0.0,0.0,0.0,0.0,0.0,0.0,0.0,0.0,0.0,0.0,0.0,0.0,0.0,0.0,0.0,0.0,0.0,0.0,0.0,0.0,0.0,0.0,0.0,0.0,0.0,0.0,0.0,0.0,0.0,0.0,0.0,0.0,0.0,0.0,0.0,0.0,0.0,0.0,0.0,-0.9354,-1.0162,-1.2781,-1.4708,-1.5266,-1.6001,-1.6411,-1.6211,0.0,0.0,0.0,0.0,0.0,0.0,0.0,0.0,0.0,0.0,0.0,0.0,0.0,0.0,0.0,0.0,0.0,0.0,0.0,0.0,0.0,0.0,0.0,0.0,0.0,0.0,0.0,0.0,0.0,0.0,0.0,0.0,0.0,0.0,0.0,0.0,0.0,0.0,0.0,0.0,0.0,0.0,0.0,0.0,0.0,0.0,0.0,0.0,0.0,0.0,0.0,0.0,0.0,0.0,0.0,0.0,0.0,0.0,0.0,0.0,0.0,0.0,0.0,0.0,0.0,0.0,0.0,0.0,0.0,0.0,0.0,0.0,0.0,0.0,0.0,0.0,0.0,0.0,0.0,0.0,0.0,0.0,0.0,0.0,0.0,0.0,0.0,0.0,0.0,0.0,0.0,0.0,0.0,0.0,0.0,0.0,0.0,0.0,0.0,0.0,0.0,0.0,0.0,0.0,-0.9768,-1.2014,-1.3246,-1.4302,-1.522,-1.5937,-1.5922,-1.5039,0.0,0.0,0.0,0.0,0.0,0.0,0.0,0.0,0.0,0.0,0.0,0.0,0.0,0.0,0.0,0.0,0.0,0.0,0.0,0.0,0.0,0.0,0.0,0.0,0.0,0.0,0.0,0.0,0.0,0.0,0.0,0.0,0.0,0.0,0.0,0.0,0.0,0.0,0.0,0.0,0.0,0.0,0.0,0.0,0.0,0.0,0.0,0.0,0.0,0.0,0.0,0.0,0.0,0.0,0.0,0.0,0.0,0.0,0.0,0.0,0.0,0.0,0.0,0.0,0.0,0.0,0.0,0.0,0.0,0.0,0.0,0.0,0.0,0.0,0.0,0.0,0.0,0.0,0.0,0.0,0.0,0.0,0.0,0.0,0.0,0.0,0.0,0.0,0.0,0.0,0.0,0.0,0.0,0.0,0.0,0.0,0.0,0.0,0.0,0.0,0.0,0.0,0.0,-0.8692,-1.0142,-1.1783,-1.2908,-1.3884,-1.4663,-1.5686,-1.6083,-1.5605,-1.6233,0.0,0.0,0.0,0.0,0.0,0.0,0.0,0.0,0.0,0.0,0.0,0.0,0.0,0.0,0.0,0.0,0.0,0.0,0.0,0.0,0.0,0.0,0.0,0.0,0.0,0.0,0.0,0.0,0.0,0.0,0.0,0.0,0.0,0.0,0.0,0.0,0.0,0.0,0.0,0.0,0.0,0.0,0.0,0.0,0.0,0.0,0.0,0.0,0.0,0.0,0.0,0.0,0.0,0.0,0.0,0.0,0.0,0.0,0.0,0.0,0.0,0.0,0.0,0.0,0.0,0.0,0.0,0.0,0.0,0.0,0.0,0.0,0.0,0.0,0.0,0.0,0.0,0.0,0.0,0.0,0.0,0.0,0.0,0.0,0.0,0.0,0.0,0.0,0.0,0.0,0.0,0.0,0.0,0.0,0.0,0.0,0.0,0.0,0.0,0.0,0.0,0.0,-0.9134,-1.0237,-1.1277,-1.2483,-1.3484,-1.4143,-1.5211,-1.5867,-1.5934,-1.6476,0.0,0.0,0.0,0.0,0.0,0.0,0.0,0.0,0.0,0.0,0.0,0.0,0.0,0.0,0.0,0.0,0.0,0.0,0.0,0.0,0.0,0.0,0.0,0.0,0.0,0.0,0.0,0.0,0.0,0.0,0.0,0.0,0.0,0.0,0.0,0.0,0.0,0.0,0.0,0.0,0.0,0.0,0.0,0.0,0.0,0.0,0.0,0.0,0.0,0.0,0.0,0.0,0.0,0.0,0.0,0.0,0.0,0.0,0.0,0.0,0.0,0.0,0.0,0.0,0.0,0.0,0.0,0.0,0.0,0.0,0.0,0.0,0.0,0.0,0.0,0.0,0.0,0.0,0.0,0.0,0.0,0.0,0.0,0.0,0.0,0.0,0.0,0.0,0.0,0.0,0.0,0.0,0.0,0.0,0.0,0.0,0.0,0.0,0.0,0.0,0.0,0.0,-0.8851,-0.9684,-1.1469,-1.2246,-1.3045,-1.3935,-1.4279,-1.4551,-1.4874,-1.5172,0.0,0.0,0.0,0.0,0.0,0.0,0.0,0.0,0.0,0.0,0.0,0.0,0.0,0.0,0.0,0.0,0.0,0.0,0.0,0.0,0.0,0.0,0.0,0.0,0.0,0.0,0.0,0.0,0.0,0.0,0.0,0.0,0.0,0.0,0.0,0.0,0.0,0.0,0.0,0.0,0.0,0.0,0.0,0.0,0.0,0.0,0.0,0.0,0.0,0.0,0.0,0.0,0.0,0.0,0.0,0.0,0.0,0.0,0.0,0.0,0.0,0.0,0.0,0.0,0.0,0.0,0.0,0.0,0.0,0.0,0.0,0.0,0.0,0.0,0.0,0.0,0.0,0.0,0.0,0.0,0.0,0.0,0.0,0.0,0.0,0.0,0.0,0.0,0.0,0.0,0.0,0.0,0.0,0.0,0.0,0.0,0.0,0.0,0.0,0.0,0.0,0.0,-0.9296,-1.0019,-1.099,-1.1891,-1.2716,-1.3437,-1.4354,-1.4832,-1.4808,0.0,0.0,0.0,0.0,0.0,0.0,0.0,0.0,0.0,0.0,0.0,0.0,0.0,0.0,0.0,0.0,0.0,0.0,0.0,0.0,0.0,0.0,0.0,0.0,0.0,0.0,0.0,0.0,0.0,0.0,0.0,0.0,0.0,0.0,0.0,0.0,0.0,0.0,0.0,0.0,0.0,0.0,0.0,0.0,0.0,0.0,0.0,0.0,0.0,0.0,0.0,0.0,0.0,0.0,0.0,0.0,0.0,0.0,0.0,0.0,0.0,0.0,0.0,0.0,0.0,0.0,0.0,0.0,0.0,0.0,0.0,0.0,0.0,0.0,0.0,0.0,0.0,0.0,0.0,0.0,0.0,0.0,0.0,0.0,0.0,0.0,0.0,0.0,0.0,0.0,0.0,0.0,0.0,0.0,0.0,0.0,0.0,0.0,0.0,0.0,0.0,0.0,-0.9089,-0.9605,-1.0237,-1.0661,-1.1584,-1.2414,-1.3016,-1.4133,-1.4778,-1.4786,0.0,0.0,0.0,0.0,0.0,0.0,0.0,0.0,0.0,0.0,0.0,0.0,0.0,0.0,0.0,0.0,0.0,0.0,0.0,0.0,0.0,0.0,0.0,0.0,0.0,0.0,0.0,0.0,0.0,0.0,0.0,0.0,0.0,0.0,0.0,0.0,0.0,0.0,0.0,0.0,0.0,0.0,0.0,0.0,0.0,0.0,0.0,0.0,0.0,0.0,0.0,0.0,0.0,0.0,0.0,0.0,0.0,0.0,0.0,0.0,0.0,0.0,0.0,0.0,0.0,0.0,0.0,0.0,0.0,0.0,0.0,0.0,0.0,0.0,0.0,0.0,0.0,0.0,0.0,0.0,0.0,0.0,0.0,0.0,0.0,0.0,0.0,0.0,0.0,0.0,0.0,0.0,0.0,0.0,0.0,0.0,0.0,0.0,0.0,0.0,0.0,0.0,-0.9338,-0.966,-1.0187,-1.0645,-1.1443,-1.2157,-1.2764,-1.3497,-1.4133,0.0,0.0,0.0,0.0,0.0,0.0,0.0,0.0,0.0,0.0,0.0,0.0,0.0,0.0,0.0,0.0,0.0,0.0,0.0,0.0,0.0,0.0,0.0,0.0,0.0,0.0,0.0,0.0,0.0,0.0,0.0,0.0,0.0,0.0,0.0,0.0,0.0,0.0,0.0,0.0,0.0,0.0,0.0,0.0,0.0,0.0,0.0,0.0,0.0,0.0,0.0,0.0,0.0,0.0,0.0,0.0,0.0,0.0,0.0,0.0,0.0,0.0,0.0,0.0,0.0,0.0,0.0,0.0,0.0,0.0,0.0,0.0,0.0,0.0,0.0,0.0,0.0,0.0,0.0,0.0,0.0,0.0,0.0,0.0,0.0,0.0,0.0,0.0,0.0,0.0,0.0,0.0,0.0,0.0,0.0,0.0,0.0,0.0,0.0,0.0,0.0,0.0,0.0,-1.0039,-1.0184,-1.0576,-1.1073,-1.1674,-1.2452,-1.3437,-1.4089,-1.4869,-1.5787,0.0,0.0,0.0,0.0,0.0,0.0,0.0,0.0,0.0,0.0,0.0,0.0,0.0,0.0,0.0,0.0,0.0,0.0,0.0,0.0,0.0,0.0,0.0,0.0,0.0,0.0,0.0,0.0,0.0,0.0,0.0,0.0,0.0,0.0,0.0,0.0,0.0,0.0,0.0,0.0,0.0,0.0,0.0,0.0,0.0,0.0,0.0,0.0,0.0,0.0,0.0,0.0,0.0,0.0,0.0,0.0,0.0,0.0,0.0,0.0,0.0,0.0,0.0,0.0,0.0,0.0,0.0,0.0,0.0,0.0,0.0,0.0,0.0,0.0,0.0,0.0,0.0,0.0,0.0,0.0,0.0,0.0,0.0,0.0,0.0,0.0,0.0,0.0,0.0,0.0,0.0,0.0,0.0,0.0,0.0,0.0,0.0,0.0,0.0,0.0,0.0,0.0,-1.0731,-1.0793,-1.1141,-1.163,-1.2169,-1.288,-1.3732,-1.4606,-1.5407,-1.6083,0.0,0.0,0.0,0.0,0.0,0.0,0.0,0.0,0.0,0.0,0.0,0.0,0.0,0.0,0.0,0.0,0.0,0.0,0.0,0.0,0.0,0.0,0.0,0.0,0.0,0.0,0.0,0.0,0.0,0.0,0.0,0.0,0.0,0.0,0.0,0.0,0.0,0.0,0.0,0.0,0.0,0.0,0.0,0.0,0.0,0.0,0.0,0.0,0.0,0.0,0.0,0.0,0.0,0.0,0.0,0.0,0.0,0.0,0.0,0.0,0.0,0.0,0.0,0.0,0.0,0.0,0.0,0.0,0.0,0.0,0.0,0.0,0.0,0.0,0.0,0.0,0.0,0.0,0.0,0.0,0.0,0.0,0.0,0.0,0.0,0.0,0.0,0.0,0.0,0.0,0.0,0.0,0.0,0.0,0.0,0.0,0.0,0.0,0.0,0.0,0.0,0.0,-1.1532,-1.163,-1.1891,-1.2307,-1.2909,-1.3447,-1.3909,-1.5096,-1.5872,-1.5967,0.0,0.0,0.0,0.0,0.0,0.0,0.0,0.0,0.0,0.0,0.0,0.0,0.0,0.0,0.0,0.0,0.0,0.0,0.0,0.0,0.0,0.0,0.0,0.0,0.0,0.0,0.0,0.0,0.0,0.0,0.0,0.0,0.0,0.0,0.0,0.0,0.0,0.0,0.0,0.0,0.0,0.0,0.0,0.0,0.0,0.0,0.0,0.0,0.0,0.0,0.0,0.0,0.0,0.0,0.0,0.0,0.0,0.0,0.0,0.0,-2.0895,-2.0509,0.0,0.0,0.0,0.0,0.0,0.0,0.0,0.0,0.0,0.0,0.0,0.0,0.0,0.0,0.0,0.0,0.0,0.0,0.0,0.0,0.0,0.0,0.0,0.0,0.0,0.0,0.0,0.0,0.0,0.0,0.0,0.0,0.0,0.0,0.0,0.0,0.0,0.0,0.0,0.0,-1.2383,-1.2634,-1.2986,-1.3283,-1.3653,-1.4215,-1.4971,-1.5576,-1.6219,-1.7079,-1.7216,0.0,0.0,0.0,0.0,0.0,0.0,0.0,0.0,0.0,0.0,0.0,0.0,0.0,0.0,0.0,0.0,0.0,0.0,0.0,0.0,0.0,0.0,0.0,0.0,0.0,0.0,0.0,0.0,0.0,0.0,0.0,0.0,0.0,0.0,0.0,0.0,0.0,0.0,0.0,0.0,0.0,0.0,0.0,0.0,0.0,0.0,0.0,0.0,0.0,0.0,0.0,0.0,0.0,0.0,0.0,0.0,0.0,0.0,0.0,-2.1994,-2.1555,0.0,0.0,0.0,0.0,0.0,0.0,0.0,0.0,0.0,0.0,0.0,0.0,0.0,0.0,0.0,0.0,0.0,0.0,0.0,0.0,0.0,0.0,0.0,0.0,0.0,0.0,0.0,0.0,0.0,0.0,0.0,0.0,0.0,0.0,0.0,0.0,0.0,0.0,0.0,0.0,-1.3893,-1.4027,-1.4297,-1.463,-1.4892,-1.5297,-1.5864,-1.6287,-1.6854,-1.7585,-1.8099,0.0,0.0,0.0,0.0,0.0,0.0,0.0,0.0,0.0,0.0,0.0,0.0,0.0,0.0,0.0,0.0,0.0,0.0,0.0,0.0,0.0,0.0,0.0,0.0,0.0,0.0,0.0,0.0,0.0,0.0,0.0,0.0,0.0,0.0,0.0,0.0,0.0,0.0,0.0,0.0,0.0,0.0,0.0,0.0,0.0,0.0,0.0,0.0,0.0,0.0,0.0,0.0,0.0,-2.0532,-2.0945,-2.1534,-2.2178,-2.2812,-2.3359,-2.2645,-2.2238,-2.2057,-2.1165,0.0,0.0,0.0,0.0,0.0,0.0,0.0,0.0,0.0,0.0,0.0,0.0,0.0,0.0,0.0,0.0,0.0,0.0,0.0,0.0,0.0,0.0,-1.7564,-1.8206,-1.7968,-1.7783,-1.8586,0.0,0.0,0.0,0.0,0.0,0.0,0.0,0.0,0.0,0.0,0.0,-1.5486,-1.5514,-1.5664,-1.5983,-1.6201,-1.6416,-1.6642,-1.7089,-1.7516,-1.7882,-1.8847,-1.9369,0.0,0.0,0.0,0.0,0.0,0.0,0.0,0.0,0.0,0.0,0.0,0.0,0.0,0.0,0.0,0.0,0.0,0.0,0.0,0.0,0.0,0.0,0.0,0.0,0.0,0.0,0.0,0.0,0.0,0.0,0.0,0.0,-1.532,-1.65,0.0,0.0,0.0,0.0,0.0,0.0,0.0,0.0,0.0,0.0,0.0,0.0,0.0,-2.0314,-2.037,-2.0384,-2.0394,-2.0396,-2.1735,-2.2364,-2.2391,-2.3724,-2.3989,-2.3381,-2.3213,0.0,-2.2983,-2.1377,0.0,0.0,0.0,0.0,0.0,0.0,0.0,0.0,0.0,0.0,0.0,0.0,0.0,0.0,0.0,0.0,0.0,0.0,0.0,0.0,0.0,0.0,-1.9896,-2.0114,-1.9363,-1.8871,-1.99,-1.8989,-1.8194,-1.8975,-1.9036,-1.9121,0.0,0.0,0.0,0.0,0.0,0.0,-1.6648,-1.6754,-1.6857,-1.6941,-1.7146,-1.7338,-1.7393,-1.7814,-1.8109,-1.824,-1.8662,-1.9051,-1.9465,-2.0188,0.0,0.0,0.0,0.0,0.0,0.0,0.0,0.0,0.0,0.0,0.0,0.0,0.0,0.0,0.0,0.0,0.0,0.0,0.0,0.0,0.0,0.0,0.0,0.0,0.0,0.0,0.0,0.0,0.0,-1.4999,-1.6281,-1.7491,-1.8458,-1.8977,0.0,0.0,0.0,0.0,0.0,0.0,0.0,0.0,0.0,-2.0208,-2.0333,-2.043,-2.046,-2.0908,-2.0876,-2.0404,-2.1509,-2.1962,-2.1854,-2.2801,-2.3311,-2.3454,-2.331,-2.3325,-2.327,-2.1606,-2.1722,-2.2797,0.0,0.0,0.0,0.0,-2.1016,-2.0819,-2.1639,-2.1771,-2.1716,-2.2419,0.0,0.0,0.0,0.0,0.0,0.0,0.0,-1.9755,-2.0517,-2.0509,-2.043,-2.0991,-2.0014,-1.9247,-2.0229,-1.9544,-1.907,-2.0171,-2.0065,-1.9908,-2.0291,-1.9899,0.0,0.0,0.0,-1.8411,-1.7974,-1.7915,-1.7867,-1.7867,-1.7868,-1.7895,-1.7962,-1.8121,-1.8358,-1.8592,-1.9214,-1.9762,-2.0147,-2.1308,-2.1401,0.0,0.0,0.0,0.0,0.0,0.0,0.0,0.0,0.0,0.0,0.0,0.0,0.0,0.0,0.0,0.0,0.0,0.0,0.0,0.0,0.0,0.0,0.0,0.0,0.0,0.0,0.0,0.0,-1.6077,-1.7251,-1.8463,-1.9319,-1.9964,0.0,0.0,0.0,0.0,0.0,0.0,-2.0392,-2.0532,-2.0532,-2.0356,-2.0659,-2.0827,-2.0823,-2.1651,-2.1731,-2.1089,-2.1615,-2.1801,-2.1694,-2.2029,-2.2445,-2.2881,-2.2955,-2.3064,-2.306,-2.1683,-2.2105,-2.3445,-2.1926,-2.1984,-2.2867,-2.2613,-2.2474,-2.2499,-2.3033,-2.3082,-2.2944,-2.3235,-2.3143,-2.2831,-2.2423,0.0,0.0,0.0,0.0,-2.083,-2.1954,-2.1655,-2.1215,-2.1956,-2.0948,-2.0114,-2.1101,-2.0727,-2.0441,-2.131,-2.1028,-2.0738,-2.116,-2.0827,0.0,-1.9712,-1.9682,-1.9576,-1.9192,-1.8921,-1.8808,-1.8808,-1.8606,-1.8489,-1.8553,-1.8592,-1.8707,-1.8936,-1.966,-2.0243,-2.055,-2.1842,-2.2033,-2.086,0.0,0.0,0.0,0.0,0.0,0.0,0.0,0.0,0.0,0.0,0.0,0.0,0.0,0.0,0.0,0.0,0.0,0.0,0.0,0.0,0.0,0.0,0.0,0.0,0.0,0.0,0.0,0.0,0.0,-1.9316,-1.982,0.0,0.0,0.0,0.0,-2.2588,-2.2714,-2.2444,-2.1733,-2.1701,-2.1335,-2.0527,-2.1308,-2.1729,-2.1731,-2.2608,-2.3014,-2.2968,-2.286,-2.2796,-2.2709,-2.2552,-2.2021,-2.1274,-2.2092,-2.2382,-2.221,-2.1482,-2.2154,-2.3506,-2.259,-2.3167,-2.4467,-2.4239,-2.4173,-2.4192,-2.4302,-2.4154,-2.3983,-2.4389,-2.3903,-2.3171,-2.3063,-2.2484,0.0,0.0,-2.2069,-2.2614,-2.2454,-2.2705,-2.3129,-2.3418,-2.2708,-2.2228,-2.3313,-2.2914,-2.2196,-2.1777,-2.1544,-2.165,-2.2306,0.0,-2.1702,-2.1089,-2.0964,-2.0682,-2.012,-1.9782,-1.9654,-1.9654,-1.9398,-1.9265,-1.9265,-1.9413,-1.9501,-1.9376,-1.9654,-1.994,-2.022,-2.0777,-2.1142,-2.1155,-2.0684,0.0,0.0,0.0,0.0,0.0,0.0,0.0,0.0,0.0,0.0,0.0,0.0,0.0,0.0,0.0,0.0,0.0,0.0,0.0,0.0,0.0,0.0,0.0,0.0,0.0,0.0,0.0,0.0,-1.9432,-1.9804,0.0,-2.0706,-2.0711,-2.0862,-2.1293,-2.1351,-2.1239,-2.099,-2.1494,-2.1665,-2.1343,-2.2187,-2.2634,-2.265,-2.3508,-2.3659,-2.3103,-2.2959,-2.2596,-2.2023,-2.1809,-2.1828,-2.2019,-2.2331,-2.2464,-2.2438,-2.2204,-2.3011,-2.4302,-2.2911,-2.3354,-2.4771,-2.4632,-2.4551,-2.4548,-2.4594,-2.453,-2.4478,-2.4679,-2.4439,-2.4081,-2.4029,-2.3713,-2.3335,-2.3213,-2.3338,-2.349,-2.3376,-2.3482,-2.3611,-2.3704,-2.3024,-2.264,-2.3631,-2.317,-2.2664,-2.2976,-2.287,-2.274,-2.2746,-2.2934,-2.2811,-2.1933,-2.1917,-2.1617,-2.0613,-2.0292,-2.003,-1.9726,-1.953,-1.9398,-1.9376,-1.9413,-1.9413,-1.9213,-1.9654,-1.9854,-1.9767,-2.0685,-2.0749,-1.9775,-1.9885,-1.9558,0.0,0.0,0.0,0.0,0.0,0.0,0.0,0.0,0.0,0.0,0.0,0.0,0.0,0.0,0.0,0.0,0.0,0.0,0.0,0.0,0.0,0.0,0.0,0.0,0.0,-1.8374,-1.8971,-1.966,-1.9926,-2.026,-2.0798,-2.0804,-2.0931,-2.1308,-2.1333,-2.1227,-2.0945,-2.1486,-2.1791,-2.1803,-2.2612,-2.3221,-2.3535,-2.4374,-2.4375,-2.3534,-2.3444,-2.2948,-2.2066,-2.1922,-2.2124,-2.2622,-2.2898,-2.3039,-2.3067,-2.3103,-2.3871,-2.4913,-2.3501,-2.3651,-2.4583,-2.4506,-2.4461,-2.4461,-2.4728,-2.4832,-2.4832,-2.4889,-2.4842,-2.4727,-2.4663,-2.4526,-2.4394,-2.4284,-2.4198,-2.4101,-2.4094,-2.4048,-2.4014,-2.4023,-2.36,-2.3361,-2.4042,-2.3695,-2.3381,-2.3871,-2.3725,-2.3407,-2.305,-2.3301,-2.3275,-2.2371,-2.2316,-2.2026,-2.1055,-2.073,-2.0444,-2.008,-1.9869,-1.9711,-1.9654,-1.9581,-1.9435,-1.9199,-1.969,-1.9797,-1.9406,-2.0225,-2.0115,-1.891,-1.914,-1.8857,-1.7912,0.0,0.0,0.0,0.0,0.0,0.0,0.0,0.0,0.0,0.0,0.0,0.0,0.0,0.0,0.0,0.0,0.0,0.0,0.0,0.0,0.0,0.0,0.0,-1.8354,-1.9275,-1.9917,-2.0003,-2.0227,-2.0694,-2.1572,-2.1687,-2.205,-2.2862,-2.2975,-2.2639,-2.1808,-2.1818,-2.1831,-2.183,-2.2611,-2.3483,-2.4429,-2.5219,-2.5215,-2.444,-2.4374,-2.3888,-2.3049,-2.2911,-2.2843,-2.289,-2.3715,-2.4051,-2.4011,-2.4088,-2.4563,-2.5182,-2.4405,-2.4075,-2.4051,-2.4051,-2.4005,-2.4063,-2.4843,-2.5115,-2.5115,-2.5106,-2.505,-2.5006,-2.493,-2.4858,-2.4795,-2.4659,-2.4576,-2.4525,-2.4525,-2.4467,-2.4441,-2.4505,-2.4512,-2.4538,-2.4674,-2.4607,-2.4497,-2.4373,-2.4114,-2.3739,-2.3312,-2.3265,-2.3093,-2.2445,-2.2248,0.0,-2.1462,-2.1135,-2.0876,-2.0758,-2.0522,-2.0316,-2.0212,-2.0005,-1.9741,-1.9472,-1.9858,-1.9807,-1.9273,-1.9457,-1.9281,-1.8646,-1.8549,-1.8093,-1.7219,0.0,0.0,0.0,0.0,0.0,0.0,0.0,0.0,0.0,0.0,0.0,0.0,0.0,0.0,0.0,0.0,0.0,0.0,0.0,0.0,0.0,-1.8024,-1.8756,-1.9591,-1.9475,-1.9561,-2.0218,-1.9793,-1.9774,-2.0611,-2.1301,-2.1537,-2.1141,-2.2289,-2.2367,-2.0927,-2.201,-2.2648,-2.2605,-2.3517,-2.4401,-2.5187,-2.5504,-2.557,-2.5336,-2.4015,-2.3573,-2.3897,-2.2565,-2.2643,-2.3792,-2.345,-2.365,-2.4212,-2.4247,-2.4389,-2.4544,-2.429,-2.4517,-2.5011,-2.5029,-2.5009,-2.5011,-2.5245,-2.5293,-2.5245,-2.5245,-2.5224,-2.5212,-2.5152,-2.5101,-2.5089,-2.5053,-2.5011,-2.5016,-2.5004,-2.4955,-2.4898,-2.487,-2.4828,-2.4795,-2.478,-2.5089,-2.5336,-2.5264,-2.5612,-2.5429,-2.3905,-2.357,-2.3382,-2.3007,-2.2708,-2.231,-2.184,-2.1936,-2.1939,-2.1555,-2.1871,-2.2061,-2.1906,-2.1738,-2.1264,-2.0467,-2.1218,-2.1242,-2.0333,-2.0978,-2.0842,-1.9712,-1.9203,-1.8528,0.0,0.0,0.0,0.0,0.0,0.0,0.0,0.0,0.0,0.0,0.0,0.0,0.0,0.0,0.0,0.0,0.0,0.0,0.0,0.0,0.0,0.0,-1.86,-1.927,-2.0205,-1.9937,-1.9833,-2.039,-1.9989,-1.9869,-2.0302,-2.1171,-2.1499,-2.0977,-2.2204,-2.2526,-2.156,-2.2424,-2.3087,-2.3359,-2.3983,-2.4685,-2.5447,-2.5581,-2.5496,-2.5158,-2.4456,-2.4192,-2.4288,-2.3584,-2.3832,-2.4759,-2.4287,-2.4385,-2.4841,-2.4837,-2.483,0.0,0.0,0.0,0.0,0.0,-2.4962,-2.4995,-2.5355,-2.5464,-2.5476,-2.582,-2.568,-2.5509,-2.6207,-2.6163,-2.5866,-2.5873,-2.5843,-2.5736,-2.5383,-2.5239,-2.5178,-2.5178,-2.5367,-2.5565,-2.552,-2.5721,-2.5972,-2.619,-2.6228,0.0,-2.4965,-2.4451,-2.3904,-2.321,-2.311,-2.2982,-2.2618,-2.2874,-2.2965,-2.2631,-2.2805,-2.288,-2.2739,-2.2534,0.0,0.0,0.0,-2.182,-2.1042,-2.1159,0.0,0.0,0.0,-1.9368,-1.8808,0.0,0.0,0.0,-1.7357,-1.6881,0.0,0.0,0.0,0.0,0.0,0.0,0.0,0.0,0.0,0.0,0.0,0.0,0.0,0.0,0.0,0.0,-1.9098,-1.9488,-2.0352,-2.0434,-2.0424,-2.0473,-2.039,-2.0355,-2.0405,-2.128,-2.1815,-2.1707,-2.2538,-2.3009,-2.2907,-2.2894,0.0,0.0,0.0,-2.4549,-2.5253,-2.5482,-2.5247,-2.4544,-2.5215,-2.5153,-2.4466,-2.5143,-2.55,-2.56,-2.5602,-2.5605,-2.5605,-2.5592,-2.5595,-2.5605,-2.559,-2.5172,-2.4553,-2.453,-2.4507,-2.4572,-2.5323,0.0,0.0,-2.6545,-2.6281,-2.5964,-2.76,-2.7559,-2.6967,-2.6968,-2.6929,-2.669,-2.5816,-2.5529,-2.5488,-2.5556,-2.6053,-2.6535,-2.6619,-2.653,-2.6601,-2.7018,-2.6507,-2.6055,-2.6227,-2.5584,-2.4633,-2.347,-2.3684,-2.3898,-2.3687,-2.3921,-2.405,-2.3885,0.0,0.0,-2.3211,-2.2991,-2.2645,-2.221,-2.221,-2.2085,-2.1749,-2.0966,-2.0342,-1.9935,-2.0466,-2.0568,-2.0261,-2.1409,-2.1636,-2.1091,-1.962,-1.8967,0.0,0.0,0.0,0.0,0.0,0.0,0.0,0.0,0.0,0.0,0.0,0.0,0.0,0.0,0.0,-1.903,-1.9713,-2.0259,-2.0391,-2.0408,-2.0402,-2.0413,-1.9798,-1.9643,-2.0328,-2.1823,-2.2456,-2.1758,-2.3093,-2.3642,-2.2929,-2.2905,-2.2925,-2.2958,-2.3752,-2.4242,-2.4362,-2.5174,-2.5517,-2.5356,-2.4832,0.0,-2.5329,-2.4807,-2.4949,-2.5605,-2.56,-2.5605,-2.5598,-2.5595,-2.559,-2.5595,-2.5597,-2.5548,-2.545,-2.5395,-2.5387,-2.5442,-2.5561,-2.5636,-2.5801,-2.662,-2.676,-2.6824,-2.7872,-2.8064,0.0,-2.7922,-2.7963,-2.7786,-2.6913,-2.6637,-2.6578,-2.654,-2.6554,-2.673,-2.7343,-2.7775,-2.7867,-2.7223,-2.7886,-2.8153,-2.6762,-2.6172,-2.5703,-2.525,-2.513,-2.4983,-2.4747,-2.5084,-2.5242,-2.5013,-2.5254,-2.5383,-2.5183,-2.496,-2.4531,-2.3877,-2.3648,-2.3655,-2.3952,-2.3584,-2.3091,-2.2644,-2.2717,-2.2507,-2.2038,-2.2455,-2.2434,-2.1935,-2.0782,-2.0093,0.0,0.0,0.0,0.0,0.0,0.0,0.0,0.0,0.0,0.0,0.0,-1.8781,-1.8879,0.0,-1.963,-1.9734,-2.0124,-2.0398,-2.0399,-2.0369,-2.0358,-2.0399,-1.9987,-1.9868,-2.0308,-2.1507,-2.2209,-2.2115,-2.3369,-2.4091,-2.3953,-2.4045,-2.4061,-2.3936,-2.4508,-2.4768,-2.4692,-2.5271,-2.5565,-2.56,-2.5164,-2.5169,-2.5535,-2.5109,-2.5138,-2.5546,-2.5556,-2.5556,-2.5558,-2.5546,-2.5556,-2.5551,-2.5595,-2.5623,-2.5642,-2.56,-2.5637,-2.5751,-2.6119,-2.628,-2.6559,-2.7808,-2.7907,-2.7791,-2.9098,-2.9199,-2.8867,-2.8886,-2.8925,-2.8749,-2.7883,-2.7592,-2.7526,-2.7472,-2.7699,-2.8011,-2.8286,-2.8531,-2.8654,-2.8487,-2.8633,-2.8608,-2.7999,-2.7661,-2.7079,-2.6018,-2.5976,-2.6026,-2.583,-2.6178,-2.6375,-2.6166,-2.6218,-2.6156,-2.5885,-2.5642,-2.5309,-2.482,-2.4675,-2.4625,-2.471,-2.4492,-2.4147,-2.3767,-2.3638,-2.3465,-2.3143,-2.3172,-2.3083,-2.2799,-2.1941,-2.1175,0.0,0.0,0.0,0.0,0.0,0.0,0.0,-1.8984,-1.9573,-1.9688,-1.9867,-2.0065,-2.026,-2.0241,-2.0231,-2.0352,-2.0337,-2.0322,-2.0379,-2.0323,-2.0308,-2.0342,-2.0287,-2.0282,-2.0269,-2.1022,-2.1772,-2.2491,-2.3333,-2.4168,-2.499,-2.5043,-2.5013,-2.4938,-2.5215,-2.5266,-2.5071,-2.5344,-2.5508,-2.5586,-2.5571,-2.5554,-2.5503,-2.5486,-2.5487,-2.547,-2.5464,-2.5455,-2.5464,-2.5472,-2.5476,-2.5503,-2.5544,-2.5688,-2.581,-2.5664,-2.575,-2.6028,-2.6676,-2.7047,-2.7476,-2.9,-2.902,-2.8747,-3.0311,-3.0311,-2.9764,-2.9822,-2.9843,-2.9648,-2.8758,-2.8489,-2.8443,-2.8372,-2.8825,-2.9282,-2.9262,-2.9193,-2.9236,-2.9558,-2.9041,-2.867,-2.8979,-2.8942,-2.8306,-2.6742,-2.6817,-2.7048,-2.6908,-2.7126,-2.7244,-2.7103,-2.6824,-2.6488,-2.6137,-2.5901,-2.5642,-2.5486,-2.5448,-2.5294,-2.4982,-2.4815,-2.4599,-2.4271,-2.4147,-2.4021,-2.3967,-2.3754,-2.3668,-2.3537,-2.3009,-2.2221,-2.0151,-2.0442,-2.0856,-2.0275,-2.0065,-2.0089,0.0,-2.0071,-1.9689,-1.9705,-1.9915,-2.0107,-2.0203,-2.0212,-2.0218,-2.0294,-2.0306,-2.0304,-2.0308,-2.0258,-2.0184,-2.0134,-2.0126,-2.0155,-2.0205,-2.0933,-2.176,-2.2621,-2.2741,-2.348,-2.5094,-2.4521,-2.4109,-2.4058,-2.4819,-2.4899,-2.4231,-2.5029,-2.5445,-2.5512,-2.5517,-2.5503,-2.551,-2.5451,-2.5409,-2.5397,-2.536,-2.5313,-2.5332,-2.539,-2.5407,-2.5421,-2.5492,-2.5975,-2.6579,-2.5857,-2.6084,-2.678,-2.6874,-2.7405,-2.8223,-2.9182,-2.9432,-2.9536,-3.0515,-3.0738,-3.0667,-3.0667,-3.0718,-3.0547,-2.9617,-2.9357,-2.9333,-2.9266,-2.9223,-2.9378,-3.0009,-3.0113,-2.986,-2.914,-2.9282,-2.9324,-2.8612,-2.881,-2.8879,-2.8402,-2.8147,-2.8029,-2.7946,-2.7754,-2.7582,-2.7465,-2.7244,-2.6989,-2.6657,-2.64,-2.6206,-2.6096,-2.5934,-2.5749,-2.554,-2.5333,-2.5107,-2.4823,-2.4751,-2.4645,-2.4508,-2.4441,-2.4276,-2.4036,-2.3782,-2.3157,-2.168,-2.1369,-2.117,-2.1585,-2.153,-2.1403,-2.1612,-2.1451,-2.1131,-2.0671,-2.0714,-2.069,-2.0136,-2.0108,-2.0345,-2.0812,-2.0482,-2.0365,-2.0914,-2.0465,-2.0068,-1.9996,-1.9717,-1.9665,-2.0059,-2.0633,-2.1365,-2.2277,-2.2893,-2.3739,-2.4854,-2.4693,-2.4595,-2.461,-2.4943,-2.5026,-2.4803,-2.5158,-2.5376,-2.5448,-2.5445,-2.541,-2.5376,-2.5351,-2.5327,-2.5283,-2.5209,-2.5192,-2.5184,-2.5262,-2.5283,-2.5341,-2.5909,-2.6388,-2.6702,-2.6411,-2.684,-2.7673,-2.8179,-2.8626,-2.9102,-2.9966,-3.0263,-3.033,-3.0689,-3.0794,-3.0804,-3.0796,-3.0827,-3.0759,-3.0365,-3.0258,-3.0229,-3.0166,-3.0067,-3.0076,-3.0309,-3.0336,-3.0164,-2.9693,-2.9671,-2.9621,-2.9174,-2.9111,-2.9089,-2.8929,-2.8612,-2.8327,-2.8182,-2.7996,-2.7777,-2.7587,-2.7369,-2.7195,-2.7021,-2.6758,-2.6521,-2.6347,-2.6225,-2.6046,-2.568,-2.5754,-2.5605,-2.5208,-2.5285,-2.5224,-2.5005,-2.4791,-2.463,-2.4492,-2.4162,-2.3724,-2.2112,-2.192,-2.1805,-2.2571,-2.2634,-2.2512,-2.2634,-2.2544,-2.2294,-2.1718,-2.1627,-2.1434,-2.067,-2.062,-2.0874,-2.1463,-2.1043,-2.0907,-2.1661,-2.0889,-2.0172,-2.0055,-1.9374,-1.9207,-1.9982,-2.0376,-2.1114,-2.235,-2.3186,-2.3936,-2.469,-2.4877,-2.4981,-2.5037,-2.505,-2.5106,-2.5239,-2.5235,-2.5293,-2.5361,-2.5365,-2.5348,-2.5264,-2.5236,-2.5218,-2.5168,-2.5122,-2.5096,-2.5096,-2.5153,-2.5298,-2.5589,-2.629,-2.691,-2.7402,-2.7466,-2.7898,-2.8547,-2.9188,-2.9588,-2.9941,-3.0564,-3.0789,-3.0799,-3.0808,-3.0793,-3.0845,-3.1081,-3.0992,-3.0907,-3.1385,-3.1162,-3.0833,-3.1028,-3.0812,-3.0576,-3.046,-3.0414,-3.0311,-3.0166,-3.014,-3.005,-2.9699,-2.962,-2.9499,-2.9211,-2.9022,-2.8869,-2.8667,-2.8699,-2.8623,-2.8398,-2.815,-2.8007,-2.7962,-2.767,-2.7386,-2.7161,-2.7091,-2.6831,-2.627,-2.6416,-2.6261,-2.5642,-2.5717,-2.5642,-2.547,-2.5162,-2.4974,-2.4974,-2.4558,-2.4313,-2.0399,-2.1635,-2.2922,-2.2902,-2.3191,-2.3474,-2.3548,-2.3059,-2.2585,-2.2556,-2.2452,-2.2329,-2.2158,-2.2029,-2.2002,-2.2162,-2.2096,-2.2144,-2.2439,-2.1493,-2.0676,-2.0414,-1.921,-1.8889,-2.0076,-2.0278,-2.1148,-2.322,-2.3385,-2.3811,-2.4756,-2.4794,-2.4837,-2.4902,-2.4915,-2.4981,-2.5096,-2.5115,-2.5171,-2.5313,-2.5303,-2.5274,-2.5203,-2.5134,-2.5099,-2.5101,-2.5099,-2.5087,-2.5101,-2.5094,-2.5606,-2.6369,-2.646,-2.7585,-2.9137,-2.9197,-2.9276,-2.9368,-2.9382,-2.9959,-3.0664,-3.0684,-3.0753,-3.0803,-3.0798,-3.0799,-3.0977,-3.182,-3.1448,-3.1198,-3.2871,-3.2065,-3.1008,-3.1785,-3.1254,-3.0585,-3.05,-3.0394,-3.0279,-3.0202,-3.0665,-3.0785,-2.9952,-3.0206,-3.0256,-2.9413,-2.9729,-2.9965,-2.9779,-3.0212,-3.0463,-3.035,-3.0011,-2.9819,-2.9817,-2.9437,-2.9158,-2.9053,-2.8856,-2.8353,-2.7593,-2.7414,-2.7028,-2.6312,-2.6026,-2.5881,-2.5897,-2.5691,-2.5524,-2.5378,-2.5185,-2.4974,-2.1043,-2.1985,-2.2998,-2.3344,-2.3725,-2.4091,-2.434,-2.4266,-2.398,-2.3438,-2.3336,-2.3082,-2.2287,-2.2027,-2.2154,-2.2876,-2.2393,-2.2206,-2.3101,-2.2322,-2.1611,-2.1479,-2.0789,-2.0758,-2.1896,-2.06,-2.0336,-2.1901,-2.2569,-2.305,-2.3326,-2.4195,-2.4707,-2.4764,-2.4808,-2.4889,-2.5034,-2.507,-2.5145,-2.5226,-2.5198,-2.5163,-2.5133,-2.5057,-2.5025,-2.5037,-2.5025,-2.5006,-2.498,-2.501,-2.5557,-2.646,-2.7071,-2.8049,-2.9201,-2.9853,-3.0144,-3.0197,-3.0211,-3.0423,-3.0691,-3.0691,-3.073,-3.0734,-3.0798,-3.1198,-3.1719,-3.2015,-3.2303,-3.2653,-3.3242,-3.2541,-3.1714,-3.1957,-3.132,-3.0645,-3.052,-3.0471,-3.0544,-3.0925,-3.1099,-3.1027,-3.0602,-3.0617,-3.0686,-3.0743,-3.0302,-3.0093,-3.0405,-3.0618,-3.0664,-3.0404,-3.0269,-3.0113,-2.9986,-2.9256,-2.8972,-2.9264,-2.8305,-2.7726,-2.7647,-2.7264,-2.6859,-2.6434,-2.6399,-2.6312,-2.6208,-2.6046,-2.599,-2.5937,-2.5626,-2.54,-2.1377,-2.2123,-2.2881,-2.3518,-2.3969,-2.4334,-2.4576,-2.4728,-2.4674,-2.4132,-2.3727,-2.3326,-2.2792,-2.2326,-2.2327,-2.3385,-2.2966,-2.2843,-2.3764,-2.2957,-2.224,-2.2121,-2.1529,-2.1516,-2.2586,-2.0983,-2.0537,-2.2191,-2.2527,-2.2819,-2.3196,-2.4061,-2.4566,-2.4663,-2.4745,-2.4844,-2.4959,-2.501,-2.5075,-2.5156,-2.5094,-2.5037,-2.5021,-2.498,-2.4961,-2.495,-2.496,-2.4955,-2.4953,-2.4987,-2.5546,-2.6447,-2.7344,-2.8279,-2.9206,-3.0128,-3.0509,-3.0569,-3.0595,-3.0645,-3.0703,-3.0703,-3.0704,-3.0775,-3.1117,-3.1635,-3.2235,-3.2857,-3.322,-3.3545,-3.4179,-3.3443,-3.2545,-3.2479,-3.1806,-3.1037,-3.0607,-3.0471,-3.066,-3.1278,-3.1537,-3.161,-3.1431,-3.1254,-3.1321,-3.1911,-3.1334,-3.1065,-3.1689,-3.1711,-3.1624,-3.1458,-3.1244,-3.1087,-3.0991,-3.0307,-2.9883,-2.9903,-2.9248,-2.8561,-2.7911,-2.7742,-2.7386,-2.6742,-2.6657,-2.6572,-2.6521,-2.6435,-2.633,-2.626,-2.6066,-2.5848,-2.1401,-2.2039,-2.2737,-2.3495,-2.3958,-2.428,-2.4351,-2.4561,-2.4714,-2.4615,-2.3721,-2.3119,-2.3648,-2.2905,-2.2551,-2.3589,-2.3759,-2.3911,-2.4301,-2.3378,-2.2593,-2.2406,-2.1532,-2.1327,-2.2277,-2.1424,-2.1704,-2.3925,-2.3141,-2.3062,-2.4118,-2.4303,-2.4447,-2.4588,-2.4655,-2.4751,-2.4888,-2.4898,-2.4968,-2.5084,-2.5038,-2.4966,-2.4908,-2.4893,-2.4912,-2.4908,-2.49,-2.4945,-2.4991,-2.4986,-2.5531,-2.6397,-2.7285,-2.8245,-2.919,-3.0033,-3.0409,-3.0501,-3.0577,-3.064,-3.07,-3.07,-3.0703,-3.0847,-3.1676,-3.2052,-3.2508,-3.4168,-3.4098,-3.3916,-3.5565,-3.4715,-3.3379,-3.3327,-3.2596,-3.1678,-3.0762,-3.0505,-3.0657,-3.1397,-3.2072,-3.252,-3.2374,-3.2098,-3.2125,-3.2808,-3.2723,-3.2828,-3.3429,-3.3393,-3.3292,-3.3292,-3.2884,-3.2639,-3.2773,-3.2404,-3.1795,-3.0924,-3.1355,-3.0626,-2.839,-2.8766,-2.8442,-2.7171,-2.696,-2.6826,-2.6792,-2.6792,-2.6657,-2.6453,-2.6418,-2.6365,-2.2089,-2.2829,-2.3557,-2.4488,-2.496,-2.5159,-2.5112,-2.5341,-2.5293,-2.4526,-2.4034,-2.362,-2.3268,-2.2643,-2.2443,-2.3228,-2.3271,-2.3389,-2.3885,-2.3687,-2.3484,-2.3418,-2.3196,-2.3154,-2.3399,-2.249,-2.2455,-2.3846,-2.2962,-2.2349,-2.2291,-2.3492,-2.4228,-2.4302,-2.4422,-2.454,-2.4682,-2.4823,-2.4947,-2.5044,-2.5015,-2.4988,-2.4964,-2.4922,-2.4869,-2.4832,-2.4922,-2.4927,-2.4856,-2.4949,-2.5526,-2.64,-2.6696,-2.7739,-2.914,-2.9413,-2.9927,-3.05,-3.053,-3.0558,-3.0629,-3.0629,-3.0661,-3.0743,-3.0951,-3.1948,-3.3092,-3.3583,-3.4505,-3.5439,-3.5878,-3.4715,-3.3379,-3.3327,-3.2129,-3.1115,-3.141,-3.1372,-3.1674,-3.302,-3.3257,-3.3204,-3.3083,-3.2451,-3.2188,-3.2808,-3.2773,-3.2889,-3.3561,-3.352,-3.3364,-3.3165,-3.293,-3.2787,-3.2639,-3.1927,-3.1583,-3.183,-3.0401,-2.9482,-2.9298,-2.8835,-2.8372,-2.7926,-2.8374,-2.8408,-2.7961,-2.7827,-2.7453,-2.6923,-2.6825,-2.6623,-2.2783,-2.3193,-2.3578,-2.427,-2.4627,-2.4742,-2.4398,-2.4925,-2.5261,-2.4274,-2.3579,-2.3144,-2.3076,-2.2322,-2.1998,-2.2773,-2.2947,-2.313,-2.3495,-2.3496,-2.3483,-2.3536,-2.3565,-2.3616,-2.3703,-2.277,-2.2602,-2.3636,-2.283,-2.2407,-2.2652,-2.3565,-2.4114,-2.4153,-2.43,-2.4447,-2.4644,-2.4776,-2.4902,-2.501,-2.5002,-2.4988,-2.4945,-2.4932,-2.4884,-2.4842,-2.4917,-2.4932,-2.4903,-2.4993,-2.5571,-2.6438,-2.6872,-2.7884,-2.9148,-2.9536,-3.0042,-3.0509,-3.051,-3.0549,-3.0602,-3.0602,-3.0661,-3.0762,-3.1151,-3.2233,-3.3434,-3.3856,-3.4664,-3.552,-3.5898,-3.4708,-3.3487,-3.3804,-3.2785,-3.1861,-3.224,-3.2216,-3.2459,-3.3584,-3.3942,-3.4031,-3.3845,-3.3362,-3.3101,-3.3382,-3.3308,-3.3345,-3.3698,-3.3577,-3.3393,-3.3256,-3.3073,-3.2884,-3.2737,-3.2183,-3.1648,-3.1252,-3.0359,-2.954,-2.8818,-2.893,-2.883,-2.8451,-2.9076,-2.9248,-2.9001,-2.8507,-2.8063,-2.7665,-2.7242,-2.6892,-2.3175,-2.3289,-2.3261,-2.359,-2.3876,-2.388,-2.3229,-2.4192,-2.4925,-2.4009,-2.3013,-2.2454,-2.285,-2.1936,-2.1374,-2.2086,-2.2496,-2.2784,-2.2968,-2.2911,-2.2946,-2.3128,-2.3203,-2.3329,-2.3529,-2.2669,-2.25,-2.3468,-2.2847,-2.2876,-2.3899,-2.4037,-2.4094,-2.4105,-2.4266,-2.4447,-2.4709,-2.478,-2.4869,-2.501,-2.501,-2.4964,-2.4898,-2.4907,-2.4898,-2.4903,-2.49,-2.4945,-2.4993,-2.519,-2.5723,-2.6479,-2.737,-2.828,-2.9183,-2.9879,-3.029,-3.0509,-3.051,-3.0549,-3.061,-3.061,-3.0734,-3.1009,-3.1773,-3.2736,-3.3736,-3.4484,-3.4705,-3.4897,-3.5761,-3.4622,-3.3453,-3.4366,-3.374,-3.2967,-3.3134,-3.3134,-3.3253,-3.3764,-3.4377,-3.4747,-3.4539,-3.4386,-3.4269,-3.4124,-3.3998,-3.3868,-3.3807,-3.3577,-3.3422,-3.3393,-3.3183,-3.2979,-3.2948,-3.2737,-3.1989,-3.0486,-3.0929,-3.0249,-2.8049,-2.9248,-2.9634,-2.8885,-2.9487,-2.9851,-2.9948,-2.9173,-2.8691,-2.8451,-2.7728,-2.727,-2.2573,-2.2879,-2.3164,-2.3972,-2.4292,-2.4347,-2.4045,-2.4605,-2.4911,-2.4001,-2.3712,-2.3247,-2.2229,-2.1594,-2.1175,-2.0817,-2.099,-2.1344,-2.1903,-2.2088,-2.2348,-2.2821,-2.2922,-2.3058,-2.3241,-2.2859,-2.289,-2.3684,-2.3356,-2.33,-2.3649,-2.3873,-2.4065,-2.4187,-2.4377,-2.4528,-2.47,-2.4783,-2.4861,-2.501,-2.501,-2.4977,-2.4977,-2.4977,-2.4959,-2.4907,-2.495,0.0,-2.4912,-2.5791,-2.6244,-2.6403,-2.7397,-2.831,-2.9121,-2.9256,-2.982,-3.0509,-3.051,-3.0577,-3.068,-3.0676,-3.119,-3.18,-3.2016,-3.32,-3.4506,-3.4669,-3.4702,-3.4902,-3.5776,-3.4167,-3.2708,-3.416,-3.3278,-3.2455,-3.373,-3.437,-3.471,-3.4754,-3.4794,-3.4747,-3.4623,-3.4473,-3.4316,-3.4124,-3.3998,-3.3868,-3.3807,-3.3671,-3.352,-3.3393,-3.3196,-3.3086,-3.3055,-3.2884,-3.2648,-3.2428,-3.1788,-3.0935,-2.9814,-3.0527,-3.0567,-2.9732,-3.0872,-3.1272,-3.0886,-3.0577,-2.9813,-2.8708,-2.8424,-2.7881,-2.2946,-2.2962,-2.2815,-2.3257,-2.3499,-2.3524,-2.2938,-2.3869,-2.4589,-2.3576,-2.3628,-2.3512,-2.2379,-2.1786,-2.1202,-2.0467,-2.0436,-2.0722,-2.1389,-2.151,-2.1653,-2.2032,-2.2116,-2.2276,-2.2496,-2.1945,-2.2139,-2.3577,-2.3026,-2.299,-2.3819,-2.3971,-2.4092,-2.4211,-2.4351,-2.4548,-2.4752,-2.4779,-2.4875,-2.5004,-2.4991,-2.501,-2.501,-2.501,-2.4977,-2.494,-2.4991,-2.5225,-2.5627,-2.6176,-2.6923,-2.7758,-2.8241,-2.8983,-2.9778,-2.9778,-3.0122,-3.055,-3.0558,-3.0618,-3.0717,-3.073,-3.1034,-3.1473,-3.1948,-3.3009,-3.4122,-3.4565,-3.4707,-3.4898,-3.5725,-3.4315,-3.3096,-3.4777,-3.442,-3.3901,-3.4578,-3.489,-3.5057,-3.5001,-3.4869,-3.4727,-3.4561,-3.4473,-3.434,-3.4124,-3.4023,-3.3921,-3.3842,-3.3726,-3.3605,-3.3481,-3.3316,-3.3226,-3.3117,-3.2948,-3.2692,-3.2295,-3.1781,-3.1137,-3.0353,-3.0985,-3.1135,-3.0648,-3.1637,-3.2004,-3.1672,-3.1202,-3.0559,-2.981,-2.8995,-2.8325,-2.2873,-2.2623,-2.2167,-2.2216,-2.2408,-2.2419,-2.182,-2.3029,-2.4071,-2.3378,-2.3629,-2.3639,-2.26,-2.1976,-2.1274,-2.0197,-1.9962,-2.019,-2.0958,-2.0847,-2.0911,-2.1472,-2.135,-2.1467,-2.2024,-2.1206,-2.142,-2.3285,-2.2692,-2.2794,-2.4058,-2.415,-2.4211,-2.4267,-2.4382,-2.4576,-2.4807,-2.4814,-2.4898,-2.5019,-2.5004,-2.501,-2.5018,-2.501,-2.501,-2.5029,-2.5029,-2.5506,-2.63,-2.6574,-2.7599,-2.9015,-2.9224,-2.9763,-3.0419,-3.0419,-3.0501,-3.0606,-3.0618,-3.0671,-3.0755,-3.0998,-3.1081,-3.1217,-3.19,-3.2842,-3.3828,-3.4512,-3.47,-3.4839,-3.5463,-3.4405,-3.3569,-3.5078,-3.5423,-3.5336,-3.5207,-3.5108,-3.502,-3.4964,-3.4849,-3.4687,-3.4561,-3.4473,-3.434,-3.4148,-3.4074,-3.3998,-3.3895,-3.3807,-3.3698,-3.3549,-3.3452,-3.3334,-3.3196,-3.3042,-3.2679,-3.2054,-3.188,-3.1462,-3.0676,-3.1377,-3.165,-3.1291,-3.2001,-3.2354,-3.2232,-3.162,-3.1167,-3.082,-2.9549,-2.8754,-2.1174,-2.117,-2.1102,-2.1263,-2.1437,-2.1678,-2.2102,-2.2758,-2.3351,-2.383,-2.4178,-2.3937,-2.2347,-2.1842,-2.1128,-1.9388,-1.9012,-1.9232,-2.0161,-1.9808,-2.0076,-2.1751,-2.0988,-2.0939,-2.2473,-2.1728,-2.1591,-2.2703,-2.297,-2.3408,-2.4155,-2.4321,-2.4392,-2.447,-2.4595,-2.4714,-2.4807,-2.4861,-2.4953,-2.5101,-2.5031,-2.5031,-2.5088,-2.5031,-2.5029,-2.5086,-2.5086,-2.552,0.0,-2.7198,-2.8134,-2.9084,-2.9944,-3.0362,-3.0491,-3.0501,-3.0537,-3.0614,-3.0673,-3.0736,-3.0925,-3.1724,-3.1987,-3.2001,-3.2081,-3.326,-3.4609,-3.4688,-3.4698,-3.4706,-3.4723,-3.393,-3.3326,-3.4147,-3.485,-3.5266,-3.5138,-3.5108,-3.5038,-3.4927,-3.4849,-3.4768,-3.4687,-3.4517,-3.434,-3.4221,-3.4124,-3.4049,-3.3921,-3.3895,-3.3815,-3.3698,-3.3491,-3.3393,-3.3364,-3.3196,-3.305,-3.2978,-3.2903,-3.2469,-3.1529,-3.2257,-3.2264,-3.1308,-3.2001,-3.2388,-3.2388,-3.2197,-3.176,-3.1044,-3.0138,-2.9273,-2.069,-2.0652,-2.055,-2.0712,-2.0926,-2.1119,-2.1193,-2.2032,-2.2811,-2.2901,-2.328,-2.3264,-2.2146,-2.1365,-2.0605,-1.9707,-1.9441,-1.9569,-2.0219,-2.0097,-2.0175,-2.0878,-2.0561,-2.0697,-2.1857,-2.1736,-2.2018,-2.3146,-2.3522,-2.3819,-2.4115,-2.4302,-2.4444,-2.451,-2.4682,-2.478,-2.4855,-2.4921,-2.5025,-2.5101,-2.507,-2.5076,-2.5101,-2.5076,-2.5349,-2.5793,-2.5348,-2.5848,0.0,-2.7543,-2.8257,-2.9106,-3.0089,-3.0499,-3.0559,-3.0557,-3.0607,-3.0664,-3.0743,-3.1115,-3.1633,-3.1987,-3.2441,-3.2988,-3.3509,-3.4148,-3.4805,-3.5287,-3.5388,-3.523,-3.4683,-3.4148,-3.3817,-3.4016,-3.4702,-3.527,-3.5196,-3.511,-3.502,-3.4964,-3.4849,-3.4747,-3.4687,-3.458,-3.4409,-3.4269,-3.4197,-3.4124,-3.3972,-3.3921,-3.3842,-3.3726,-3.3605,-3.3491,-3.3452,-3.3304,-3.3214,-3.3214,-3.3091,-3.2836,-3.2469,-3.2692,-3.2595,-3.2095,-3.2364,-3.2422,-3.2267,-3.2319,-3.2109,-3.1673,-3.0939,-3.0315,-2.0357,-2.038,-2.027,-2.0581,-2.0868,-2.1116,-2.1159,-2.1839,-2.2443,-2.2461,-2.2601,-2.246,-2.1672,-2.0946,-2.0312,0.0,0.0,-1.9876,-2.0282,-2.0342,-2.0247,-2.0038,-2.004,-2.0336,-2.1035,-2.157,-2.2265,-2.333,-2.3606,-2.3798,-2.3919,-2.4229,-2.4444,-2.4495,-2.47,-2.4832,-2.4912,-2.4972,-2.5038,-2.5125,-2.5095,-2.5082,-2.5126,-2.5139,-2.5423,-2.5933,-2.5421,-2.606,0.0,-2.7736,-2.8443,-2.9458,-3.024,-3.0559,-3.0636,-3.0626,-3.0671,-3.0769,-3.1081,-3.1588,-3.2146,-3.24,-3.2901,-3.3515,-3.4137,-3.448,-3.4733,-3.5042,-3.5048,-3.4839,-3.4216,-3.3939,-3.3853,-3.3963,-3.4676,-3.5273,-3.5198,-3.5092,-3.502,-3.4983,-3.4849,-3.4802,-3.5028,-3.4752,-3.4547,-3.4694,-3.4437,-3.4173,-3.4049,-3.3972,-3.3895,-3.378,-3.389,-3.386,-3.3528,-3.3628,-3.3683,-3.3653,-3.3696,-3.3709,-3.3727,-3.3645,-3.3496,-3.333,-3.31,-3.2858,-3.2634,-3.2493,-3.2336,-3.2091,-3.1445,-3.0888,-2.0158,-2.0244,-2.0324,-2.0875,-2.1302,-2.1788,-2.2507,-2.2391,-2.2276,-2.2862,-2.2454,-2.1729,-2.0786,-2.0592,-2.0419,-1.9904,-1.9803,0.0,-2.0162,-2.0332,-2.011,-1.9387,-1.9421,-1.97,-2.017,-2.1247,-2.2218,-2.2947,-2.3064,-2.3234,-2.3494,-2.4079,-2.4429,-2.4495,-2.4704,-2.4837,-2.4902,-2.4959,-2.5076,-2.521,-2.5063,-2.5069,-2.5206,-2.5203,-2.5172,-2.5134,-2.518,-2.6074,0.0,-2.7796,-2.884,-3.0303,-3.0519,-3.0634,-3.0692,-3.0703,-3.0736,-3.0916,-3.1797,-3.2087,-3.2245,-3.3119,-3.3395,-3.3395,-3.341,-3.397,-3.4413,-3.3569,-3.3186,-3.3021,-3.3022,-3.2949,-3.31,-3.3819,-3.4665,-3.5261,-3.5127,-3.5092,-3.5057,-3.4927,-3.4849,-3.5052,-3.5843,-3.5149,-3.4772,-3.5586,-3.4899,-3.4245,-3.4124,-3.4049,-3.3972,-3.3895,-3.4477,-3.4501,-3.3564,-3.4166,-3.4576,-3.4483,-3.5109,-3.5457,-3.5375,-3.5238,-3.5151,-3.5083,-3.4233,-3.374,-3.3688,-3.2877,-3.2405,-3.2161,-3.1512,-3.0658,-1.9566,-1.9637,-1.9473,-1.9872,-2.0071,-2.0343,-2.103,-2.1177,-2.1342,-2.2057,-2.1627,-2.104,-2.0837,-2.0235,-1.9753,-1.9753,-1.9875,-1.9924,-1.9672,-1.972,-1.9641,-1.9294,-2.0129,-2.0893,-2.1379,-2.2339,-2.2933,-2.2923,-2.3374,-2.3717,-2.3899,-2.4229,-2.4444,-2.4495,-2.4692,-2.4827,-2.4902,-2.5006,-2.5106,-2.5209,-2.5153,-2.5164,-2.5201,-2.5187,-2.5841,-2.6913,-2.639,-2.7029,-2.8472,-2.8751,-2.909,-2.9562,-3.0358,-3.0687,-3.0701,-3.0743,-3.0769,-3.0846,-3.1178,-3.1638,-3.2153,-3.2413,-3.2881,-3.3336,-3.334,-3.3924,-3.4516,-3.4098,-3.3903,-3.3665,-3.3019,-3.3286,-3.3777,-3.3968,-3.463,-3.5346,-3.5815,-3.5931,-3.6046,-3.646,-3.651,-3.6559,-3.6782,-3.6524,-3.6339,-3.6502,-3.6267,-3.6006,-3.5829,-3.575,-3.5688,-3.5607,-3.5669,-3.54,-3.4538,-3.5096,-3.5496,-3.5465,-3.5607,-3.5624,-3.5475,-3.5442,-3.5307,-3.5101,-3.4817,-3.4358,-3.3706,-3.3458,-3.3002,-3.2336,-3.2022,-3.1393,-1.8887,-1.897,-1.8892,-1.9364,-1.9452,-1.9577,-2.0225,-2.0442,-2.067,-2.1369,-2.0747,-2.0201,-2.058,-1.9854,-1.925,-1.9465,-1.9617,-1.9521,-1.8858,-1.9213,-1.9612,-1.9836,-2.0362,-2.1127,-2.2245,-2.2821,-2.3189,-2.3333,-2.3819,-2.4114,-2.4171,-2.4356,-2.4476,-2.4575,-2.4753,-2.4865,-2.4942,-2.5057,-2.513,-2.5201,-2.5512,-2.5666,-2.5699,-2.6066,-2.6801,-2.7768,-2.7313,-2.7791,0.0,-2.9192,-2.943,-2.9694,-3.0411,-3.0715,-3.0746,-3.0782,-3.0829,-3.0891,-3.1229,-3.1677,-3.2104,-3.2104,-3.2206,-3.237,-3.2681,-3.3587,-3.442,-3.3944,-3.3998,-3.3904,-3.2685,-3.3207,-3.4136,-3.4412,-3.5092,-3.5866,-3.6633,-3.6768,-3.6862,-3.7234,-3.7303,-3.737,-3.7604,-3.7351,-3.7146,-3.7324,-3.7094,-3.6833,-3.666,-3.6545,-3.6482,-3.6454,-3.6552,-3.6399,-3.5839,-3.6128,-3.6344,-3.6344,-3.654,-3.6573,-3.6456,-3.6355,-3.6252,-3.6078,-3.5723,-3.5137,-3.4252,-3.3581,-3.2983,-3.2473,-3.2336,-3.1917,0.0,-1.83,-1.8425,-1.9081,-1.9226,-1.9321,-1.9975,-2.0062,0.0,-2.0842,-1.997,-1.9354,-2.0066,-1.9452,-1.8885,-1.9034,-1.9074,-1.8772,-1.7961,-1.8744,-1.9774,-2.0608,-2.0125,-2.0539,-2.2598,-2.2776,-2.314,-2.4002,-2.4266,-2.4339,-2.4303,-2.4426,-2.4575,-2.4712,-2.4842,-2.4955,-2.5006,-2.5082,-2.513,-2.5217,-2.6037,-2.6438,-2.6531,-2.7465,-2.7893,-2.7894,-2.7972,-2.8415,-2.9124,-2.9302,-2.9838,-3.0529,-3.0652,-3.0749,-3.0808,-3.0801,-3.0849,-3.0995,-3.1747,-3.2051,-3.2101,-3.2094,-3.1573,-3.1103,-3.1781,-3.3064,-3.4128,-3.3241,-3.3615,-3.3897,-3.2205,-3.2924,-3.4301,-3.5178,-3.59,-3.6631,-3.749,-3.7623,-3.7564,-3.7478,-3.747,-3.769,-3.8376,-3.7821,-3.7507,-3.8091,-3.7561,-3.7026,-3.6898,-3.6739,-3.6676,-3.6676,-3.7216,-3.7521,-3.7412,-3.7257,-3.718,-3.718,-3.7688,-3.8018,-3.7984,-3.781,-3.7703,-3.7703,-3.6774,-3.5883,-3.5101,-3.3387,-3.2576,-3.2573,-3.2457,-3.2284,-1.7554,0.0,-1.7261,-1.7561,-1.7784,-1.8182,0.0,-1.9212,-1.938,-2.0358,-2.0067,-1.971,-2.0007,-1.9698,-1.9266,-1.8809,-1.8793,-1.8692,-1.8189,-1.802,-1.8227,-1.8833,-1.9479,-2.0388,-2.1772,-2.2923,-2.3584,-2.356,-2.3886,-2.4191,-2.4373,-2.4561,-2.4734,-2.4921,-2.5056,-2.5145,-2.5153,-2.5168,-2.519,-2.5201,-2.6109,-2.6532,-2.6535,-2.7479,-2.8251,-2.8878,-2.8884,-2.9361,-3.0156,-3.0238,-3.0413,-3.0589,-3.0711,-3.0793,-3.0794,-3.0799,-3.0801,-3.0847,-3.1038,-3.1549,-3.208,-3.1987,-3.2701,-3.3509,-3.2926,-3.3012,-3.3272,-3.2998,-3.3974,-3.4875,-3.3729,-3.4217,-3.5197,-3.602,-3.6264,-3.6729,-3.8213,-3.8417,-3.8502,-3.9037,-3.9138,-3.9166,-3.9306,-3.9151,-3.9045,-3.9081,-3.8925,-3.8742,-3.8571,-3.8405,-3.8338,-3.8338,-3.8375,-3.8414,-3.8365,-3.8191,-3.8063,-3.8016,-3.8099,-3.8122,-3.8018,-3.7949,-3.7845,-3.7703,-3.6684,-3.5775,-3.5013,-3.3829,-3.2985,-3.2457,-3.2422,-3.2232,-1.7398,-1.699,-1.6786,-1.6572,-1.6848,-1.7277,-1.7731,-1.8235,-1.8817,-1.9617,-1.9603,-1.9454,-1.9571,-1.9338,-1.8937,-1.8334,-1.8364,-1.8417,-1.8274,-1.8278,-1.8444,-1.8893,-1.9698,-2.0737,-2.2054,-2.2869,-2.3488,-2.3971,-2.4192,-2.4391,-2.4572,-2.4749,-2.4921,-2.5122,-2.5203,-2.5244,-2.5253,-2.5274,-2.5495,-2.5909,-2.6805,-2.7412,-2.7768,-2.8714,-2.9399,-2.9833,-2.9854,-3.0143,-3.0639,-3.0644,-3.0665,-3.0701,-3.076,-3.0801,-3.0795,-3.0832,-3.084,-3.0801,-3.0801,-3.1339,-3.2096,-3.2402,-3.3113,-3.375,-3.3214,-3.3284,-3.3615,-3.3955,-3.4985,-3.5782,-3.4829,-3.5487,-3.6523,-3.6948,-3.7259,-3.7795,-3.9068,-3.925,-3.9252,-3.9637,-3.9703,-3.9669,-3.962,-3.9552,-3.952,-3.9418,-3.9346,-3.9256,-3.9129,-3.8998,-3.8942,-3.8892,-3.8792,-3.8719,-3.8609,-3.8496,-3.8382,-3.8354,-3.8241,-3.8174,-3.8088,-3.8036,-3.7753,-3.7202,-3.6577,-3.5829,-3.5049,-3.4111,-3.3424,-3.3002,-3.2598,-3.2232,-1.7666,-1.7186,-1.6767,-1.6086,-1.6373,-1.6741,-1.6606,-1.7477,-1.8475,-1.9023,-1.9069,-1.9046,-1.9097,-1.886,-1.8493,-1.7957,-1.8078,-1.8232,-1.8262,-1.877,-1.9236,-1.9495,-2.0111,-2.1085,-2.2496,-2.2701,-2.3265,-2.4463,-2.4655,-2.4746,-2.4842,-2.4955,-2.5122,-2.5303,-2.533,-2.5329,-2.5357,-2.5395,-2.5788,-2.6517,-2.7389,-2.824,-2.9052,-2.9986,-3.0477,-3.0607,-3.0607,0.0,-3.0784,-3.0722,-3.075,-3.0804,-3.0817,-3.0825,-3.0818,-3.0862,-3.0855,-3.0819,-3.0941,-3.1592,-3.2484,-3.3006,-3.3316,-3.345,-3.331,-3.3788,-3.4576,-3.5513,-3.6108,-3.6362,-3.5825,-3.6599,-3.758,-3.7812,-3.8347,-3.9031,-3.9846,-3.9889,-3.9758,-3.9712,-3.9679,-3.9669,-3.962,-3.9546,-3.9469,-3.9418,-3.9283,-3.9165,-3.9101,-3.9017,-3.8961,-3.8892,-3.8822,-3.8732,-3.8559,-3.8446,-3.8415,-3.8382,-3.8256,-3.8192,-3.8192,-3.8054,-3.7626,-3.6825,-3.6631,-3.6114,-3.5244,-3.4375,-3.3846,-3.3653,-3.2792,-3.2284,-1.8579,-1.7866,-1.7138,-1.6363,-1.661,-1.7098,-1.7288,-1.7934,-1.8658,-1.9237,-1.9222,-1.9098,-1.9174,-1.9093,-1.8828,-1.8234,-1.8556,-1.8703,-1.8197,-1.8551,-1.8808,-1.8704,-1.9523,-2.0448,-2.1369,-2.2667,-2.3566,-2.3907,-2.4454,-2.4866,-2.5034,-2.5135,-2.5226,-2.539,-2.5437,-2.5492,-2.5556,-2.5503,-2.5514,-2.5603,-2.6541,-2.7408,-2.8214,-2.9171,-2.9994,-3.0691,0.0,-3.0672,-3.0794,-3.0722,-3.0743,-3.0808,-3.0868,-3.0874,-3.088,-3.0832,-3.0817,-3.0908,-3.1579,-3.2829,-3.4003,-3.3325,-3.4069,-3.5063,-3.4269,-3.4622,-3.5595,-3.7025,-3.6514,-3.579,-3.7022,-3.7005,-3.7026,-3.8403,-3.8766,-3.9031,-3.9846,-3.9848,-3.9712,-3.9689,-3.9656,-3.9602,-3.9602,-3.9546,-3.9469,-3.9418,-3.9301,-3.9183,-3.9101,-3.8989,-3.8921,-3.8892,-3.881,-3.8689,-3.8658,-3.8559,-3.8478,-3.8415,-3.8256,-3.8192,-3.8192,-3.8003,-3.7845,-3.7684,-3.7398,-3.6824,-3.5952,-3.5065,-3.4252,-3.3512,-3.2757,-3.2214,-1.8802,-1.8404,-1.7948,-1.729,-1.7043,-1.7015,-1.7202,0.0,-1.8571,-1.9031,-1.9282,-1.9334,-1.8994,-1.9069,-1.914,-1.8904,-1.9352,-1.9651,-1.9326,-1.947,-1.9461,-1.9085,-1.9649,-2.0489,-2.1637,-2.2513,-2.3465,-2.4582,-2.4877,-2.5097,-2.5255,-2.5288,-2.5372,-2.5505,-2.5531,-2.5574,-2.5595,-2.6046,-2.6488,-2.6909,-2.7349,-2.8223,-2.9467,-2.9906,-3.0322,-3.0695,0.0,-3.0715,-3.0806,-3.0775,-3.0792,-3.0866,-3.0895,-3.0876,-3.0838,-3.0803,-3.0778,-3.0936,-3.2205,-3.3122,-3.3828,-3.4301,-3.4952,-3.547,-3.5039,-3.5432,-3.6289,-3.7472,-3.7245,-3.6903,-3.8057,-3.8421,-3.8575,-3.8785,-3.9164,-3.9542,-3.9838,-3.9781,-3.9708,-3.9703,-3.965,-3.9602,-3.9602,-3.9502,-3.9444,-3.9418,-3.9275,-3.9129,-3.9045,-3.8997,-3.891,-3.8833,-3.8792,-3.875,-3.8707,-3.8528,-3.8415,-3.8354,-3.8241,-3.8192,-3.8192,-3.8021,-3.7485,-3.6604,-3.722,-3.6879,-3.5545,-3.5526,-3.5064,-3.4198,-3.3828,-3.3036,-1.8827,-1.8657,-1.8478,-1.8175,-1.767,-1.7209,0.0,0.0,0.0,-1.8889,-1.9242,-1.9371,-1.8965,-1.9099,-1.9332,-1.96,-2.0029,-2.0326,-2.0293,-2.0508,-2.0494,-2.0045,-2.0462,-2.1204,-2.2279,-2.2701,-2.3528,-2.5018,-2.5232,-2.5329,-2.5446,-2.5454,-2.5496,-2.5619,-2.563,-2.5717,-2.5921,-2.6595,-2.7253,-2.7892,-2.8092,-2.8982,-3.0414,-3.0422,-3.0531,-3.0726,-3.0716,-3.0759,-3.083,-3.0821,-3.0852,-3.0905,-3.0882,-3.0847,-3.0828,-3.1002,-3.1176,-3.1468,-3.2742,-3.3528,-3.4129,-3.4982,-3.5502,-3.5743,-3.5523,-3.5944,-3.6671,-3.7534,-3.7917,-3.8226,-3.8994,-3.9548,-3.9737,-3.92,-3.954,-3.9975,-3.9826,-3.9758,-3.9708,-3.9717,-3.9645,-3.9596,-3.9596,-3.9495,-3.9391,-3.9373,-3.9202,-3.9073,-3.9007,-3.8968,-3.8855,-3.8564,-3.8681,-3.8732,-3.8658,-3.8465,-3.8336,-3.8307,-3.8259,-3.8192,-3.8192,-3.8021,-3.7324,-3.6098,-3.7077,-3.6863,-3.5385,-3.59,-3.5703,-3.4853,-3.4761,-3.3878,-1.8718,-1.8355,-1.8161,-1.8617,-1.8499,0.0,-1.719,-1.836,0.0,-1.9077,-1.8979,-1.9066,-1.9373,-1.9265,-1.9376,-2.0208,-2.0213,-2.0166,-2.027,-2.1099,-2.1622,-2.147,-2.2243,-2.2831,-2.2937,-2.3638,-2.4156,-2.4355,-2.5118,-2.5576,-2.5589,-2.5593,-2.5621,-2.5691,-2.5687,-2.6084,-2.6897,-2.6952,-2.6988,-2.7,-2.7811,-2.8692,-2.9585,-2.9585,-3.0022,-3.0785,-3.0794,-3.0836,-3.0899,-3.0895,-3.0894,-3.0888,-3.0832,-3.0795,-3.0892,-3.1643,-3.2377,-3.3024,-3.3093,-3.4649,-3.6366,-3.4815,-3.5341,-3.644,-3.5588,-3.5867,-3.6671,-3.7481,-3.8248,-3.9032,-3.9872,-3.9509,-3.9069,-3.9751,-3.9958,-3.9975,-3.9826,-3.9758,-3.9708,-3.9717,-3.9645,-3.9596,-3.952,-3.9444,-3.9373,-3.921,-3.9156,-3.9073,-3.9007,-3.8939,-3.8586,-3.7761,-3.8309,-3.864,-3.851,-3.8387,-3.8307,-3.8307,-3.8259,-3.8192,-3.8192,-3.8021,-3.7863,-3.7737,-3.765,-3.713,-3.6203,-3.6256,-3.5847,-3.4995,-3.4798,-3.4104,-1.8129,-1.7906,-1.7828,-1.8143,-1.8319,0.0,0.0,-1.8663,-1.9164,-1.918,-1.937,-1.9548,-1.9607,-1.9774,-1.9951,-2.0117,-2.0226,-2.0497,-2.1087,-2.1502,-2.1947,-2.2464,-2.2849,-2.327,-2.3827,-2.4156,-2.4555,-2.5137,-2.5481,-2.5668,-2.5665,-2.5651,-2.5671,-2.5707,-2.623,-2.6663,-2.7005,-2.8076,-2.8603,-2.8586,-2.8867,-2.9471,-3.0317,-3.0303,-3.0498,-3.0801,-3.0807,-3.0843,-3.0896,-3.0898,-3.0879,-3.0895,-3.1417,-3.1902,-3.2384,-3.264,-3.2912,-3.3272,-3.4313,-3.5264,-3.6002,-3.5817,-3.6517,-3.7264,-3.6323,-3.6616,-3.7309,-3.7597,-3.825,-3.9032,-3.9908,-3.983,-3.9618,-3.9878,-3.9911,-3.9848,-3.9758,-3.9727,-3.9674,-3.9596,-3.9546,-3.952,-3.9444,-3.9346,-3.9256,-3.921,-3.9156,-3.9045,-3.895,-3.8939,-3.8722,-3.8327,-3.8524,-3.8627,-3.8446,-3.8401,-3.8322,-3.8241,-3.8225,-3.8174,-3.8088,-3.8002,-3.7682,-3.711,-3.7488,-3.722,-3.6364,-3.679,-3.6557,-3.5812,-3.605,-3.5142,-1.7674,-1.7646,-1.785,-1.8084,0.0,0.0,-1.876,-1.9074,-1.9273,-1.9145,-1.9526,-1.9897,-1.9852,-2.0149,-2.0332,-2.0163,-2.0279,-2.0701,-2.1571,-2.1933,-2.2444,-2.3362,-2.3722,-2.4131,-2.4754,-2.4813,-2.5056,-2.5664,-2.5702,-2.5698,-2.5691,-2.5707,-2.5822,-2.611,-2.6696,-2.7264,-2.7815,-2.9001,-2.9745,-3.0007,-2.9943,-3.0228,-3.0833,-3.0824,-3.082,-3.0827,-3.0827,-3.1007,-3.1286,-3.1284,-3.1395,-3.1649,-3.2244,-3.28,-3.3295,-3.3525,-3.3583,-3.3713,-3.5104,-3.5912,-3.6329,-3.6608,-3.7414,-3.8101,-3.7168,-3.7269,-3.775,-3.8,-3.8423,-3.8993,-3.9808,-3.9996,-3.9954,-3.9889,-3.9826,-3.9781,-3.9708,-3.9679,-3.9626,-3.952,-3.9469,-3.9444,-3.9346,-3.9256,-3.9183,-3.9183,-3.9129,-3.9045,-3.8939,-3.891,-3.8851,-3.8689,-3.8407,-3.8272,-3.8396,-3.8368,-3.8289,-3.8225,-3.8192,-3.814,-3.8018,-3.8002,-3.7664,-3.6951,-3.7435,-3.7274,-3.6399,-3.7148,-3.7094,-3.6328,-3.6773,-3.5864,-1.7412,-1.7682,-1.8271,-1.8616,0.0,0.0,-1.8808,-1.9686,-2.0059,-1.8926,-1.9328,-1.9952,-2.0166,-2.0314,-2.0409,-2.04,-2.0396,-2.0703,-2.1585,-2.2468,-2.3337,-2.4205,-2.5071,-2.5624,-2.5695,-2.5691,-2.5707,-2.5705,-2.5701,-2.5703,-2.5703,-2.5716,-2.6117,-2.6978,-2.7025,-2.7845,-2.9574,-2.9613,-3.0046,-3.0894,-3.0836,-3.0831,-3.0899,-3.0899,-3.0899,-3.0899,-3.0919,-3.1366,-3.2101,-3.2104,-3.2592,-3.3317,-3.3309,-3.3278,-3.3326,-3.4178,-3.4468,-3.4526,-3.5325,-3.6642,-3.784,-3.6976,-3.777,-3.891,-3.7978,-3.7693,-3.7884,-3.867,-3.8842,-3.8973,-3.9705,-3.9889,-3.9889,-3.9804,-3.9804,-3.9777,-3.9698,-3.9588,-3.9496,-3.952,-3.9444,-3.9346,-3.921,-3.921,-3.9183,-3.9101,-3.9101,-3.9045,-3.8939,-3.891,-3.8851,-3.8689,-3.7802,-3.7544,-3.8328,-3.8256,-3.8192,-3.8192,-3.8192,-3.814,-3.8018,-3.7916,-3.7846,-3.7703,-3.7703,-3.7292,-3.6417,-3.7292,-3.7274,-3.6435,-3.6811,-3.6183,-1.7429,-1.7566,-1.7847,-1.8358,-1.8472,-1.8528,0.0,-1.8806,0.0,0.0,-1.9516,-2.0186,-2.0208,-2.0263,-2.0352,-2.0383,-2.0437,-2.0973,-2.2411,-2.2887,-2.3625,-2.5109,-2.5507,-2.5679,-2.5707,-2.5704,-2.5696,-2.5698,-2.5709,-2.5699,-2.5703,-2.6288,-2.6734,-2.6997,-2.8198,-2.9079,-2.9588,-3.0204,-3.0648,-3.0903,-3.0873,-3.087,-3.0899,-3.086,-3.0868,-3.0936,-3.1503,-3.1887,-3.2146,-3.2709,-3.3451,-3.4209,-3.4205,-3.4542,-3.5059,-3.5272,-3.5301,-3.5358,-3.6163,-3.6738,-3.7041,-3.6738,-3.7354,-3.8108,-3.7791,-3.7695,-3.7863,-3.8633,-3.8783,-3.8778,-3.9001,-3.9429,-3.9758,-3.9735,-3.975,-3.9703,-3.957,-3.9533,-3.9458,-3.9328,-3.9283,-3.9229,-3.9156,-3.9129,-3.9129,-3.9101,-3.9101,-3.9045,-3.8939,-3.884,-3.8719,-3.8559,-3.8376,-3.829,-3.8396,-3.8368,-3.8322,-3.8274,-3.8225,-3.8122,-3.7949,-3.7953,-3.7864,-3.7613,-3.7667,-3.756,-3.722,-3.7488,-3.7452,-3.711,-3.702,-3.6404,-1.7412,-1.7534,-1.7825,-1.8215,-1.8457,-1.8619,-1.8804,-1.8675,-1.8625,-1.9076,-1.9692,-2.0173,-2.0308,-2.0359,-2.0389,-2.0438,-2.0756,-2.1488,-2.2807,-2.3328,-2.4093,-2.5483,-2.5656,-2.5668,-2.5691,-2.5704,-2.5693,-2.5696,-2.5703,-2.5696,-2.5703,-2.6523,-2.7167,-2.7514,-2.8865,-2.9765,-3.0117,-3.0641,-3.0907,-3.0899,-3.0874,-3.0866,-3.0899,-3.085,-3.1035,-3.144,-3.2621,-3.294,-3.2713,-3.3861,-3.4426,-3.4581,-3.4929,-3.5349,-3.5718,-3.5679,-3.5831,-3.6118,-3.6581,-3.6944,-3.7127,-3.7056,-3.7364,-3.7808,-3.806,-3.7907,-3.7905,-3.8975,-3.8988,-3.8755,-3.9031,-3.9396,-3.9703,-3.9703,-3.9698,-3.965,-3.9514,-3.9476,-3.9399,-3.9237,-3.9183,-3.9156,-3.9101,-3.9101,-3.9101,-3.9101,-3.9045,-3.9007,-3.8892,-3.878,-3.8658,-3.851,-3.8559,-3.8578,-3.8415,-3.8368,-3.8354,-3.8307,-3.8171,-3.8052,-3.7915,-3.7918,-3.7847,-3.7613,-3.7685,-3.7685,-3.7577,-3.7613,-3.754,-3.7354,-3.7129,-3.6492,-1.7258,-1.7548,-1.8074,-1.82,-1.8484,-1.8755,-1.8839,-1.8994,-1.9234,-1.9579,-1.9797,-2.0044,-2.0429,-2.0485,-2.0482,-2.0492,-2.1165,-2.199,-2.2881,-2.3683,-2.4544,-2.5507,-2.5609,-2.5636,-2.5697,-2.5701,-2.5707,-2.5698,-2.5763,-2.5813,-2.582,-2.6719,-2.7598,-2.8398,-2.9258,-3.0098,-3.0879,-3.0898,-3.0897,-3.0882,-3.0838,-3.0882,-3.1014,-3.1015,-3.1482,-3.2436,-3.4014,-3.4289,-3.376,-3.5272,-3.5381,-3.4697,-3.5482,-3.5727,-3.5596,-3.5607,-3.606,-3.6702,-3.668,-3.7159,-3.7772,-3.7618,-3.7619,-3.7812,-3.8461,-3.8214,-3.8023,-3.9561,-3.9402,-3.8921,-3.9524,-3.9698,-3.9693,-3.9669,-3.9669,-3.9645,-3.952,-3.9444,-3.9328,-3.9229,-3.9156,-3.9101,-3.9101,-3.9101,-3.9101,-3.9101,-3.9007,-3.891,-3.891,-3.878,-3.8658,-3.851,-3.851,-3.8478,-3.8415,-3.8354,-3.834,-3.8307,-3.8117,-3.7964,-3.7915,-3.79,-3.7793,-3.7577,-3.7685,-3.7685,-3.7577,-3.7631,-3.7522,-3.7297,-3.7076,-3.6474,-1.6977,-1.7277,-1.7679,-1.8287,-1.8773,-1.899,-1.8608,-1.8977,-1.9351,-1.9196,-1.9673,-2.0211,-2.0448,-2.0406,-2.0386,-2.0486,-2.066,-2.1318,-2.2866,-2.3233,-2.3945,-2.5481,-2.5671,-2.5671,-2.5709,-2.5691,-2.5693,-2.5698,-2.6323,-2.6712,-2.6729,-2.8202,-2.9131,-2.9305,-3.0174,-3.0684,-3.082,-3.0879,-3.0879,-3.082,-3.0859,-3.1211,-3.1834,-3.1841,-3.267,-3.4153,-3.4534,-3.4939,-3.5382,-3.5758,-3.5747,-3.5543,-3.5728,-3.5731,-3.5596,-3.5601,-3.6061,-3.6685,-3.6575,-3.7053,-3.7585,-3.6785,-3.6993,-3.7565,-3.768,-3.8061,-3.8652,-3.9567,-3.9664,-3.9519,-3.9661,-3.965,-3.962,-3.9546,-3.9546,-3.952,-3.9444,-3.9328,-3.9229,-3.9129,-3.9101,-3.9101,-3.9101,-3.9101,-3.9101,-3.9101,-3.9036,-3.895,-3.891,-3.8822,-3.8732,-3.851,-3.859,-3.8609,-3.8478,-3.8478,-3.8415,-3.8401,-3.8192,-3.8005,-3.79,-3.7811,-3.7684,-3.7577,-3.7613,-3.7613,-3.7577,-3.7447,-3.7317,-3.7147,-3.6891,-3.6522,-1.653,-1.6735,-1.7183,-1.8048,-1.8413,-1.8619,-1.871,-1.9106,-1.9406,-1.9278,-1.9775,-2.0275,-2.0386,-2.0405,-2.0422,-2.0483,-2.1191,-2.2061,-2.2974,-2.3814,-2.4674,-2.5592,-2.5694,-2.5698,-2.5701,-2.5702,-2.5879,-2.6288,-2.6367,-2.6738,-2.7577,-2.8486,-2.9162,-2.9591,-3.0442,-3.0882,-3.0852,-3.0886,-3.0888,-3.0859,-3.0876,-3.1317,-3.2124,-3.2957,-3.3832,-3.4726,-3.5115,-3.5276,-3.5299,-3.569,-3.5592,-3.5211,-3.556,-3.5666,-3.5591,-3.556,-3.6257,-3.7172,-3.668,-3.7236,-3.8023,-3.7091,-3.7091,-3.7528,-3.7866,-3.8283,-3.8817,-3.9583,-3.975,-3.9688,-3.9607,-3.9577,-3.9546,-3.9469,-3.9469,-3.9469,-3.9328,-3.9256,-3.9183,-3.9129,-3.9101,-3.9101,-3.9101,-3.9101,-3.9101,-3.9101,-3.9007,-3.8921,-3.8892,-3.8822,-3.8701,-3.8528,-3.8609,-3.8645,-3.8515,-3.8478,-3.8442,-3.8378,-3.8186,-3.802,-3.7952,-3.7793,-3.7667,-3.7577,-3.7577,-3.7541,-3.747,-3.7354,-3.7161,-3.6913,-3.6771,-3.6568,-1.6234,-1.6338,-1.68,-1.7631,-1.7924,-1.8151,-1.8752,-1.9139,-1.9376,-1.9412,-1.9897,-2.0292,-2.0315,-2.041,-2.0487,-2.0509,-2.1844,-2.2925,-2.3078,-2.4468,-2.5523,-2.5679,-2.5698,-2.5699,-2.5701,-2.5699,-2.6008,-2.6726,-2.6246,-2.6594,-2.8203,-2.843,-2.8906,-2.9771,-3.0509,-3.0876,-3.0889,-3.0889,-3.087,-3.0878,-3.1044,-3.146,-3.2165,-3.391,-3.4698,-3.4744,-3.5392,-3.5359,-3.4853,-3.5531,-3.5374,-3.4777,-3.5361,-3.5675,-3.5791,-3.5718,-3.6673,-3.79,-3.716,-3.7776,-3.8762,-3.7869,-3.7678,-3.7883,-3.8407,-3.8688,-3.8912,-3.9558,-3.9708,-3.9658,-3.9521,-3.9464,-3.9469,-3.9373,-3.9399,-3.9399,-3.9256,-3.9183,-3.9156,-3.9101,-3.9101,-3.9101,-3.9101,-3.9212,-3.924,-3.912,-3.909,-3.9058,-3.8929,-3.8792,-3.864,-3.8528,-3.8609,-3.8627,-3.8469,-3.8428,-3.8392,-3.836,-3.8147,-3.8032,-3.8002,-3.7845,-3.7703,-3.7667,-3.7631,-3.7505,-3.7327,-3.7264,-3.7066,-3.6719,-3.6655,-3.6492,-1.6456,-1.6728,-1.7066,-1.7191,-1.7817,-1.8375,-1.8104,-1.867,-1.9211,-1.9151,-1.9722,-2.0262,-2.0366,-2.0404,-2.0438,-2.0492,-2.1336,-2.2236,-2.2987,-2.3957,-2.4849,-2.5613,-2.5703,-2.5694,-2.5694,-2.5694,-2.5756,-2.586,-2.6412,-2.717,-2.817,-2.8934,-2.9745,-3.0606,-3.0743,-3.0816,-3.0801,-3.0801,-3.081,-3.0825,-3.1577,-3.2006,-3.2165,-3.3913,-3.4698,-3.4701,-3.4745,-3.5094,-3.5652,-3.576,-3.5708,-3.554,-3.5589,-3.6021,-3.6619,-3.6504,-3.7472,-3.8802,-3.8575,-3.903,-3.9577,-3.8669,-3.882,-3.9264,-3.8615,-3.895,-3.9542,-3.9543,-3.9526,-3.9521,-3.942,-3.9406,-3.9373,-3.9256,-3.921,-3.9237,-3.921,-3.9156,-3.9101,-3.9101,-3.9101,-3.9101,-3.9101,-3.9639,-3.9833,-3.9212,-3.9571,-3.9686,-3.8984,-3.8822,-3.8695,-3.853,-3.8504,-3.851,-3.841,-3.8396,-3.8401,-3.8322,-3.8186,-3.8052,-3.8003,-3.7934,-3.7864,-3.7864,-3.7703,-3.7524,-3.7399,-3.714,-3.6964,-3.679,-3.6516,-3.6343,-1.6115,-1.5953,-1.6031,-1.6313,-1.6815,-1.7317,-1.7478,-1.8075,-1.8682,-1.8787,-1.9313,-1.9838,-2.0167,-2.0284,-2.034,-2.0383,-2.1565,-2.2601,-2.2994,-2.4204,-2.5201,-2.5595,-2.5644,-2.5634,-2.5643,-2.6087,-2.6558,-2.7004,-2.7406,-2.8205,-2.9522,-2.9535,-2.9893,-3.0771,-3.0791,-3.0794,-3.0794,-3.079,-3.0794,-3.0817,-3.1678,-3.2102,-3.2135,-3.3409,-3.4238,-3.4718,-3.5159,-3.5502,-3.5801,-3.5765,-3.5688,-3.5635,-3.556,-3.5762,-3.6109,-3.6441,-3.7234,-3.8194,-3.806,-3.8793,-3.9637,-3.8738,-3.8995,-3.9609,-3.9156,-3.9276,-3.9577,-3.9513,-3.9458,-3.9432,-3.9391,-3.9346,-3.9256,-3.912,-3.9092,-3.9092,-3.9036,-3.9036,-3.9036,-3.9007,-3.9359,-3.9526,-3.9081,-3.9616,-3.9875,-3.909,-3.9206,-3.9239,-3.8888,-3.881,-3.8683,-3.8511,-3.8917,-3.8951,-3.8431,-3.8779,-3.8819,-3.8331,-3.8207,-3.8122,-3.8124,-3.802,-3.7985,-3.809,-3.7792,-3.7542,-3.7345,-3.7135,-3.693,-3.6609,-3.6474,-3.6392,-1.6092,-1.5621,-1.5536,-1.5891,-1.6089,-1.6344,-1.7044,-1.7551,-1.8037,-1.8548,-1.8942,-1.936,-1.9969,-2.0135,-2.028,-2.0546,-2.1713,-2.2746,-2.3192,-2.4368,-2.5279,-2.5493,-2.5538,-2.5622,-2.5834,-2.6462,-2.7187,-2.8015,-2.8126,-2.8783,-3.0277,-2.9771,-2.9868,-3.0739,-3.0767,-3.079,-3.0794,-3.0804,-3.0804,-3.0819,-3.168,-3.2107,-3.2139,-3.3002,-3.3871,-3.4706,-3.5305,-3.566,-3.578,-3.5737,-3.5662,-3.5589,-3.5534,-3.5609,-3.5863,-3.6511,-3.7222,-3.789,-3.7959,-3.8738,-3.9595,-3.8901,-3.9129,-3.9621,-3.95,-3.9474,-3.9481,-3.9433,-3.9383,-3.9328,-3.9295,-3.9203,-3.912,-3.9007,-3.8979,-3.895,-3.891,-3.8921,-3.895,-3.891,-3.939,-3.9623,-3.9003,-3.9575,-3.9834,-3.9021,-3.8988,-3.9013,-3.881,-3.8701,-3.8603,-3.8493,-3.9163,-3.9291,-3.8433,-3.9045,-3.9115,-3.8334,-3.821,-3.8192,-3.8192,-3.8088,-3.8088,-3.8192,-3.788,-3.7578,-3.7326,-3.7223,-3.6939,-3.6547,-3.6527,-3.6468,-1.6694,-1.644,-1.6457,-1.655,-1.6148,-1.5993,-1.697,-1.707,-1.7338,-1.8631,-1.87,-1.8842,-1.9813,-1.9964,-2.0234,-2.1196,-2.1425,-2.2066,-2.3724,-2.4023,-2.4389,-2.5215,-2.5367,-2.5704,-2.6467,-2.6646,-2.7078,-2.7939,-2.8008,-2.8405,-2.9324,-2.9342,-2.9747,-3.0671,-3.071,-3.0748,-3.08,-3.0798,-3.0807,-3.0804,-3.1678,-3.2107,-3.2124,-3.3002,-3.3835,-3.4601,-3.4659,-3.5095,-3.578,-3.5737,-3.5654,-3.5584,-3.5532,-3.5921,-3.6606,-3.7224,-3.7945,-3.8736,-3.9362,-3.9632,-3.9679,-3.9513,-3.9464,-3.9492,-3.9425,-3.9425,-3.9391,-3.9258,-3.9165,-3.9109,-3.9034,-3.8976,-3.8921,-3.891,-3.891,-3.8892,-3.891,-3.8892,-3.8892,-3.891,-3.9005,-3.9034,-3.891,-3.9575,-3.9834,-3.9021,-3.9455,-3.9583,-3.8884,-3.8634,-3.8486,-3.842,-3.9063,-3.9166,-3.829,-3.894,-3.907,-3.828,-3.8192,-3.8192,-3.8192,-3.8192,-3.8192,-3.8192,-3.7863,-3.7578,-3.738,-3.7319,-3.7083,-3.6702,-3.6547,-3.6481,-1.7091,-1.6633,-1.6293,-1.5971,-1.6009,-1.6181,-1.6203,-1.6787,-1.7523,-1.8286,-1.8297,-1.863,-2.0152,-2.0429,-2.0519,-2.0827,-2.1966,-2.3004,-2.3536,-2.4137,-2.4692,-2.5116,-2.5152,-2.5308,-2.5726,-2.6717,-2.7204,-2.6866,-2.852,-2.938,-2.9004,-2.9663,-3.0243,-3.0626,-3.0649,-3.0685,-3.0792,-3.0804,-3.081,-3.0813,-3.1686,-3.2109,-3.2133,-3.3002,-3.3843,-3.4608,-3.456,-3.4995,-3.5733,-3.5662,-3.5589,-3.5515,-3.5407,-3.5825,-3.6539,-3.7204,-3.7959,-3.8726,-3.934,-3.9551,-3.9545,-3.9471,-3.9444,-3.9413,-3.933,-3.9285,-3.9239,-3.9165,-3.911,-3.9017,-3.9005,-3.8958,-3.891,-3.8851,-3.8792,-3.878,-3.878,-3.8792,-3.8822,-3.878,-3.9215,-3.9418,-3.8872,-3.9442,-3.97,-3.8891,-3.8977,-3.9019,-3.8756,-3.867,-3.8792,-3.925,-3.9932,-4.0195,-3.9819,-3.9987,-3.9783,-3.9,-3.8513,-3.8192,-3.8192,-3.8192,-3.8192,-3.8192,-3.7953,-3.7739,-3.7542,-3.7283,-3.7048,-3.6742,-3.6658,-3.6575,-1.7624,-1.7123,-1.6723,-1.6529,-1.6383,-1.6355,-1.6619,-1.7011,-1.7584,-1.8469,-1.831,-1.8572,-2.0338,-2.0707,-2.0869,-2.1266,-2.2253,-2.3157,-2.3675,-2.4058,-2.4448,-2.493,-2.4949,-2.5082,-2.5516,-2.6799,-2.7452,-2.711,-2.9085,-2.9997,-2.9315,-3.0011,-3.0467,-3.0557,-3.0602,-3.0685,-3.0775,-3.0784,-3.0798,-3.0813,-3.1677,-3.2107,-3.2139,-3.2994,-3.3824,-3.4569,-3.4497,-3.4925,-3.566,-3.5598,-3.5537,-3.5458,-3.5276,-3.553,-3.6046,-3.699,-3.7664,-3.8237,-3.9169,-3.9489,-3.9446,-3.9343,-3.9346,-3.9303,-3.9203,-3.9138,-3.9129,-3.9063,-3.8998,-3.8936,-3.8936,-3.887,-3.8822,-3.878,-3.8719,-3.8707,-3.8707,-3.8719,-3.875,-3.8707,-3.916,-3.9344,-3.8799,-3.916,-3.9326,-3.8781,-3.8707,-3.8707,-3.8707,-3.8915,-3.925,-3.9763,-4.0632,-4.1048,-4.0741,-4.0601,-4.0184,-3.9456,-3.8642,-3.8192,-3.8192,-3.8192,-3.8158,-3.8108,-3.79,-3.7702,-3.7487,-3.7279,-3.7044,-3.6806,-3.6724,-3.6582,0.0,0.0,0.0,-1.8283,-1.727,-1.6583,-1.8185,-1.7762,-1.7515,-1.913,-1.8763,-1.8631,-2.0314,-2.0729,-2.1249,-2.2582,-2.2205,-2.2409,-2.4215,-2.3745,-2.3609,-2.4692,-2.4733,-2.5075,-2.5996,-2.688,-2.7771,-2.8627,-2.9569,-3.0113,-3.0152,-3.0245,-3.0369,-3.0499,-3.0623,-3.0707,-3.069,-3.0761,-3.0798,-3.0819,-3.168,-3.2086,-3.2082,-3.2982,-3.379,-3.445,-3.442,-3.485,-3.5585,-3.5541,-3.5445,-3.5384,-3.521,-3.5116,-3.5249,-3.6699,-3.7209,-3.7394,-3.8958,-3.9444,-3.9373,-3.9237,-3.9183,-3.9183,-3.911,-3.9045,-3.9008,-3.9008,-3.8892,-3.8799,-3.8799,-3.8744,-3.8707,-3.8707,-3.8707,-3.8707,-3.8707,-3.8707,-3.8707,-3.8707,-3.875,-3.8762,-3.8707,-3.8732,-3.8762,-3.8707,-3.8726,-3.8744,-3.8726,-3.9365,-3.9827,-3.9891,-4.1113,-4.1597,-4.0849,-4.0637,-4.0221,-3.95,-3.8703,-3.8264,-3.8264,-3.8228,-3.8126,-3.7936,-3.7703,-3.7484,-3.7297,-3.7302,-3.7128,-3.6811,-3.6725,-3.652,-1.9945,0.0,0.0,0.0,0.0,0.0,-1.7492,-1.7657,-1.8075,-1.8831,-1.8817,-1.9227,-2.1016,-2.1259,-2.1537,-2.2505,-2.2919,-2.3324,-2.3846,-2.375,-2.4061,-2.5171,-2.4723,-2.4765,-2.5853,-2.6695,-2.7003,0.0,-2.8685,-2.9674,-2.9001,-2.9813,-3.033,-3.0428,-3.0501,-3.0591,-3.0704,-3.0773,-3.0793,-3.0804,-3.1675,-3.1771,-3.121,-3.2658,-3.3448,-3.366,-3.4182,-3.4814,-3.5532,-3.5512,-3.5396,-3.5299,-3.578,-3.6215,-3.6696,-3.7661,-3.8332,-3.8808,-3.9104,-3.9208,-3.9163,-3.9044,-3.8971,-3.8971,-3.8971,-3.8925,-3.8906,-3.8813,-3.8799,-3.8781,-3.8744,-3.8652,-3.8566,-3.8689,-3.8707,-3.8707,-3.8707,-3.8707,-3.8707,-3.8707,-3.8719,-3.8719,-3.8707,-3.8738,-3.8719,-3.8707,-3.9103,-3.9438,-3.957,-4.0138,-4.0784,-4.1455,-4.175,-4.2067,-4.241,-4.1756,-4.1268,-4.1087,-4.0293,-3.9858,-3.9858,-3.922,-3.8826,-3.8779,-3.7875,-3.7382,-3.7297,-3.714,-3.7023,-3.6948,-3.6766,-3.6561,0.0,0.0,0.0,0.0,0.0,0.0,-1.8531,-1.8443,-1.851,-1.8942,-1.8924,-1.9327,-2.1,-2.1159,-2.1393,-2.2496,-2.2894,-2.3194,-2.3598,-2.3707,-2.4168,-2.5331,-2.4994,-2.5089,-2.621,-2.6988,-2.7249,-2.6823,-2.8631,-2.958,-2.9139,-2.9823,-3.0254,-3.0352,-3.0482,-3.0574,-3.0651,-3.0748,-3.0808,-3.0813,-3.1315,-3.1292,-3.0857,-3.2186,-3.2978,-3.3311,-3.403,-3.477,-3.5456,-3.5369,-3.5264,-3.5172,-3.5513,-3.5826,-3.6227,-3.7291,-3.7916,-3.8361,-3.8885,-3.9036,-3.8999,-3.8924,-3.8887,-3.8869,-3.8877,-3.883,-3.8726,-3.8704,-3.8676,-3.8632,-3.8583,-3.8528,-3.8504,-3.859,-3.8658,-3.8707,-3.8707,-3.8707,-3.8707,-3.8707,-3.8707,-3.8707,-3.8707,-3.8658,-3.8768,-3.9148,-3.9475,-3.9812,-4.0258,-4.0876,-4.15,-4.2063,-4.2302,-4.2577,-4.3048,-4.2228,-4.1701,-4.1701,-4.0943,-4.051,-4.051,-3.9589,-3.9067,-3.8957,-3.7869,-3.727,-3.7182,-3.7066,-3.6948,-3.6869,-3.6748,-3.6544,0.0,0.0,0.0,0.0,-2.101,0.0,-2.0564,-1.9754,-1.8988,-1.9528,-1.927,-1.9327,-2.0724,-2.0798,-2.1099,-2.2521,-2.2424,-2.2535,-2.3495,-2.3611,-2.4049,-2.5369,-2.5357,-2.5695,-2.6885,-2.7455,-2.7901,-2.8274,-2.912,-2.9737,-2.9956,-3.0056,-3.015,-3.0292,-3.0491,-3.0593,-3.0603,-3.0736,-3.0799,-3.0806,-3.0801,-3.0813,-3.0829,-3.1693,-3.2503,-3.3237,-3.3964,-3.4709,-3.5359,-3.5155,-3.507,-3.5039,-3.4891,-3.4767,-3.4877,-3.6354,-3.6861,-3.7005,-3.8479,-3.8905,-3.8844,-3.8844,-3.8789,-3.8752,-3.8833,-3.8676,-3.8517,-3.8629,-3.851,-3.8368,-3.8391,-3.8437,-3.8496,-3.851,-3.859,-3.8658,-3.8707,-3.8781,-3.8836,-3.8836,-3.8836,-3.8872,-3.8915,-3.8865,-3.9054,-3.9887,-3.9922,-4.0115,-4.0928,-4.1628,-4.2121,-4.2121,-4.2705,-4.3067,-4.3067,-4.2301,-4.1827,-4.1827,-4.1175,-4.0721,-4.0594,-3.9766,-3.9151,-3.8777,-3.7845,-3.7323,-3.7128,-3.704,-3.6908,-3.6725,-3.6731,-3.6527,0.0,0.0,0.0,0.0,-2.2085,0.0,-2.1723,-2.097,-2.047,-2.1105,-2.0697,-2.0459,-2.1256,-2.1504,-2.1777,-2.2246,-2.2205,-2.2532,-2.3673,-2.3236,-2.3669,-2.6017,-2.5411,-2.5589,-2.7525,-2.7182,-2.7211,-2.8164,-2.9231,-2.9825,-2.977,-2.9984,-3.0166,-3.0292,-3.0436,-3.0559,-3.068,-3.0716,-3.0755,-3.0808,-3.0847,-3.0859,-3.0839,-3.1644,-3.2448,-3.3242,-3.3916,-3.4646,-3.5297,-3.4979,-3.4863,-3.4914,-3.5404,-3.5464,-3.5515,-3.7039,-3.7535,-3.7542,-3.8449,-3.8674,-3.8573,-3.8536,-3.848,-3.8478,-3.8496,-3.8474,-3.8415,-3.846,-3.8343,-3.8274,-3.8387,-3.8368,-3.8368,-3.8478,-3.851,-3.8559,-3.8658,-3.9203,-3.9662,-3.9662,-3.9662,-3.9832,-4.0372,-4.0449,-4.0471,-4.062,-4.1101,-4.154,-4.1756,-4.2323,-4.2758,-4.2868,-4.2903,-4.2938,-4.2938,-4.2774,-4.2645,-4.2645,-4.2519,-4.2063,-4.1265,-4.0885,-4.005,-3.8571,-3.8166,-3.7895,-3.7795,-3.7241,-3.6987,-3.6948,-3.6766,-3.6602,0.0,0.0,0.0,-2.2929,-2.2815,0.0,0.0,-2.1686,-2.1418,-2.1867,-2.1584,-2.1407,-2.1994,-2.2242,-2.2448,-2.2752,-2.2552,-2.2729,-2.3841,-2.3358,-2.3601,-2.5479,-2.5069,-2.5283,-2.6916,-2.6617,-2.6851,-2.8068,-2.9083,-2.9682,-2.9701,-2.9888,-3.006,-3.0202,-3.0402,-3.055,-3.0661,-3.0678,-3.074,-3.0802,-3.0836,-3.0829,-3.0802,-3.1173,-3.1773,-3.2511,-3.2745,-3.3481,-3.4491,-3.4206,-3.4277,-3.4574,-3.4884,-3.4922,-3.4971,-3.6463,-3.6951,-3.7,-3.8157,-3.8499,-3.8423,-3.8415,-3.8328,-3.8259,-3.8313,-3.8295,-3.8252,-3.834,-3.8292,-3.8207,-3.8322,-3.8322,-3.8322,-3.8368,-3.8725,-3.9067,-3.915,-3.9804,-4.0514,-4.087,-4.0994,-4.1027,-4.0906,-4.0839,-4.0935,-4.1336,-4.1614,-4.1996,-4.2468,-4.274,-4.2938,-4.2994,-4.2938,-4.2882,-4.2882,-4.2882,-4.2882,-4.2882,-4.2803,-4.2364,-4.1427,-4.1124,-4.0273,-3.883,-3.8673,-3.859,-3.8559,-3.8157,-3.7772,-3.7388,-3.6852,-3.6554,0.0,0.0,0.0,0.0,0.0,-2.2698,0.0,0.0,0.0,-2.2572,-2.2364,-2.2253,-2.2767,-2.2902,-2.3042,-2.3417,-2.3056,-2.3049,-2.396,-2.3628,-2.3714,-2.4778,-2.4664,-2.489,-2.5953,-2.6009,-2.6422,-2.7548,-2.8526,-2.9187,-2.9474,-2.9753,-2.995,-3.0095,-3.034,-3.0521,-3.0595,-3.0665,-3.0721,-3.0804,-3.08,-3.0785,-3.0775,-3.0683,-3.105,-3.1719,-3.1538,-3.2193,-3.3401,-3.3162,-3.3448,-3.4023,-3.4113,-3.4109,-3.4208,-3.5634,-3.6124,-3.6273,-3.7849,-3.8382,-3.8354,-3.8331,-3.8186,-3.8107,-3.8225,-3.8192,-3.8119,-3.8256,-3.8241,-3.8225,-3.8274,-3.8274,-3.8274,-3.8307,-3.8973,-3.9571,-3.9604,-4.0419,-4.1277,-4.19,-4.2192,-4.2136,-4.1423,-4.1229,-4.1395,-4.2049,-4.205,-4.2176,-4.2958,-4.2956,-4.2882,-4.2882,-4.2882,-4.2882,-4.2882,-4.2882,-4.29,-4.2824,-4.2703,-4.2207,-4.1303,-4.0772,-4.0137,-3.9371,-3.9378,-3.9378,-3.9336,-3.9181,-3.8686,-3.784,-3.7116,-3.6669,0.0,0.0,0.0,0.0,-2.3244,-2.2969,-2.3631,0.0,-2.2783,-2.4069,0.0,-2.2935,-2.3419,0.0,0.0,-2.3709,-2.3442,-2.3431,-2.4034,-2.3841,-2.3989,-2.4885,-2.4444,-2.4475,-2.548,-2.5569,-2.5676,-2.596,-2.7177,-2.8147,-2.8709,-2.942,-2.9902,-3.009,-3.0304,-3.0472,-3.061,-3.0676,-3.0725,-3.0799,-3.0799,-3.0774,-3.0717,-3.0517,-3.0849,-3.1511,-3.1324,-3.1665,-3.2357,-3.2091,-3.2371,-3.3024,-3.3679,-3.389,-3.4017,-3.548,-3.5982,-3.6157,-3.7749,-3.8267,-3.8189,-3.8083,-3.8036,-3.8039,-3.8158,-3.8192,-3.8174,-3.8225,-3.8225,-3.8192,-3.8225,-3.8225,-3.8225,-3.8274,-3.8925,-3.954,-3.9571,-4.0808,-4.1902,-4.1975,-4.2523,-4.2978,-4.2887,-4.2832,-4.2813,-4.2793,-4.2793,-4.2792,-4.292,-4.29,-4.2882,-4.2882,-4.2882,-4.2882,-4.2882,-4.2882,-4.2824,-4.2663,-4.2612,-4.2088,-4.092,-3.9957,-3.9756,-4.0315,-4.0351,-4.0263,-4.0172,-4.0043,-3.9312,-3.8064,-3.777,-3.7304,0.0,0.0,0.0,0.0,0.0,0.0,-2.4098,0.0,-2.4279,-2.4828,0.0,0.0,0.0,0.0,0.0,0.0,-2.4118,-2.4042,-2.4208,-2.3995,-2.392,-2.4147,-2.3876,0.0,-2.3894,-2.4287,-2.4708,-2.5182,-2.595,-2.6983,-2.8342,-2.8519,-2.9043,-3.0015,-3.0273,-3.0207,-2.9852,-2.9907,-2.9728,-2.9297,-2.9252,-2.9438,-2.9831,-2.9661,-2.9967,-3.0614,-3.0433,-3.064,-3.1165,-3.1409,-3.1891,-3.2586,-3.3277,-3.3564,-3.3749,-3.5321,-3.5828,-3.6019,-3.7675,-3.8171,-3.807,-3.7861,-3.7807,-3.7857,-3.7877,-3.7897,-3.7949,-3.8104,-3.8104,-3.8122,-3.8223,-3.8241,-3.8334,-3.8805,-3.9512,-4.0236,-4.0725,-4.1778,-4.2614,-4.2541,-4.285,-4.3067,-4.2994,-4.2994,-4.2938,-4.29,-4.2882,-4.2882,-4.2882,-4.2882,-4.2882,-4.2882,-4.2882,-4.2882,-4.2882,-4.2842,-4.2786,-4.26,-4.1948,-4.1455,-4.1253,-4.0455,-4.0306,-4.0998,-4.1006,-4.0996,-4.0958,-4.0781,-4.0217,-3.9378,-3.8625,-3.8131,-2.4678,0.0,0.0,0.0,0.0,0.0,0.0,0.0,0.0,0.0,-2.5206,0.0,0.0,0.0,-2.4996,0.0,0.0,-2.4661,-2.4512,-2.4298,-2.4072,-2.375,-2.3478,-2.3186,0.0,-2.3144,-2.365,-2.4367,-2.4721,-2.5579,-2.7157,-2.7502,-2.824,-2.9447,-3.0081,-3.0037,-2.9338,-2.9375,-2.8982,-2.8166,-2.8096,-2.8427,-2.9115,-2.8732,-2.9025,-2.982,-2.9362,-2.947,-2.9964,-3.036,-3.1028,-3.1894,-3.233,-3.2804,-3.3406,-3.4839,-3.5507,-3.5854,-3.7293,-3.7839,-3.7916,-3.781,-3.7755,-3.7698,-3.7737,-3.7756,-3.781,-3.8018,-3.8018,-3.8052,-3.8223,-3.8241,-3.8391,-3.9153,-3.9931,-4.0709,-4.1468,-4.2357,-4.3012,-4.2918,-4.2956,-4.2994,-4.2938,-4.2882,-4.2882,-4.2882,-4.2882,-4.2882,-4.2882,-4.2882,-4.2882,-4.2882,-4.2882,-4.2882,-4.2882,-4.2783,-4.2649,-4.2426,-4.1503,-4.1165,-4.1587,-4.1033,-4.0963,-4.1437,-4.1408,-4.1415,-4.1398,-4.1186,-4.0891,-4.048,-3.943,-3.8891,0.0,0.0,0.0,-2.3774,0.0,0.0,0.0,0.0,-2.4455,0.0,0.0,-2.528,-2.5293,-2.5235,0.0,0.0,0.0,0.0,0.0,-2.4917,-2.4654,-2.4063,-2.348,-2.3056,0.0,-2.2517,-2.2547,0.0,-2.3499,-2.3922,-2.4492,-2.6489,-2.7771,-2.8161,-2.9625,-3.0079,-2.9409,-2.939,-2.8959,-2.8092,-2.7969,-2.8269,-2.8895,-2.7894,-2.8168,-2.9353,-2.8315,-2.8185,-2.8727,-2.8569,-2.9348,-3.0638,-3.0547,-3.1467,-3.2944,-3.3956,-3.4842,-3.5634,-3.6474,-3.7164,-3.7757,-3.7918,-3.7864,-3.7703,-3.7845,-3.7898,-3.7899,-3.7987,-3.7985,-3.8036,-3.8174,-3.8192,-3.8391,-3.9048,-3.9878,-4.0655,-4.1281,-4.2188,-4.29,-4.2822,-4.288,-4.29,-4.2882,-4.2882,-4.2882,-4.2882,-4.2882,-4.2882,-4.2882,-4.2882,-4.2882,-4.2882,-4.2882,-4.2882,-4.2882,-4.2724,-4.2394,-4.1947,-4.1569,-4.1437,-4.1604,-4.1437,-4.1437,-4.1604,-4.1443,-4.1398,-4.138,-4.1186,-4.1093,-4.1041,-4.0245,-3.95,0.0,0.0,-2.462,-2.4771,0.0,0.0,0.0,0.0,0.0,0.0,0.0,0.0,0.0,0.0,0.0,0.0,0.0,0.0,0.0,-2.5008,-2.4828,-2.4444,-2.3629,-2.3093,-2.3028,0.0,0.0,-2.2727,-2.2485,-2.2869,-2.4084,-2.4875,-2.5844,-2.7078,-2.7988,-2.8197,-2.7616,-2.753,-2.7045,-2.6169,-2.5956,-2.6199,-2.6835,-2.6299,-2.6594,-2.7474,-2.7427,-2.7469,-2.7666,-2.9077,-2.9934,-3.0451,-3.1452,-3.2219,-3.2912,-3.3841,-3.4661,-3.5572,-3.6896,-3.7505,-3.7703,-3.7721,-3.7703,-3.7649,-3.7685,-3.7685,-3.7721,-3.7793,-3.781,-3.7845,-3.797,-3.8005,-3.8311,-3.9571,-4.0112,-4.0652,-4.1908,-4.2451,-4.267,-4.2649,-4.2688,-4.2709,-4.2804,-4.2842,-4.2842,-4.2882,-4.2882,-4.2882,-4.2882,-4.2882,-4.2862,-4.2822,-4.2822,-4.2765,-4.2573,-4.2306,-4.2038,-4.1833,-4.1631,-4.1541,-4.1609,-4.1485,-4.1418,-4.1455,-4.1346,-4.1261,-4.125,-4.114,-4.1093,-4.1093,-4.0723,-4.0447,-2.4733,-2.4911,0.0,-2.5231,-2.5339,0.0,-2.5576,0.0,-2.56,0.0,0.0,0.0,0.0,0.0,0.0,0.0,0.0,0.0,0.0,-2.56,-2.5477,-2.5329,-2.4338,-2.3608,-2.3462,-2.2951,-2.2537,-2.2293,-2.2135,-2.2308,-2.2929,-2.3904,-2.4961,-2.6076,-2.7089,-2.7284,-2.6591,-2.6403,-2.5859,-2.4947,-2.4674,-2.5035,-2.5972,-2.5375,-2.5825,-2.7035,-2.6964,-2.7067,-2.7315,-2.8731,-2.965,-3.0267,-3.1247,-3.21,-3.2793,-3.3407,-3.4314,-3.5507,-3.7131,-3.7667,-3.7649,-3.7649,-3.7612,-3.7558,-3.7594,-3.7594,-3.754,-3.7685,-3.7685,-3.7739,-3.7864,-3.7917,-3.8276,-3.9784,-3.9964,-4.0287,-4.2095,-4.23,-4.2253,-4.2516,-4.2588,-4.2627,-4.2706,-4.2745,-4.2765,-4.2882,-4.2862,-4.2862,-4.2862,-4.2824,-4.2765,-4.2724,-4.2706,-4.253,-4.2269,-4.2026,-4.1842,-4.1744,-4.1542,-4.1485,-4.1545,-4.1383,-4.13,-4.1331,-4.1237,-4.1152,-4.1157,-4.1047,-4.1047,-4.1047,-4.0888,-4.084]}]]